[[{"header":{"parameterUnit":"m.s-1","parameterCategory":1,"la1":30.6,"la2":29.2853,"lo1":-89.7004,"lo2":-87.6739,"dy":0.0162,"dx":0.0183,"nx":112,"ny":82,"refTime":"2024-06-16T18:00:00:Z","depth":0,"parameterNumber":2,"parameterNumberName":"U-component_of_WINDS"},"data":[0.0,0.0,0.0,0.0,0.0,0.0,0.0,0.0,0.0,0.0,0.0,0.0,0.0,0.0,0.0,0.0,0.0,0.0,0.0,0.0,0.0,0.0,0.0,0.0,0.0,0.0,0.0,0.0,0.0,0.0,0.0,0.0,0.0,0.0,0.0,0.0,0.0,0.0,0.0,0.0,0.0,0.0,0.0,0.0,0.0,0.0,0.0,0.0,0.0,0.0,0.0,0.0,0.0,0.0,0.0,0.0,0.0,0.0,0.0,0.0,0.0,0.0,0.0,0.0,0.0,0.0,0.0,0.0,0.0,0.0,0.0,0.0,0.0,0.0,0.0,0.0,0.0,0.0,0.0,0.0,0.0,0.0,0.0,0.0,0.0,0.0,0.0,0.0,0.0,0.0,-3.3499,-3.4612,-3.4395,-3.3887,-3.3457,-3.3027,-3.2246,-3.0976,0.0,0.0,0.0,0.0,0.0,0.0,0.0,0.0,0.0,0.0,0.0,0.0,0.0,0.0,0.0,0.0,0.0,0.0,0.0,0.0,0.0,0.0,0.0,0.0,0.0,0.0,0.0,0.0,0.0,0.0,0.0,0.0,0.0,0.0,0.0,0.0,0.0,0.0,0.0,0.0,0.0,0.0,0.0,0.0,0.0,0.0,0.0,0.0,0.0,0.0,0.0,0.0,0.0,0.0,0.0,0.0,0.0,0.0,0.0,0.0,0.0,0.0,0.0,0.0,0.0,0.0,0.0,0.0,0.0,0.0,0.0,0.0,0.0,0.0,0.0,0.0,0.0,0.0,0.0,0.0,0.0,0.0,0.0,0.0,0.0,0.0,0.0,0.0,0.0,0.0,0.0,0.0,0.0,0.0,0.0,0.0,0.0,0.0,0.0,0.0,0.0,0.0,0.0,0.0,-3.192,-3.3457,-3.3897,-3.3887,-3.3457,-3.3027,-3.2246,-3.0976,0.0,0.0,0.0,0.0,0.0,0.0,0.0,0.0,0.0,0.0,0.0,0.0,0.0,0.0,0.0,0.0,0.0,0.0,0.0,0.0,0.0,0.0,0.0,0.0,0.0,0.0,0.0,0.0,0.0,0.0,0.0,0.0,0.0,0.0,0.0,0.0,0.0,0.0,0.0,0.0,0.0,0.0,0.0,0.0,0.0,0.0,0.0,0.0,0.0,0.0,0.0,0.0,0.0,0.0,0.0,0.0,0.0,0.0,0.0,0.0,0.0,0.0,0.0,0.0,0.0,0.0,0.0,0.0,0.0,0.0,0.0,0.0,0.0,0.0,0.0,0.0,0.0,0.0,0.0,0.0,0.0,0.0,0.0,0.0,0.0,0.0,0.0,0.0,0.0,0.0,0.0,0.0,0.0,0.0,0.0,0.0,0.0,0.0,0.0,0.0,0.0,0.0,0.0,-3.1543,-3.2402,-3.3652,-3.416,-3.4141,-3.3476,-3.2832,-3.2012,-3.0957,-2.9434,0.0,0.0,0.0,0.0,0.0,0.0,0.0,0.0,0.0,0.0,0.0,0.0,0.0,0.0,0.0,0.0,0.0,0.0,0.0,0.0,0.0,0.0,0.0,0.0,0.0,0.0,0.0,0.0,0.0,0.0,0.0,0.0,0.0,0.0,0.0,0.0,0.0,0.0,0.0,0.0,0.0,0.0,0.0,0.0,0.0,0.0,0.0,0.0,0.0,0.0,0.0,0.0,0.0,0.0,0.0,0.0,0.0,0.0,0.0,0.0,0.0,0.0,0.0,0.0,0.0,0.0,0.0,0.0,0.0,0.0,0.0,0.0,0.0,0.0,0.0,0.0,0.0,0.0,0.0,0.0,0.0,0.0,0.0,0.0,0.0,0.0,0.0,0.0,0.0,0.0,0.0,0.0,0.0,0.0,0.0,0.0,0.0,0.0,0.0,0.0,0.0,0.0,-3.2871,-3.3418,-3.3867,-3.4394,-3.4355,-3.3496,-3.2656,-3.1797,-3.0937,-2.9258,0.0,0.0,0.0,0.0,0.0,0.0,0.0,0.0,0.0,0.0,0.0,0.0,0.0,0.0,0.0,0.0,0.0,0.0,0.0,0.0,0.0,0.0,0.0,0.0,0.0,0.0,0.0,0.0,0.0,0.0,0.0,0.0,0.0,0.0,0.0,0.0,0.0,0.0,0.0,0.0,0.0,0.0,0.0,0.0,0.0,0.0,0.0,0.0,0.0,0.0,0.0,0.0,0.0,0.0,0.0,0.0,0.0,0.0,0.0,0.0,0.0,0.0,0.0,0.0,0.0,0.0,0.0,0.0,0.0,0.0,0.0,0.0,0.0,0.0,0.0,0.0,0.0,0.0,0.0,0.0,0.0,0.0,0.0,0.0,0.0,0.0,0.0,0.0,0.0,0.0,0.0,0.0,0.0,0.0,0.0,0.0,0.0,0.0,0.0,0.0,0.0,0.0,-3.3086,-3.4277,-3.3535,-3.4199,-3.4355,-3.3496,-3.2656,-3.1797,-3.0937,-2.9258,0.0,0.0,0.0,0.0,0.0,0.0,0.0,0.0,0.0,0.0,0.0,0.0,0.0,0.0,0.0,0.0,0.0,0.0,0.0,0.0,0.0,0.0,0.0,0.0,0.0,0.0,0.0,0.0,0.0,0.0,0.0,0.0,0.0,0.0,0.0,0.0,0.0,0.0,0.0,0.0,0.0,0.0,0.0,0.0,0.0,0.0,0.0,0.0,0.0,0.0,0.0,0.0,0.0,0.0,0.0,0.0,0.0,0.0,0.0,0.0,0.0,0.0,0.0,0.0,0.0,0.0,0.0,0.0,0.0,0.0,0.0,0.0,0.0,0.0,0.0,0.0,0.0,0.0,0.0,0.0,0.0,0.0,0.0,0.0,0.0,0.0,0.0,0.0,0.0,0.0,0.0,0.0,0.0,0.0,0.0,0.0,0.0,0.0,0.0,0.0,0.0,0.0,-3.2988,-3.4101,0.0,-3.4687,-3.4473,-3.3887,-3.2812,-3.1797,-3.0937,0.0,0.0,0.0,0.0,0.0,0.0,0.0,0.0,0.0,0.0,0.0,0.0,0.0,0.0,0.0,0.0,0.0,0.0,0.0,0.0,0.0,0.0,0.0,0.0,0.0,0.0,0.0,0.0,0.0,0.0,0.0,0.0,0.0,0.0,0.0,0.0,0.0,0.0,0.0,0.0,0.0,0.0,0.0,0.0,0.0,0.0,0.0,0.0,0.0,0.0,0.0,0.0,0.0,0.0,0.0,0.0,0.0,0.0,0.0,0.0,0.0,0.0,0.0,0.0,0.0,0.0,0.0,0.0,0.0,0.0,0.0,0.0,0.0,0.0,0.0,0.0,0.0,0.0,0.0,0.0,0.0,0.0,0.0,0.0,0.0,0.0,0.0,0.0,0.0,0.0,0.0,0.0,0.0,0.0,0.0,0.0,0.0,0.0,0.0,0.0,0.0,0.0,-3.1504,-3.2969,-3.4121,0.0,-3.4805,-3.4531,-3.4101,-3.2773,-3.1601,-3.0723,0.0,0.0,0.0,0.0,0.0,0.0,0.0,0.0,0.0,0.0,0.0,0.0,0.0,0.0,0.0,0.0,0.0,0.0,0.0,0.0,0.0,0.0,0.0,0.0,0.0,0.0,0.0,0.0,0.0,0.0,0.0,0.0,0.0,0.0,0.0,0.0,0.0,0.0,0.0,0.0,0.0,0.0,0.0,0.0,0.0,0.0,0.0,0.0,0.0,0.0,0.0,0.0,0.0,0.0,0.0,0.0,0.0,0.0,0.0,0.0,0.0,0.0,0.0,0.0,0.0,0.0,0.0,0.0,0.0,0.0,0.0,0.0,0.0,0.0,0.0,0.0,0.0,0.0,0.0,0.0,0.0,0.0,0.0,0.0,0.0,0.0,0.0,0.0,0.0,0.0,0.0,0.0,0.0,0.0,0.0,0.0,0.0,0.0,0.0,0.0,0.0,0.0,-3.0781,-3.3125,-3.4531,-3.4141,-3.4453,-3.4531,-3.4121,-3.2519,-3.1152,0.0,0.0,0.0,0.0,0.0,0.0,0.0,0.0,0.0,0.0,0.0,0.0,0.0,0.0,0.0,0.0,0.0,0.0,0.0,0.0,0.0,0.0,0.0,0.0,0.0,0.0,0.0,0.0,0.0,0.0,0.0,0.0,0.0,0.0,0.0,0.0,0.0,0.0,0.0,0.0,0.0,0.0,0.0,0.0,0.0,0.0,0.0,0.0,0.0,0.0,0.0,0.0,0.0,0.0,0.0,0.0,0.0,0.0,0.0,0.0,0.0,0.0,0.0,0.0,0.0,0.0,0.0,0.0,0.0,0.0,0.0,0.0,0.0,0.0,0.0,0.0,0.0,0.0,0.0,0.0,0.0,0.0,0.0,0.0,0.0,0.0,0.0,0.0,0.0,0.0,0.0,0.0,0.0,0.0,0.0,0.0,0.0,0.0,0.0,0.0,0.0,0.0,0.0,-3.1172,-3.3301,-3.4766,-3.498,-3.4824,-3.4648,-3.4531,-3.2949,-3.1601,-3.0742,0.0,0.0,0.0,0.0,0.0,0.0,0.0,0.0,0.0,0.0,0.0,0.0,0.0,0.0,0.0,0.0,0.0,0.0,0.0,0.0,0.0,0.0,0.0,0.0,0.0,0.0,0.0,0.0,0.0,0.0,0.0,0.0,0.0,0.0,0.0,0.0,0.0,0.0,0.0,0.0,0.0,0.0,0.0,0.0,0.0,0.0,0.0,0.0,0.0,0.0,0.0,0.0,0.0,0.0,0.0,0.0,0.0,0.0,0.0,0.0,0.0,0.0,0.0,0.0,0.0,0.0,0.0,0.0,0.0,0.0,0.0,0.0,0.0,0.0,0.0,0.0,0.0,0.0,0.0,0.0,0.0,0.0,0.0,0.0,0.0,0.0,0.0,0.0,0.0,0.0,0.0,0.0,0.0,0.0,0.0,0.0,0.0,0.0,0.0,0.0,0.0,0.0,-3.1348,-3.3379,-3.4883,-3.5351,-3.5137,-3.498,-3.498,-3.3555,-3.2226,-3.1211,0.0,0.0,0.0,0.0,0.0,0.0,0.0,0.0,0.0,0.0,0.0,0.0,0.0,0.0,0.0,0.0,0.0,0.0,0.0,0.0,0.0,0.0,0.0,0.0,0.0,0.0,0.0,0.0,0.0,0.0,0.0,0.0,0.0,0.0,0.0,0.0,0.0,0.0,0.0,0.0,0.0,0.0,0.0,0.0,0.0,0.0,0.0,0.0,0.0,0.0,0.0,0.0,0.0,0.0,0.0,0.0,0.0,0.0,0.0,0.0,0.0,0.0,0.0,0.0,0.0,0.0,0.0,0.0,0.0,0.0,0.0,0.0,0.0,0.0,0.0,0.0,0.0,0.0,0.0,0.0,0.0,0.0,0.0,0.0,0.0,0.0,0.0,0.0,0.0,0.0,0.0,0.0,0.0,0.0,0.0,0.0,0.0,0.0,0.0,0.0,0.0,0.0,-3.1406,-3.3398,-3.4883,-3.5351,-3.5391,-3.5391,-3.5391,-3.418,-3.2891,-3.166,0.0,0.0,0.0,0.0,0.0,0.0,0.0,0.0,0.0,0.0,0.0,0.0,0.0,0.0,0.0,0.0,0.0,0.0,0.0,0.0,0.0,0.0,0.0,0.0,0.0,0.0,0.0,0.0,0.0,0.0,0.0,0.0,0.0,0.0,0.0,0.0,0.0,0.0,0.0,0.0,0.0,0.0,0.0,0.0,0.0,0.0,0.0,0.0,0.0,0.0,0.0,0.0,0.0,0.0,0.0,0.0,0.0,0.0,0.0,0.0,-2.2359,0.0,0.0,0.0,0.0,0.0,0.0,0.0,0.0,0.0,0.0,0.0,0.0,0.0,0.0,0.0,0.0,0.0,0.0,0.0,0.0,0.0,0.0,0.0,0.0,0.0,0.0,0.0,0.0,0.0,0.0,0.0,0.0,0.0,0.0,0.0,0.0,0.0,0.0,0.0,0.0,0.0,-3.1855,-3.3594,-3.4883,-3.5351,-3.5391,-3.5391,-3.5391,-3.418,-3.3027,-3.209,-3.0391,0.0,0.0,0.0,0.0,0.0,0.0,0.0,0.0,0.0,0.0,0.0,0.0,0.0,0.0,0.0,0.0,0.0,0.0,0.0,0.0,0.0,0.0,0.0,0.0,0.0,0.0,0.0,0.0,0.0,0.0,0.0,0.0,0.0,0.0,0.0,0.0,0.0,0.0,0.0,0.0,0.0,0.0,0.0,0.0,0.0,0.0,0.0,0.0,0.0,0.0,0.0,0.0,0.0,0.0,0.0,0.0,0.0,0.0,0.0,0.0,-2.2335,0.0,0.0,0.0,0.0,0.0,0.0,0.0,0.0,0.0,0.0,0.0,0.0,0.0,0.0,0.0,0.0,0.0,0.0,0.0,0.0,0.0,0.0,0.0,0.0,0.0,0.0,0.0,0.0,0.0,0.0,0.0,0.0,0.0,0.0,0.0,0.0,0.0,0.0,0.0,0.0,-3.2266,-3.3769,-3.4961,-3.5625,-3.5703,-3.5703,-3.5703,-3.4668,-3.3769,-3.3125,-3.1269,0.0,0.0,0.0,0.0,0.0,0.0,0.0,0.0,0.0,0.0,0.0,0.0,0.0,0.0,0.0,0.0,0.0,0.0,0.0,0.0,0.0,0.0,0.0,0.0,0.0,0.0,0.0,0.0,0.0,0.0,0.0,0.0,0.0,0.0,0.0,0.0,0.0,0.0,0.0,0.0,0.0,0.0,0.0,0.0,0.0,0.0,0.0,0.0,0.0,0.0,0.0,0.0,0.0,-2.485,-2.4195,-2.4155,-2.4155,-2.4182,-2.4168,-2.3126,-2.2672,-2.2619,-2.2084,0.0,0.0,0.0,0.0,0.0,0.0,0.0,0.0,0.0,0.0,0.0,0.0,0.0,0.0,0.0,0.0,0.0,0.0,0.0,0.0,0.0,0.0,0.0,0.0,-2.6955,-2.7727,0.0,0.0,0.0,0.0,0.0,0.0,0.0,0.0,0.0,0.0,0.0,0.0,-3.2793,-3.4004,-3.5039,-3.5937,-3.6016,-3.6016,-3.6016,-3.5215,-3.4531,-3.4101,-3.2207,-3.0918,0.0,0.0,0.0,0.0,0.0,0.0,0.0,0.0,0.0,0.0,0.0,0.0,0.0,0.0,0.0,0.0,0.0,0.0,0.0,0.0,0.0,0.0,0.0,0.0,0.0,0.0,0.0,0.0,0.0,0.0,0.0,0.0,-2.1632,-2.1775,0.0,0.0,0.0,0.0,0.0,0.0,0.0,0.0,0.0,0.0,0.0,0.0,0.0,-2.4589,-2.5094,-2.5446,-2.5445,-2.5276,-2.5832,-2.5919,-2.5742,-2.5742,-2.5812,-2.6026,-2.5611,0.0,-2.3567,-2.3233,0.0,0.0,0.0,0.0,0.0,0.0,0.0,0.0,0.0,0.0,0.0,0.0,0.0,0.0,0.0,0.0,0.0,0.0,0.0,0.0,0.0,0.0,-2.8914,-2.8225,-2.8565,-2.891,0.0,-2.8644,-2.7842,-2.4527,-2.6789,0.0,0.0,0.0,0.0,0.0,0.0,0.0,-3.3691,-3.4375,-3.5039,-3.5937,-3.6016,-3.6016,-3.6016,-3.5215,-3.4531,-3.4101,-3.2773,-3.1797,-3.1367,-3.0039,0.0,0.0,0.0,0.0,0.0,0.0,0.0,0.0,0.0,0.0,0.0,0.0,0.0,0.0,0.0,0.0,0.0,0.0,0.0,0.0,0.0,0.0,0.0,0.0,0.0,0.0,0.0,0.0,0.0,-2.1543,-2.1844,-2.1977,-2.2124,-2.2111,0.0,0.0,0.0,0.0,0.0,0.0,0.0,0.0,0.0,-2.517,-2.5344,-2.5571,-2.5865,-2.6293,-2.644,-2.6306,-2.6694,-2.6814,-2.6694,-2.6694,-2.676,-2.6881,-2.6747,-2.6333,-2.5665,-2.4703,-2.4035,-2.3581,0.0,0.0,0.0,0.0,-2.4051,-2.3924,-2.5146,-2.5309,0.0,-2.4785,0.0,0.0,0.0,0.0,0.0,0.0,0.0,0.0,0.0,0.0,0.0,-2.631,-2.6647,-2.6896,-2.6617,-2.8154,-2.9104,0.0,-2.9119,-3.0274,-2.859,0.0,0.0,0.0,0.0,-3.2773,-3.4238,-3.4805,-3.5332,-3.5957,-3.6016,-3.6016,-3.6016,-3.5215,-3.4609,-3.4434,-3.3223,-3.2441,-3.2246,-3.123,-3.0332,0.0,0.0,0.0,0.0,0.0,0.0,0.0,0.0,0.0,0.0,0.0,0.0,0.0,0.0,0.0,0.0,0.0,0.0,0.0,0.0,0.0,0.0,0.0,0.0,0.0,0.0,0.0,0.0,-2.1674,-2.223,-2.1745,-2.2477,-2.2926,0.0,0.0,0.0,0.0,0.0,0.0,-2.517,-2.5411,-2.5798,-2.6386,-2.6613,-2.6867,-2.7161,-2.7375,-2.7495,-2.7495,-2.7495,-2.7495,-2.7495,-2.7495,-2.7495,-2.7495,-2.7495,-2.7442,-2.7281,-2.6039,-2.5224,-2.473,-2.4356,-2.4168,-2.4128,-2.4262,-2.4222,-2.4168,-2.4596,-2.4609,-2.4369,-2.4008,0.0,-2.3541,-2.2873,0.0,0.0,0.0,0.0,-2.3434,-2.3968,-2.4382,-2.469,-2.4823,-2.5144,-2.5371,-2.5224,-2.8116,-3.0418,0.0,-3.1223,-3.2394,-3.1398,0.0,0.0,0.0,0.0,-3.3887,-3.5059,-3.541,-3.5723,-3.6133,-3.6094,-3.6016,-3.6016,-3.5215,-3.4707,-3.4707,-3.3594,-3.2949,-3.2949,-3.2246,-3.1426,-3.0547,0.0,0.0,0.0,0.0,0.0,0.0,0.0,0.0,0.0,0.0,0.0,0.0,0.0,0.0,0.0,0.0,0.0,0.0,0.0,0.0,0.0,0.0,0.0,0.0,0.0,0.0,0.0,0.0,0.0,-2.0971,-2.3222,0.0,0.0,0.0,0.0,-2.497,-2.5518,-2.6106,-2.668,-2.6734,-2.7001,-2.7589,-2.7629,-2.7776,-2.8154,-2.8181,-2.8181,-2.8181,-2.8181,-2.8181,-2.8181,-2.8181,-2.8181,-2.8181,-2.8181,-2.7936,-2.7629,-2.6987,-2.656,-2.6226,-2.5651,-2.5251,-2.4983,-2.4716,-2.4783,-2.5024,-2.505,-2.505,-2.5077,-2.5331,-2.5024,-2.4569,-2.4516,-2.4128,0.0,0.0,-2.4329,-2.4623,-2.493,-2.5438,-2.5798,-2.5531,-2.5905,-2.6172,-2.5611,-2.8747,-3.1053,0.0,-3.2018,-3.4537,-3.2441,0.0,-3.4466,-3.4531,-3.4961,-3.5586,-3.6465,-3.623,-3.6152,-3.6601,-3.6269,-3.6016,-3.6016,-3.5215,-3.4707,-3.4707,-3.3867,-3.3379,-3.3379,-3.2969,-3.2324,-3.1465,-3.1035,0.0,0.0,0.0,0.0,0.0,0.0,0.0,0.0,0.0,0.0,0.0,0.0,0.0,0.0,0.0,0.0,0.0,0.0,0.0,0.0,0.0,0.0,0.0,0.0,0.0,0.0,0.0,0.0,-2.148,-2.3972,0.0,-2.4943,-2.5344,-2.5798,-2.6172,-2.6747,-2.7335,-2.7936,-2.815,-2.835,-2.8551,-2.8564,-2.8617,-2.8724,-2.8724,-2.8724,-2.8711,-2.8524,-2.8444,-2.843,-2.8315,-2.8221,-2.8221,-2.8221,-2.8167,-2.7963,-2.7762,-2.7388,-2.6934,-2.672,-2.6573,-2.648,-2.6373,-2.64,-2.6493,-2.6493,-2.6493,-2.644,-2.6172,-2.5812,-2.5451,-2.5251,-2.505,-2.4917,-2.5024,-2.5117,-2.5264,-2.5571,-2.5876,-2.601,-2.5825,-2.5959,-2.6429,-2.7492,-2.9926,-3.2093,-3.273,-3.4915,-3.618,-3.4833,-3.5355,-3.5879,-3.5586,-3.5937,-3.6426,-3.6992,-3.6934,-3.6797,-3.668,-3.6777,-3.6621,-3.6074,-3.5488,-3.5019,-3.4726,-3.3906,-3.3418,-3.3418,-3.3281,-3.2793,-3.1953,-3.1504,-3.0508,0.0,0.0,0.0,0.0,0.0,0.0,0.0,0.0,0.0,0.0,0.0,0.0,0.0,0.0,0.0,0.0,0.0,0.0,0.0,0.0,0.0,0.0,0.0,0.0,0.0,-1.9618,-2.1777,-2.1257,-2.4352,-2.6426,-2.6132,-2.656,-2.7014,-2.7388,-2.7869,-2.8323,-2.8738,-2.8938,-2.8596,-2.7785,-2.8596,-2.8596,-2.7785,-2.8596,-2.9045,-2.9032,-2.8845,-2.8698,-2.8604,-2.8497,-2.8337,-2.8234,-2.8341,-2.8243,-2.8221,-2.8221,-2.7993,-2.7549,-2.7455,-2.7415,-2.7402,-2.7308,-2.7268,-2.7268,-2.7268,-2.7268,-2.7201,-2.6814,-2.656,-2.636,-2.6159,-2.6106,-2.6106,-2.6106,-2.6106,-2.6146,-2.6346,-2.6479,-2.6373,-2.6266,-2.6936,-2.7827,-2.9082,-3.1586,-3.4087,-3.5632,-3.6934,-3.7539,-3.6973,-3.7246,-3.7383,-3.6953,-3.7246,-3.7578,-3.7715,-3.7598,-3.7402,-3.7129,-3.7226,-3.7012,-3.6309,-3.5723,-3.5195,-3.4726,-3.3906,-3.3418,-3.3418,-3.3281,-3.2871,-3.2187,-3.1601,-3.0742,-2.959,0.0,0.0,0.0,0.0,0.0,0.0,0.0,0.0,0.0,0.0,0.0,0.0,0.0,0.0,0.0,0.0,0.0,0.0,0.0,0.0,0.0,0.0,0.0,-1.4838,-1.9335,-2.185,-2.015,-2.4516,-2.7533,-2.7335,-2.811,-2.8644,-2.8644,-2.8911,-2.9085,-2.9085,-2.9085,-2.7998,-2.5578,-2.781,-2.7898,-2.5489,-2.781,-2.9072,-2.9072,-2.9058,-2.8911,-2.8644,-2.8911,-2.8724,-2.8274,-2.8484,-2.8457,-2.8261,-2.8248,-2.8248,-2.8207,-2.7829,-2.7709,-2.7682,-2.7402,-2.7295,-2.7295,-2.7295,-2.7295,-2.7295,-2.7281,-2.7281,-2.7281,-2.7268,-2.7268,-2.7268,-2.7268,-2.7268,-2.7268,-2.7268,-2.7268,-2.7188,-2.6907,-2.8693,-3.041,-3.0254,-3.372,-3.68,-3.6877,-3.7877,-3.8613,-3.8613,-3.8945,-3.9082,-3.8652,-3.8945,0.0,-3.8633,-3.8131,-3.7786,-3.7786,-3.7507,-3.7078,-3.6649,-3.5898,-3.5215,-3.4746,-3.3906,-3.3437,-3.3437,-3.3047,-3.2617,-3.2268,-3.1288,-3.0859,-3.0859,0.0,0.0,0.0,0.0,0.0,0.0,0.0,0.0,0.0,0.0,0.0,0.0,0.0,0.0,0.0,0.0,0.0,0.0,0.0,0.0,0.0,-1.3165,-1.3363,-1.3803,-1.6715,-1.9292,-2.0584,-2.3716,-2.6484,-2.8074,-2.8845,-2.9325,-2.9539,-2.9833,-2.9993,-2.9993,-2.9993,-2.9618,-2.868,-2.9317,-2.9317,-2.8667,-2.9304,-2.9673,-2.9673,-2.9459,-2.9312,-2.9245,-2.9098,-2.8951,-2.8804,-2.8885,-2.8871,-2.8778,-2.8564,-2.8484,-2.8444,-2.8136,-2.8016,-2.8003,-2.802,-2.798,-2.798,-2.798,-2.798,-2.7953,-2.7655,-2.7575,-2.7535,-2.7335,-2.7268,-2.7268,-2.7268,-2.7268,-2.7268,-2.7268,-2.7268,-2.7241,-2.7161,-2.8863,-3.087,-3.2347,-3.4839,-3.7279,-3.8785,-3.9312,-3.9531,-3.9531,-3.9629,-3.9551,-3.9101,-3.9121,0.0,-3.8633,-3.7158,-3.6073,-3.5777,-3.5907,-3.5668,-3.4968,-3.5463,-3.5664,-3.5234,-3.4082,-3.3555,-3.3887,-3.3476,-3.3047,-3.2637,-3.0513,-2.9567,0.0,0.0,0.0,0.0,0.0,0.0,0.0,0.0,0.0,0.0,0.0,0.0,0.0,0.0,0.0,0.0,0.0,0.0,0.0,0.0,0.0,0.0,-1.337,-1.3722,-1.3851,-1.5996,-1.8103,-1.9587,-2.2967,-2.585,-2.7423,-2.8722,-2.97,-3.0247,-3.0327,-3.0421,-3.0528,-3.0541,-2.9991,-2.8792,-2.9611,-2.9688,-2.8701,-2.9611,-3.01,-3.01,-2.9927,-2.9726,-2.9486,-2.9432,-2.9272,0.0,-2.9179,-2.9152,-2.9018,-2.8724,-2.8604,0.0,0.0,0.0,0.0,0.0,-2.8221,-2.8221,-2.8221,-2.8221,-2.8194,-2.7936,-2.7883,-2.7856,-2.7682,-2.7712,-2.7712,-2.7712,-2.7712,-2.7712,-2.7712,-2.7712,-2.7602,-2.7482,-2.9218,-3.1184,-3.2251,-3.5032,-3.7618,-3.8817,-3.9778,0.0,-4.043,-4.0273,-4.0,-3.9551,-3.8859,-3.8198,-3.7631,-3.5692,-3.4307,-3.4082,-3.4192,-3.3983,-3.3228,-3.4299,0.0,0.0,0.0,-3.3906,-3.3809,-3.2944,0.0,0.0,0.0,0.0,0.0,0.0,0.0,0.0,-3.3154,-3.3984,0.0,0.0,0.0,0.0,0.0,0.0,0.0,0.0,0.0,0.0,0.0,0.0,0.0,0.0,0.0,0.0,-1.3926,-1.4217,-1.4496,-1.6194,-1.7651,-1.797,-2.1975,-2.5055,-2.6057,-2.799,-2.9684,-3.0728,-3.0621,-3.0608,-3.0822,0.0,0.0,0.0,0.0,-2.9493,-2.7565,-2.9493,-3.0408,-3.0408,-3.0381,-3.0087,-2.9593,-2.982,-2.9633,-2.9152,-2.9419,-2.9379,-2.9112,-2.8818,-2.8671,-2.8577,-2.827,-2.8221,-2.8221,-2.8221,-2.8221,-2.8221,-2.8221,0.0,0.0,-2.8221,-2.8221,-2.8221,-2.8221,-2.8221,-2.8221,-2.8221,-2.8221,-2.8221,-2.8221,-2.8221,-2.8167,-2.7816,-2.9644,-3.1317,-3.1115,-3.4501,-3.7578,-3.7578,-3.9119,-4.0431,-4.0431,-4.0279,-4.0047,-3.9641,-3.805,-3.6659,-3.5833,-3.3872,-3.2634,-3.2634,0.0,0.0,-3.1658,-3.2681,-3.3162,-3.2825,-3.3865,-3.4127,-3.3276,-3.2022,-3.1103,-3.0461,-2.901,-2.8724,-2.9568,-3.1427,-3.282,-3.3767,-3.4213,-3.5273,0.0,0.0,0.0,0.0,0.0,0.0,0.0,0.0,0.0,0.0,0.0,0.0,0.0,0.0,0.0,-1.3933,-1.4231,-1.4489,-1.4672,-1.5139,-1.6157,-1.7927,-1.9246,-2.1468,-2.5464,-2.691,-2.8439,-3.0689,-3.1183,-3.133,-3.1156,-3.1142,-3.0836,-3.0135,-3.0452,-3.0544,-3.0122,-3.0544,-3.0715,-3.0702,0.0,0.0,-3.0181,-2.9993,-2.986,-2.9753,-2.9806,-2.9806,-2.9726,-2.9432,-2.9032,-2.8577,-2.827,-2.8221,-2.8221,-2.8221,-2.8221,-2.8221,-2.8221,-2.8221,-2.8221,-2.8221,-2.8221,-2.8221,-2.8221,-2.8221,0.0,-2.8221,-2.8221,-2.8221,-2.8221,-2.8221,-2.8207,-2.8154,-2.9815,-3.1377,-3.1317,-3.3465,-3.5298,-3.5298,-3.5621,-3.596,-3.596,-3.7347,-3.831,-3.7828,-3.5992,-3.4434,-3.3999,-3.2063,-3.0794,-3.0794,-3.0584,-3.0356,-3.0295,-3.113,-3.1616,-3.1549,-3.265,-3.3002,-3.2198,-3.2517,-3.1579,-2.9378,-2.8131,-2.838,-3.014,-3.0935,-3.2463,-3.4812,-3.5769,-3.6894,0.0,0.0,0.0,0.0,0.0,0.0,0.0,0.0,0.0,0.0,0.0,-1.3247,-1.3478,0.0,-1.4143,-1.4367,-1.4597,-1.4794,-1.4943,-1.5092,-1.5566,-1.6514,-1.7889,-2.039,-2.4194,-2.6016,-2.8152,-3.1022,-3.1503,-3.1664,-3.1664,-3.1664,-3.1597,-3.145,-3.1169,-3.1076,-3.1236,-3.1089,-3.1009,-3.1009,-3.0862,-3.0715,-3.0568,-3.0274,-3.014,-3.0127,-2.998,-2.9913,-2.99,-2.9606,-2.9219,-2.8791,-2.8497,-2.8283,-2.8221,-2.8221,-2.8221,-2.8221,-2.8221,-2.8221,-2.8221,-2.8221,-2.8221,-2.8221,-2.8221,-2.8221,-2.8221,-2.8221,-2.8221,-2.8221,-2.8221,-2.8221,-2.8221,-2.8221,-2.9048,-2.9774,-2.9774,-3.149,-3.3022,-3.3022,-3.392,-3.4732,-3.4732,-3.4651,-3.4859,-3.5526,-3.3951,-3.2563,-3.2154,-3.027,-2.8998,-2.8998,-2.8716,-2.8613,-2.8613,-2.9574,-3.0526,-3.1195,-3.1777,-3.1836,-3.1269,-3.0876,-2.9977,-2.838,-2.7071,-2.6961,-2.8148,-2.9511,-3.157,-3.4151,-3.587,-3.7549,0.0,0.0,0.0,0.0,0.0,0.0,0.0,-1.261,-1.2861,-1.3193,-1.3573,-1.3926,-1.4197,-1.4441,-1.4658,-1.4841,-1.4977,-1.5106,-1.5248,-1.5377,-1.5364,-1.5126,-1.7075,-1.9733,-2.3014,-2.5141,-2.7828,-3.1434,-3.1717,-3.1877,-3.2171,-3.2185,-3.2158,-3.2104,-3.1637,-3.1476,-3.1664,-3.1436,-3.1316,-3.1316,-3.1249,-3.1102,-3.0862,-3.0515,-3.0354,-3.0341,-3.0047,-2.9671,-2.9234,-2.8895,-2.8344,-2.7648,-2.7381,-2.7397,-2.7689,-2.8092,-2.8261,-2.8315,-2.8248,-2.8221,-2.8221,-2.8221,-2.8221,-2.8221,-2.8221,-2.8221,-2.8221,-2.8221,-2.8221,-2.8221,-2.8221,-2.8221,-2.8221,-2.8221,-2.8221,-2.8221,-2.8221,-2.9523,-3.0744,-3.0744,-3.2217,-3.3431,-3.3431,-3.197,-3.1385,-3.321,-3.1966,-3.0656,-3.0325,-2.8841,-2.7789,-2.7789,-2.7522,-2.7321,-2.7268,-2.8227,-2.9451,-3.0777,-3.0895,-3.0734,-3.0306,-2.9181,-2.8146,-2.7374,-2.6336,-2.6084,-2.6649,-2.8608,-3.0778,-3.3227,-3.5632,-3.7945,-1.6704,-1.4554,-1.238,-1.2501,-1.263,-1.2868,0.0,-1.3763,-1.3817,-1.4251,-1.4489,-1.4665,-1.4841,-1.4896,-1.5011,-1.5289,-1.535,-1.5411,-1.5567,-1.5601,-1.5601,-1.5567,-1.578,-1.7896,-2.273,-2.3765,-2.6203,-3.1352,-3.1904,-3.2185,-3.2576,-3.2492,-3.2372,-3.2104,-3.2038,-3.1891,-3.1677,-3.1637,-3.1623,-3.1623,-3.1356,-3.1209,-3.1156,-3.0608,-3.0354,-3.0341,-3.0047,-2.886,-2.7005,-2.6414,-2.4912,-2.2872,-2.2553,-2.3798,-2.595,-2.7558,-2.8323,-2.8511,-2.8243,-2.8221,-2.8221,-2.8221,-2.8221,-2.8221,-2.8221,-2.8221,-2.8221,-2.8221,-2.8221,-2.8221,-2.8221,-2.8221,-2.8221,-2.8221,-2.8221,-2.8221,-2.8221,-2.8389,-2.8558,-2.8558,-2.8796,-2.8964,-2.8964,-2.8712,-2.9272,-3.1347,-2.9912,-2.8544,-2.8503,-2.8251,-2.8181,-2.8181,-2.7829,-2.7549,-2.7281,-2.7446,-2.8211,-2.9792,-2.9856,-2.9706,-2.9361,-2.916,-2.8207,-2.6239,-2.6479,-2.7406,-2.9016,-2.9779,-3.1271,-3.345,-3.6035,-3.8372,-1.4714,-1.3498,-1.2651,-1.2922,-1.3186,-1.3498,-1.3966,-1.4089,-1.4211,-1.457,-1.4835,-1.5018,-1.5079,-1.5242,-1.5425,-1.5635,-1.5744,-1.5852,-1.6008,-1.6029,-1.6029,-1.6029,-1.5947,-1.7884,-2.3033,-2.3693,-2.6053,-3.1508,-3.2198,-3.2492,-3.2786,-3.2799,-3.2746,-3.2612,-3.2278,-3.2051,-3.1917,-3.1757,-3.1664,-3.1664,-3.1543,-3.149,-3.1476,-3.1049,-3.0768,-3.0608,-3.0474,-2.8998,-2.6697,-2.6382,-2.474,-2.2394,-2.2071,-2.3512,-2.5943,-2.6399,-2.7401,-2.8591,-2.8457,-2.8297,-2.8221,-2.8221,-2.8221,-2.8221,-2.8221,-2.8221,-2.8221,-2.8221,-2.8221,-2.8221,-2.8221,-2.8221,-2.8221,-2.8221,-2.8221,-2.8221,-2.8221,-2.8221,-2.8221,-2.8221,-2.8221,-2.8221,-2.8221,-2.8221,-2.8473,-2.937,-2.8796,-2.8221,-2.8221,-2.8221,-2.8221,-2.8221,-2.803,-2.7843,-2.7549,-2.7522,-2.7716,-2.8281,-2.8267,-2.8197,-2.8071,-2.8071,-2.7696,-2.68,-2.6961,-2.7405,-2.8151,-2.8585,-2.9908,-3.1993,-3.3291,-3.572,-1.3373,-1.2786,-1.3071,-1.3302,-1.3668,-1.4007,-1.4156,-1.4346,-1.4543,-1.476,-1.5004,-1.5208,-1.5296,-1.552,-1.5757,-1.5947,-1.6103,-1.6239,-1.6354,-1.6334,-1.6307,-1.6307,-1.6178,-1.8083,-2.3262,-2.3926,-2.634,-3.1917,-3.2545,-3.2786,-3.308,-3.3093,-3.3066,-3.2986,-3.2572,-3.2265,-3.2104,-3.1891,-3.1744,-3.1664,-3.1664,-3.1664,-3.1664,-3.1356,-3.1116,-3.0902,-3.0056,-2.8211,-2.5693,-2.4966,-2.3036,-2.052,-2.0272,-2.2222,-2.5173,-2.4733,-2.637,-2.8711,-2.8631,-2.8404,-2.8221,-2.8221,-2.8221,-2.8221,-2.8221,-2.8221,-2.8221,-2.8221,-2.8221,-2.8221,-2.8221,-2.8221,-2.8221,-2.8221,-2.8288,-2.827,-2.827,-2.827,-2.827,-2.827,-2.8288,-2.8221,-2.8221,-2.8221,-2.8221,-2.8221,-2.8221,-2.8221,-2.8221,-2.8221,-2.8221,-2.8221,-2.8221,-2.814,-2.7843,-2.7816,-2.7736,-2.7522,-2.7591,-2.7591,-2.7591,-2.7428,-2.7388,-2.7388,-2.7388,-2.7388,-2.7388,-2.7682,-2.8634,-3.0258,-3.104,-3.3104,-1.3637,-1.2942,-1.3268,-1.3709,-1.4055,-1.4326,-1.4468,-1.4733,-1.495,-1.4964,-1.5079,-1.5276,-1.5567,-1.5744,-1.5947,-1.6246,-1.6415,-1.651,-1.6517,-1.6395,-1.6307,-1.6307,-1.6178,-1.8129,0.0,-2.416,-2.6661,-3.2498,-3.2959,-3.3093,-3.3387,-3.34,-3.3267,-3.2986,-3.2959,-3.2679,-3.2104,-3.2091,-3.1944,-3.1664,-3.1664,-3.1664,-3.1664,-3.1356,-3.1223,-3.1009,-2.8234,-2.566,-2.3287,-2.0445,-1.7836,-1.5462,-1.5455,-1.8313,-2.2647,-2.2637,-2.5339,-2.8991,-2.8711,-2.8404,-2.8221,-2.8221,-2.8221,-2.8221,-2.8221,-2.8221,-2.8221,-2.8221,-2.8221,-2.8221,-2.8221,-2.8221,-2.8221,-2.8221,-2.8377,-2.8591,-2.8591,-2.8591,-2.8591,-2.8591,-2.835,-2.8221,-2.8221,-2.8221,-2.8221,-2.8221,-2.8221,-2.8221,-2.8221,-2.8221,-2.8221,-2.8221,-2.8221,-2.8221,-2.8221,-2.8207,-2.8207,-2.8207,-2.8207,-2.8207,-2.8207,-2.7843,-2.7682,-2.7682,-2.7682,-2.7682,-2.7682,-2.7989,-2.8207,-2.8376,-3.0412,-3.1475,-1.3626,-1.3241,-1.3559,-1.3905,-1.415,-1.4367,-1.4611,-1.4665,-1.4726,-1.493,-1.5011,-1.5106,-1.5303,-1.554,-1.5845,-1.6246,-1.6429,-1.6592,-1.6795,-1.6693,-1.6564,-1.6463,-1.8,-2.0551,-2.4117,0.0,0.0,-3.2345,-3.2692,-3.2906,-3.3387,-3.3414,-3.3374,-3.3267,-3.2893,-3.2599,-3.2398,-3.2011,-3.177,-3.1664,-3.1664,-3.1664,-3.1664,-3.157,-3.0544,-2.8904,-2.7938,-2.5013,-2.0946,-1.9785,-1.7725,-1.5513,-1.707,-1.9613,-2.2739,-2.4398,-2.6839,-2.9325,-2.9219,-2.8991,-2.8711,-2.8511,-2.8457,-2.8417,-2.8288,-2.8221,-2.8221,-2.8221,-2.8221,-2.8221,-2.8221,-2.8297,-2.8457,-2.8457,-2.8671,-2.8898,-2.8898,-2.8898,-2.8898,-2.8898,-2.8804,-2.8738,-2.8738,-2.8577,-2.8377,-2.8261,-2.8221,-2.8221,-2.8221,-2.8221,-2.8221,-2.8221,-2.8221,-2.8221,-2.8221,-2.8221,-2.8221,-2.8221,-2.8221,-2.8221,-2.8221,-2.8127,-2.7989,-2.7989,-2.7989,-2.7989,-2.7989,-2.8297,-2.8457,-2.8457,-2.9388,-3.0567,-1.3778,-1.3519,-1.3777,-1.4075,-1.4265,-1.4428,-1.4618,-1.4624,-1.4652,-1.4848,-1.4889,-1.495,-1.5147,-1.5391,-1.5723,-1.6232,-1.6429,-1.6632,-1.6937,-1.6849,-1.6714,-1.6612,-1.8971,-2.1637,-2.4437,-2.5272,0.0,-3.2504,-3.2853,-3.3013,-3.3387,-3.3414,-3.3414,-3.3414,-3.3053,-3.2759,-3.2643,-3.2268,-3.1931,-3.1824,-3.1717,-3.1241,-3.0447,-3.0344,-2.8847,-2.6312,-2.5432,-2.3081,-1.9708,-1.8624,-1.7585,-1.6897,-1.8367,-2.0964,-2.4021,-2.5582,-2.768,-2.9619,-2.9526,-2.9285,-2.9005,-2.8818,-2.8684,-2.8577,-2.8364,-2.8315,-2.8221,-2.8221,-2.8221,-2.8248,-2.8283,-2.8457,-2.8631,-2.8738,-2.8978,-2.9205,-2.9205,-2.9205,-2.9205,-2.9205,-2.9112,-2.9045,-2.9045,-2.8885,-2.8657,-2.835,-2.831,-2.827,-2.8248,-2.8221,-2.8221,-2.8221,-2.8221,-2.8221,-2.8221,-2.8328,-2.831,-2.831,-2.8404,-2.8417,-2.831,-2.831,-2.8341,-2.8234,-2.8221,-2.8274,-2.831,-2.8511,-2.8657,-2.8764,-2.8951,-2.9786,-1.3999,-1.3736,-1.3926,-1.4224,-1.4401,-1.4502,-1.4509,-1.4618,-1.4719,-1.4726,-1.4719,-1.4808,-1.5092,-1.5289,-1.5594,-1.6191,-1.6422,-1.6632,-1.6937,-1.6856,-1.6761,-1.6754,-1.9057,-2.1664,-2.4257,-2.707,0.0,-3.316,0.0,-3.34,-3.3414,-3.3414,-3.3414,-3.3414,-3.3387,-3.3106,-3.2643,-3.2616,-3.2372,-3.2104,-3.1702,-3.0338,-2.8132,-2.7789,-2.6216,-2.3588,-2.1049,-1.9885,-1.9442,-1.6922,-1.7217,-1.9184,-1.9261,-2.2118,-2.6253,-2.6344,-2.7895,-2.9873,-2.9606,-2.9325,-2.9085,-2.9072,-2.8871,-2.8644,-2.8631,-2.8417,-2.8274,-2.8274,-2.8274,-2.8341,-2.8551,-2.8644,-2.8724,-2.8991,-2.9285,-2.9499,-2.9499,-2.9499,-2.9499,-2.9499,-2.9285,-2.9085,-2.9072,-2.9058,-2.8965,-2.8671,-2.8617,-2.8497,-2.8261,-2.8221,-2.8221,-2.8221,-2.8248,-2.8248,-2.8248,-2.8457,-2.8631,-2.8631,-2.8885,-2.8911,-2.8644,-2.8631,-2.8484,-2.8274,-2.8274,-2.8337,-2.8631,-2.8644,-2.8791,-2.9058,-2.9072,-2.9085,-1.365,-1.3817,-1.4061,-1.4251,-1.4326,-1.438,-1.4489,-1.4462,-1.4441,-1.455,-1.4482,-1.4468,-1.4652,-1.4991,-1.5398,-1.5893,-1.6279,-1.6632,-1.6937,-1.6944,-1.6876,-1.6761,-1.9275,-2.2021,-2.4608,-2.7482,0.0,0.0,-3.3213,-3.3187,-3.34,-3.3414,-3.3414,-3.3414,-3.2986,-3.2692,-3.2643,-3.2104,-3.1957,-3.2104,-2.9846,-2.85,-2.7874,-2.5851,-2.3481,-2.0951,-2.0273,-1.8888,-1.699,-1.6195,-1.7352,-1.9748,-2.1489,-2.3925,-2.6798,-2.8663,-2.9545,-2.99,-2.9833,-2.9753,-2.9659,-2.9446,-2.9325,-2.9219,-2.8991,-2.8871,-2.8804,-2.8804,-2.8804,-2.8831,-2.8911,-2.9098,-2.9285,-2.9352,-2.9593,-2.9806,-2.9806,-2.9806,-2.9806,-2.9806,-2.974,-2.9619,-2.9406,-2.9366,-2.9272,-2.8978,-2.8751,-2.8497,-2.8261,-2.8221,-2.8221,-2.8221,-2.835,-2.8484,-2.8484,-2.8764,-2.8925,-2.8925,-2.9005,-2.9005,-2.8938,-2.8925,-2.8898,-2.8818,-2.8804,-2.8845,-2.8938,-2.9152,-2.9299,-2.9379,-2.9593,-2.97,-1.3783,-1.3994,-1.419,-1.4278,-1.4299,-1.4306,-1.4319,-1.4258,-1.4224,-1.4299,-1.4251,-1.4265,-1.4475,-1.4774,-1.5181,-1.5757,-1.6123,-1.6483,-1.6917,-1.6978,-1.6951,-1.6863,-1.9399,-2.219,-2.4829,-2.7592,-3.0445,0.0,-3.3253,-3.324,-3.34,-3.3414,-3.3414,-3.3414,-3.3093,-3.2799,-3.2643,-3.1957,-3.181,-3.2104,-2.9174,-2.7249,-2.6177,-2.3433,-2.0764,-1.8327,0.0,-1.7452,-1.6076,-1.5988,-1.7426,-1.9677,-2.0992,-2.3489,-2.6636,-2.8029,-2.9132,-2.9913,-2.9913,-2.9913,-2.9887,-2.9726,-2.9593,-2.9459,-2.9285,-2.9138,-2.9045,-2.9045,-2.9045,-2.9072,-2.9205,-2.9352,-2.9513,-2.9646,-2.9793,-2.9913,-2.9913,-2.9913,-2.9913,-2.9913,-2.9913,-2.986,-2.97,-2.9673,-2.9566,-2.9285,-2.9098,-2.8885,-2.8577,-2.831,-2.8221,-2.8221,-2.8417,-2.8604,-2.8604,-2.8991,-2.9232,-2.9232,-2.9352,-2.9366,-2.9245,-2.9232,-2.9179,-2.9045,-2.9045,-2.9098,-2.9232,-2.9406,-2.9553,-2.9673,-2.9847,-2.9913,-1.4121,-1.444,-1.4646,-1.4387,-1.4299,-1.4258,-1.4109,-1.4075,-1.4075,-1.4075,-1.4075,-1.4156,-1.4434,-1.4638,-1.4997,-1.5683,-1.5954,-1.6286,-1.687,-1.6951,-1.6958,-1.6978,-1.9149,-2.1829,-2.4906,-2.7363,-3.0028,-3.32,-3.3414,-3.3414,-3.3414,-3.3414,-3.3387,-3.336,-3.336,-3.3106,-3.271,-3.2064,-3.1917,-3.2158,-2.8922,-2.6263,-2.4153,-2.0933,-1.8228,-1.6083,-1.6083,0.0,-1.6083,-1.6083,-1.738,-1.9409,-1.9384,-2.1978,-2.5776,-2.5742,-2.7365,-2.9451,-2.9451,-2.9631,-2.9913,-2.9913,-2.9753,-2.9539,-2.9539,-2.9366,-2.9152,-2.9152,-2.9152,-2.9219,-2.9472,-2.9539,-2.9606,-2.986,-2.9913,-2.9913,-2.9913,-2.9913,-2.9913,-2.9913,-2.9913,-2.9913,-2.9913,-2.9913,-2.9833,-2.9579,-2.9513,-2.9392,-2.9125,-2.8604,-2.8341,-2.8341,-2.8537,-2.8724,-2.8724,-2.9232,-2.9539,-2.9539,-2.978,-2.9806,-2.9553,-2.9539,-2.9419,-2.9165,-2.9152,-2.9299,-2.9606,-2.9606,-2.9726,-2.998,-2.998,-2.9953,-1.4576,-1.5643,-1.6729,-1.4822,-1.4299,-1.4258,-1.4109,-1.4075,-1.4075,-1.4075,-1.4075,-1.4129,-1.4306,-1.4665,-1.5052,-1.5425,-1.5825,-1.6246,-1.672,-1.6788,-1.6836,-1.6965,-1.7398,-1.9662,-2.4701,-2.5625,0.0,0.0,-3.3414,-3.3414,-3.3414,-3.3414,-3.3307,-3.3066,-3.3053,-3.3,-3.2906,-3.2572,-3.2509,-3.2465,-2.7312,-2.4562,-2.3833,-1.9026,-1.6573,-1.6083,-1.6083,0.0,-1.6083,-1.6083,-1.7613,-1.9868,-1.9725,-2.1333,-2.3728,-2.3644,-2.4929,-2.6876,-2.6876,-2.8166,-2.9913,-2.9913,-2.9887,-2.9847,-2.9847,-2.9806,-2.9766,-2.9766,-2.9766,-2.978,-2.9833,-2.9847,-2.986,-2.99,-2.9913,-2.9913,-2.9913,-2.9913,-2.9913,-2.9913,-2.9913,-2.9913,-2.9913,-2.9913,-2.99,-2.9847,-2.9633,-2.9459,-2.9419,-2.9098,-2.8885,-2.8885,-2.9152,-2.9325,-2.9325,-2.9646,-2.9847,-2.9847,-2.9887,-2.99,-2.9847,-2.9847,-2.982,-2.9766,-2.9766,-2.9913,-3.0207,-3.0207,-3.0234,-3.0287,-3.0287,-3.0154,-1.514,-1.5973,-1.7247,-1.4911,-1.4299,-1.4238,-1.4007,-1.3953,-1.3953,-1.3953,-1.3953,-1.4021,-1.4258,-1.4536,-1.4855,-1.5228,-1.554,-1.594,-1.6544,-1.6632,-1.672,-1.6951,-1.6978,-1.9149,-2.4701,-2.5215,-2.7465,-3.3,-3.3414,-3.3414,-3.3414,-3.3414,-3.3347,-3.3213,-3.3053,-3.2973,-3.2973,-3.2692,-3.2643,-3.2545,-2.8371,-2.6222,-2.6004,-2.1986,-2.0183,-2.0085,-1.8714,0.0,-1.8031,-1.6665,-1.6771,-1.7666,-1.7591,-1.9013,-2.0983,-2.089,-2.3107,-2.6229,-2.6229,-2.7792,-2.9913,-2.9913,-2.9913,-2.9913,-2.9913,-2.9913,-2.9913,-2.9913,-2.9913,-2.9913,-2.9913,-2.9913,-2.9913,-2.9913,-2.9913,-2.9913,-2.9913,-2.9913,-2.9913,-2.9913,-2.9913,-2.9913,-2.9913,-2.9913,-2.9913,-2.9913,-2.9793,-2.9713,-2.9713,-2.9579,-2.9379,-2.9072,-2.9312,-2.9486,-2.9486,-2.9753,-2.9913,-2.9913,-2.9913,-2.9913,-2.9913,-3.006,-3.014,-3.014,-3.0301,-3.0448,-3.0581,-3.0581,-3.0581,-3.0581,-3.0581,-3.0515,-1.6202,-1.6729,-1.7851,-1.4992,-1.4299,-1.4217,-1.3912,-1.3865,-1.3878,-1.3844,-1.3865,-1.3973,-1.4251,-1.4414,-1.4638,-1.5025,-1.5242,-1.5401,-1.5467,-1.6022,-1.6379,-1.6152,-1.6636,-1.9149,-2.4701,-2.5215,0.0,-3.3,-3.3414,-3.3414,-3.3414,-3.3414,-3.3414,-3.3414,-3.3187,-3.3066,-3.3066,-3.2839,-3.2666,-3.2545,-2.9787,-2.8336,-2.7976,-2.528,-2.392,-2.3783,-2.1147,0.0,0.0,-1.7154,-1.5927,-1.5683,-1.5649,-1.6598,-1.8184,-1.8702,-2.1626,-2.5503,-2.6106,-2.7842,-2.9927,-2.9993,-2.9967,-2.9913,-2.9913,-2.9967,-2.9993,-2.994,-2.9967,-2.9993,-2.9927,-2.9913,-2.9913,-2.9913,-2.9913,-2.9913,-2.9913,-2.9913,-2.9913,-2.9913,-2.9913,-2.9913,-2.9913,-2.9913,-2.9913,-2.9913,-2.9913,-2.9913,-2.9913,-2.9913,-2.9766,-2.9366,-2.9472,-2.9579,-2.9579,-2.978,-2.994,-3.0007,-3.0007,-3.0034,-3.01,-3.0327,-3.0448,-3.0448,-3.0675,-3.0822,-3.0889,-3.0889,-3.0889,-3.0889,-3.0889,-3.0849,-1.8148,-1.915,-1.9845,-1.5433,-1.4299,-1.4217,-1.3912,-1.3946,-1.4014,-1.3871,-1.3953,-1.4102,-1.4272,-1.4414,-1.457,-1.4753,-1.5018,-1.4501,-1.2476,-1.4637,-1.5507,-1.3374,-1.5407,-1.9149,-2.4701,-2.5215,-2.7465,-3.3,-3.3414,0.0,-3.3414,-3.3414,-3.3414,-3.3414,-3.3387,-3.3374,-3.3374,-3.3347,-3.3066,-3.2545,-3.0169,-2.8595,-2.7731,-2.5365,-2.416,-2.3783,-2.1147,0.0,0.0,-1.7154,-1.5981,-1.5818,-1.5689,-1.5629,-1.5934,-1.8099,-2.0622,-2.3331,-2.5765,-2.8095,-2.9967,-3.0234,-3.014,-2.9913,-2.9913,-3.01,-3.0261,-2.9993,-3.0114,-3.0261,-2.998,-2.9913,-2.9913,-2.9913,-2.9913,-2.9913,-2.9913,-2.9913,-2.9913,-2.9913,-2.9913,-2.9913,-2.9913,-2.9913,-2.9913,-2.9913,-2.9913,-2.9913,-2.9913,-2.9913,-2.9993,-3.0221,-3.002,-2.9873,-2.9873,-2.99,-3.0034,-3.0301,-3.0314,-3.0434,-3.0702,-3.0742,-3.0755,-3.0755,-3.0782,-3.0929,-3.1183,-3.1183,-3.1183,-3.1183,-3.1183,-3.1049,-1.8827,-1.9309,-2.0096,-1.5433,-1.4299,-1.4217,-1.3912,-1.396,-1.4027,-1.3871,-1.3966,-1.4122,-1.4272,-1.4346,-1.4434,-1.4577,-1.4699,-1.4593,-1.4053,-1.5003,-1.5579,-1.5091,-1.6034,-1.8307,-2.2311,0.0,-2.7465,-3.3,-3.3414,0.0,-3.3414,-3.3414,-3.3414,-3.3414,-3.3414,-3.3414,-3.3414,-3.3414,-3.3293,-3.3066,-3.1827,-3.1027,-3.0611,-2.9393,-2.8741,-2.8344,-2.4161,0.0,0.0,-1.7795,-1.594,-1.5723,-1.5757,-1.5622,-1.5507,-1.6576,-1.9424,-2.2974,-2.4226,-2.7152,-3.0461,-3.0581,-3.0541,-3.0381,-3.002,-2.9993,-3.0074,-2.9953,-3.0007,-3.006,-2.994,-2.9913,-2.9913,-2.9913,-2.9913,-2.9913,-2.9913,-2.9913,-2.9913,-2.9913,-2.9913,-2.9913,-2.9913,-2.9913,-2.9913,-2.9913,-2.9913,-2.9913,-2.9913,-2.9913,-3.0034,-3.0327,-3.0247,-3.0261,-3.0434,-3.0448,-3.0488,-3.0608,-3.0621,-3.0675,-3.0795,-3.0969,-3.1049,-3.1049,-3.1236,-3.137,-3.149,-3.149,-3.149,-3.149,-3.149,-3.1436,-1.8703,-1.8691,-1.9237,-1.5256,-1.4299,-1.4217,-1.3912,-1.3994,-1.4082,-1.3878,-1.4,-1.417,-1.4278,-1.4299,-1.4333,-1.4434,-1.4523,-1.4466,-1.4159,-1.4908,-1.5391,-1.5133,-1.5848,-1.7618,-2.0694,-2.4212,-2.7975,-3.1882,-3.2899,0.0,-3.3414,-3.3414,-3.3414,-3.3414,-3.3414,-3.3414,-3.3414,-3.3414,-3.332,-3.3146,-3.2826,-3.2532,-3.2278,-3.1944,-3.1757,-3.1365,-2.6127,0.0,0.0,-1.8203,-1.5866,-1.5655,-1.5798,-1.5676,-1.552,-1.6337,-1.8843,-2.2088,-2.3779,-2.6677,-2.9752,-3.0611,-3.0808,-3.0581,-3.0181,-3.01,-3.014,-2.9967,-2.9913,-2.9913,-2.9913,-2.9913,-2.9913,-2.9913,-2.9913,-2.9913,-2.9913,-2.9913,-2.9913,-2.9913,-2.9913,-2.994,-3.0034,-3.0047,-3.0047,-3.0047,-3.0047,-3.002,-2.9927,-2.9993,-3.0154,-3.0461,-3.0568,-3.0662,-3.0782,-3.0795,-3.0822,-3.0915,-3.0915,-3.0955,-3.1049,-3.1249,-3.1356,-3.1356,-3.1557,-3.1664,-3.1664,-3.1664,-3.1664,-3.1664,-3.1664,-3.1664,-1.7829,-1.757,-1.7238,-1.4911,-1.4299,-1.4217,-1.3912,-1.4075,-1.4211,-1.3905,-1.4082,-1.4299,-1.4299,-1.4299,-1.4299,-1.4299,-1.4543,-1.3865,-1.1295,-1.362,-1.4711,-1.2175,-1.4391,-1.7285,-2.0301,-2.5865,-2.9319,-2.9319,-3.1869,0.0,-3.3414,-3.3414,-3.3414,-3.3414,-3.3414,-3.3414,-3.3414,-3.3414,-3.312,-3.2656,-3.2839,-3.2519,-3.169,-3.1971,-3.1944,0.0,0.0,0.0,0.0,-1.8071,-1.5771,-1.5655,-1.5798,-1.5676,-1.5711,-1.8328,-1.9224,-1.9956,-2.5399,-2.711,-2.7402,-3.0262,-3.0835,-3.0368,-3.0354,-3.0555,-3.0662,-3.0087,-2.9913,-2.9913,-2.9913,-2.9913,-2.9913,-2.9913,-2.9913,-2.9913,-2.9913,-2.9913,-2.9913,-2.9913,-2.9913,-3.0007,-3.0301,-3.0354,-3.0354,-3.0354,-3.0354,-3.0247,-2.9953,-3.0181,-3.0474,-3.0755,-3.1049,-3.1102,-3.0822,-3.0795,-3.0915,-3.1209,-3.1223,-3.1356,-3.165,-3.1664,-3.1664,-3.1664,-3.1664,-3.1664,-3.1664,-3.1664,-3.1664,-3.1664,-3.1664,-3.1664,-1.7754,-1.7095,-1.7297,-1.6457,-1.6207,-1.6596,-1.8068,-1.74,-1.6341,-1.6317,-1.5279,-1.4299,-1.4299,-1.4299,-1.4333,-1.4428,-1.4523,-1.44,-1.3808,-1.4604,-1.5165,-1.4624,-1.5749,-1.7727,-2.0694,0.0,-2.4495,-2.6342,-2.9003,0.0,-2.7873,-2.9623,-3.1466,-3.3314,-3.3414,-3.3414,-3.3414,-3.3414,-3.3213,-3.2839,-3.2732,-3.2425,-3.1957,-3.1851,-3.1757,0.0,0.0,0.0,0.0,-1.8025,-1.5771,-1.5662,-1.5913,-1.5825,-1.5691,-1.672,-1.8083,-1.9846,-2.3445,-2.5794,-2.7628,-3.0106,-3.0808,-3.0621,-3.0421,-3.0287,-3.0154,-2.9967,-2.9913,-2.9913,-2.9913,-2.9913,-2.9913,-2.9913,-2.9913,-2.9451,-2.7702,-2.7328,-2.7328,-2.7328,-2.7578,-2.8286,-3.0068,-3.0354,-3.0354,-3.0354,-3.0354,-3.0327,-3.0234,-3.0474,-3.0768,-3.1049,-3.1169,-3.1276,-3.1383,-3.1396,-3.1436,-3.1517,-3.153,-3.1476,-3.137,-3.137,-3.137,-3.137,-3.137,-3.1463,-3.1664,-3.1664,-3.1664,-3.1677,-3.2078,-3.2158,-1.6154,-1.5589,-1.587,-1.5856,-1.5918,-1.6291,-1.7721,-1.7065,-1.6199,-1.6223,-1.5228,-1.4299,-1.4299,-1.4299,-1.4346,-1.4489,-1.4509,-1.4618,-1.493,-1.5092,-1.533,-1.5723,-1.6252,-1.7228,0.0,-2.0364,-2.1829,-2.3568,0.0,0.0,-2.5317,-2.6853,-2.8551,-3.0185,-3.1303,-3.2333,-3.3253,-3.2229,-3.2034,-3.2639,-3.1464,-3.1328,-3.1931,-3.1757,-3.1664,0.0,0.0,0.0,0.0,-1.889,-1.6576,-1.5669,-1.5967,-1.59,-1.5759,-1.6973,-1.8204,-1.982,-2.3429,-2.58,-2.7593,-2.9989,-3.0715,-3.0581,-3.0287,-3.006,-2.9913,-2.9913,-2.9913,-2.9913,-2.9913,-2.9913,-2.9644,-2.8719,-2.8526,-2.7792,-2.5309,-2.4763,-2.4785,-2.4873,-2.5857,-2.7241,-2.8951,-3.003,-3.0688,-3.0688,-3.0688,-3.0648,-3.0541,-3.0782,-3.1022,-3.1209,-3.133,-3.1463,-3.165,-3.1664,-3.1664,-3.1664,-3.1664,-3.1583,-3.1396,-3.1396,-3.1396,-3.1396,-3.1396,-3.149,-3.1664,-3.1784,-3.1837,-3.1837,-3.2211,-3.2225,0.0,-1.3363,-1.3712,-1.411,-1.4349,-1.4599,-1.4714,-1.4757,0.0,-1.4632,-1.446,-1.4299,-1.4299,-1.4299,-1.4346,-1.4489,-1.4509,-1.4618,-1.493,-1.5113,-1.533,-1.5649,-1.6056,-1.632,-1.6341,-1.9055,-2.0783,-2.0791,0.0,0.0,-2.4598,-2.4804,-2.4807,-2.4678,-2.7525,-3.0085,-3.234,-3.0217,-2.9959,-3.1802,-2.9541,-2.9599,-3.1664,-3.1664,-3.1664,0.0,0.0,0.0,0.0,-2.0488,-1.7935,-1.587,-1.6066,-1.6005,-1.6146,-1.8584,-1.9471,-2.0126,-2.5092,-2.6864,-2.7331,-2.9885,-3.0541,-3.0274,-3.0007,-2.9913,-2.9913,-2.9913,-2.9913,-2.9824,-2.9644,-2.9644,-2.8989,-2.6502,-2.5957,-2.5218,-2.2739,-2.228,-2.234,-2.2467,-2.448,-2.6329,-2.692,-2.9011,-3.0647,-3.0647,-3.0647,-3.0556,-3.0293,-3.069,-3.0968,-3.0968,-3.1409,-3.1664,-3.1664,-3.1664,-3.1664,-3.1664,-3.1664,-3.1664,-3.1637,-3.1637,-3.1637,-3.1637,-3.1664,-3.1664,-3.1664,-3.1984,-3.2118,-3.2078,-3.2131,-3.2011,-1.2858,0.0,-1.4131,-1.7636,-1.8661,-1.9757,0.0,-2.1621,-1.9293,-1.9491,-1.6697,-1.4299,-1.4299,-1.4299,-1.4346,-1.4489,-1.4509,-1.4618,-1.493,-1.5296,-1.5683,-1.6103,-1.6246,-1.6395,-1.6625,-1.7251,-1.7772,0.0,0.0,-2.1103,-1.9044,-2.0903,-2.2042,-2.1838,-2.4414,-2.6153,-2.6716,-2.813,-2.8879,-2.914,-3.0522,-3.1356,-3.1664,-3.1664,-3.1543,0.0,0.0,0.0,-2.5881,-2.1494,-1.9358,-1.8616,-1.6793,-1.7235,-1.8891,-1.9303,-2.07,-2.2641,-2.5611,-2.6595,-2.6941,-2.9352,-3.0074,-3.0007,-2.994,-2.9913,-2.9913,-2.9913,-2.9913,-2.9451,-2.7521,-2.7057,-2.6411,-2.393,-2.3381,-2.2739,-2.0252,-1.9789,-1.9759,-1.9953,-2.0669,-2.1897,-2.3974,-2.479,-2.5267,-2.5267,-2.5267,-2.5246,-2.5191,-2.7129,-2.8559,-2.8559,-3.0458,-3.1664,-3.1664,-3.1664,-3.1664,-3.1664,-3.1664,-3.157,-3.1343,-3.133,-3.133,-3.133,-3.1557,-3.1664,-3.1664,-3.2185,-3.2211,-3.1784,-3.2465,-3.2612,-1.4248,-1.4498,-1.5383,-1.791,-1.9492,-2.1076,-2.3621,-2.2419,-2.0843,-2.0964,-1.8313,-1.5946,-1.5946,-1.4992,-1.4346,-1.4489,-1.4455,-1.457,-1.5004,-1.5398,-1.5778,-1.6157,-1.6266,-1.6374,0.0,-1.6605,-1.6707,0.0,0.0,-1.8448,-1.7083,-1.8424,-1.9137,-1.8883,-2.1392,-2.3906,-2.6376,-2.7766,-2.8933,-2.9838,-3.0043,-3.0651,-3.1664,-3.1664,-3.1503,0.0,0.0,0.0,-2.6911,-2.4198,-2.2499,-2.1459,-2.0205,-2.0455,-2.1711,-2.2566,-2.3716,-2.5087,-2.7268,-2.8095,-2.8239,-2.9346,-2.9713,-2.9713,-2.9713,-2.9619,-2.9539,-2.9686,-2.8897,-2.7696,-2.6335,-2.523,-2.3871,-2.1484,-2.0872,-2.0187,-1.7781,-1.7265,-1.7288,-1.7447,-1.8606,-1.9984,-2.1611,-2.2819,-2.3602,-2.3602,-2.3602,-2.3602,-2.3602,-2.6042,-2.7287,-2.6119,-2.8356,-2.9421,-2.8248,-2.8152,-2.8644,-2.9816,-2.9911,-2.9848,-2.9697,-3.075,-3.149,-3.1623,-3.1784,-3.1998,-3.2265,-3.2585,-3.2505,-3.2091,-3.2692,-3.2746,-1.6477,-1.7253,-1.7818,-1.7892,-1.9537,-2.1275,-2.1609,-2.1536,-2.1374,-2.1374,-1.9713,-1.8191,-1.7842,-1.6202,-1.4783,-1.4578,-1.4468,-1.4618,-1.5147,-1.5479,-1.5771,-1.6049,-1.6198,0.0,-1.6307,-1.6435,-1.6585,0.0,0.0,-1.6842,-1.6971,-1.6958,-1.6815,-1.653,-1.9415,-2.3093,-2.7513,-2.7903,-2.9163,-3.108,-2.9243,-2.9529,-3.1664,-3.1664,-3.1476,-3.1156,0.0,0.0,-2.767,-2.7169,-2.5989,-2.4279,-2.3993,-2.4049,-2.4514,-2.6242,-2.7061,-2.7634,-2.9351,-2.9953,-2.9873,-2.9633,-2.9553,-2.9553,-2.9553,-2.9339,-2.9078,-2.8951,-2.7394,-2.5675,-2.4902,-2.3325,-2.1408,-1.9074,-1.8428,-1.7803,-1.5818,-1.5276,-1.5276,-1.5581,-1.7343,-1.897,-1.9331,-2.1245,-2.2711,-2.2711,-2.2711,-2.2711,-2.2711,-2.4948,-2.5733,-2.3578,-2.5625,-2.6312,-2.4074,-2.3481,-2.4269,-2.6505,-2.6999,-2.7191,-2.7191,-2.9326,-3.0625,-3.0908,-3.1307,-3.1776,-3.23,-3.2749,-3.2826,-3.2656,-3.2839,-3.2706,-1.8378,-2.0932,-2.2931,-2.269,-2.3267,-2.44,-2.6178,-2.5288,-2.4109,-2.4109,-2.2321,-2.0096,-1.8191,-1.7501,-1.6689,-1.484,-1.4814,-1.5126,-1.5343,-1.5635,-1.5886,-1.6062,0.0,-1.6171,-1.63,-1.6435,0.0,0.0,0.0,-1.6958,-1.6978,-1.6856,-1.6707,-1.6524,-2.1086,-2.3858,-2.4515,-2.6766,-2.8019,-2.8464,-3.021,-3.1284,-3.1664,-3.1664,-3.137,-3.0889,0.0,-3.1062,-3.0069,-2.8341,-2.7483,-2.6942,-2.4743,-2.5217,-2.7172,-2.6969,-2.8433,-3.0531,-3.0383,-3.0127,-2.9913,-2.986,-2.9847,-2.9847,-2.9847,-2.9646,-2.8978,-2.6925,-2.6122,-2.4902,-2.0989,-1.967,-1.8786,-1.6415,-1.5751,-1.565,-1.5309,-1.5201,-1.5276,-1.5581,-1.5925,-1.6307,-1.6616,-1.7062,-1.7253,-1.7253,-1.7253,-1.7253,-1.7253,-1.9593,-2.1049,-2.0657,-2.2906,-2.4366,-2.3977,-2.1832,-2.0755,-2.1147,-2.3286,-2.4463,-2.4463,-2.4851,-2.5151,-2.5296,-2.7571,-2.8896,-2.9085,-3.1741,-3.2826,-3.2656,-3.2839,-3.2933,-2.0889,-2.3357,-2.5646,-2.5741,-2.6292,-2.694,-2.7808,-2.7272,-2.6588,-2.6588,-2.4679,-2.2353,-2.0096,-1.8627,-1.7073,-1.4951,-1.4943,-1.5262,-1.5499,-1.5716,-1.5906,0.0,0.0,-1.611,-1.6178,0.0,0.0,0.0,0.0,0.0,-1.6849,-1.6707,-1.7158,-1.8505,-2.2193,-2.4701,-2.6023,-2.8403,-2.9772,-2.9911,-3.108,-3.1664,-3.1664,-3.1664,-3.1436,-3.1036,0.0,-3.1276,-3.0956,-3.0067,-2.9772,-2.9816,-2.8548,-2.8835,-2.9848,-2.9186,-2.9726,-3.0702,-3.0274,-3.0034,-2.9887,-2.9726,-2.9686,-2.9686,-2.9686,-2.8574,-2.6866,-2.4609,-2.3954,-2.3327,-2.1149,-1.9802,-1.8617,-1.7515,-1.7281,-1.6868,-1.5566,-1.5303,-1.5371,-1.5594,-1.5703,-1.5825,-1.6042,-1.6083,-1.6083,-1.6083,-1.6083,-1.6083,-1.6083,-1.8426,-1.9487,-1.8031,-2.0273,-2.1245,-1.979,-1.8623,-1.8517,-1.988,-2.1147,-2.2419,-2.387,-2.388,-2.4726,-2.6573,-2.764,-2.9114,-3.1076,-3.2379,-3.2906,-3.2786,-3.308,-3.3133,-2.3411,-2.5299,-2.7134,-2.7589,-2.8096,-2.847,-2.8377,-2.8297,-2.8243,-2.8243,-2.6859,-2.4676,-2.1749,-1.8961,-1.6596,-1.502,-1.5072,-1.5384,-1.5649,-1.5845,-1.6001,-1.6123,-1.6137,-1.6123,-1.6083,0.0,0.0,0.0,0.0,0.0,-1.7651,-1.7479,-1.8513,-2.1054,-2.2933,-2.5172,-2.778,-2.996,-3.1303,-3.1664,-3.1597,-3.1597,-3.1664,-3.1664,-3.1503,-3.1223,-3.1303,-3.1289,-3.1236,-3.1303,-3.1463,-3.1664,-3.1664,-3.1583,-3.1423,-3.1036,-3.0621,-3.0234,-3.0074,-2.998,-2.9887,-2.9659,-2.9579,-2.9579,-2.9579,-2.8156,-2.6003,-2.3924,-2.2789,-2.202,-2.1465,-2.0134,-1.9091,-1.9704,-1.9345,-1.8447,-1.6641,-1.573,-1.5411,-1.5601,-1.573,-1.5866,-1.6049,-1.6083,-1.6083,-1.6083,-1.6083,-1.6083,-1.6083,-1.784,-1.8327,-1.6275,-1.7932,-1.8327,-1.6275,-1.6083,-1.6963,-1.9002,-1.9101,-1.9978,-2.2028,-2.2028,-2.3297,-2.5833,-2.6212,-2.7707,-3.0436,-3.1563,-3.2069,-3.2069,-3.2967,-3.3293,-2.5465,-2.6893,-2.7642,-2.7682,-2.7936,-2.831,-2.8858,-2.8764,-2.8577,-2.8577,-2.8393,-2.6818,-2.204,-1.7784,-1.4943,-1.493,-1.5323,-1.5662,-1.5818,0.0,-1.6279,-1.6293,-1.6293,-1.6239,0.0,0.0,0.0,0.0,0.0,0.0,-2.0286,-2.0074,-2.1162,-2.372,-2.3615,-2.4843,-2.778,-2.9768,-3.1102,-3.1664,-3.1383,-3.1396,-3.1664,-3.1664,-3.1503,-3.1236,-3.1517,-3.1476,-3.1249,-3.153,-3.165,-3.1664,-3.1664,-3.1343,-3.0889,-3.1116,-3.0662,-2.998,-3.0234,-3.014,-2.9913,-2.9887,-2.9887,-2.9887,-2.9887,-2.9694,-2.9027,-2.6592,-2.4284,-2.1984,-1.9679,-1.9039,-1.9427,-2.1748,-2.0538,-1.8871,-1.8702,-1.686,-1.5289,-1.5581,-1.5649,-1.5744,-1.6029,-1.6083,-1.6083,-1.6083,-1.6083,-1.6083,-1.6083,-1.6275,-1.6275,-1.6083,-1.6275,-1.6275,-1.6083,-1.6083,-1.6182,-1.6374,-1.6374,-1.6474,-1.6672,-1.6672,-1.6913,-1.7319,-1.9766,-2.1256,-2.1856,-2.6912,-2.9331,-2.9443,-3.2155,-3.34,-2.6109,-2.6894,-2.7468,-2.7655,-2.7923,-2.8297,-2.8898,-2.8951,-2.8925,-2.9112,-2.9005,-2.7368,-2.2434,-1.8946,-1.6499,-1.522,-1.535,-1.5723,-1.5961,-1.6178,-1.6307,-1.6307,-1.6307,0.0,0.0,0.0,0.0,0.0,0.0,0.0,-2.276,-2.2595,-2.3648,-2.6042,-2.595,-2.7073,-2.9594,-3.0254,-3.0822,-3.1396,-3.1276,-3.1383,-3.1664,-3.1664,-3.161,-3.1503,-3.1623,-3.161,-3.1517,-3.1623,-3.1664,-3.165,-3.1463,-3.1263,-3.1036,-3.0782,-3.0474,-3.0181,-3.0114,-3.0007,-2.9913,-2.9913,-2.9913,-2.9913,-2.9913,-2.8809,-2.7419,-2.6411,-2.4387,-2.228,-2.136,-2.0067,-1.9141,-2.0067,-1.9604,-1.8499,-1.6939,-1.7108,-1.7261,-1.5884,-1.695,-1.7666,-1.634,-1.6083,-1.6083,-1.6083,-1.6083,-1.6083,-1.6083,-1.6083,-1.6083,-1.6083,-1.6083,-1.6083,-1.6083,-1.6083,-1.6083,-1.6083,-1.6083,-1.6083,-1.6083,-1.6171,-1.7113,-1.9026,-1.9973,-2.1432,-2.3548,-2.5449,-2.6461,-2.6724,-2.7828,-2.828,-2.6453,-2.6947,-2.7455,-2.7642,-2.7989,-2.8417,-2.8925,-2.9045,-2.9098,-2.9299,-2.8474,-2.6573,-2.2564,-1.9876,-1.7531,-1.5438,-1.5445,-1.5798,-1.6049,-1.6252,-1.6361,-1.6313,-1.6307,0.0,0.0,0.0,0.0,0.0,0.0,0.0,0.0,-2.5108,-2.6027,-2.8445,-2.7616,-2.8234,-3.0795,-3.0501,-3.0608,-3.1089,-3.1089,-3.1289,-3.1664,-3.1664,-3.1664,-3.1664,-3.1664,-3.1664,-3.1664,-3.1664,-3.161,-3.1517,-3.1303,-3.1116,-3.0902,-3.0515,-3.0301,-3.0194,-2.998,-2.9913,-2.9913,-2.9913,-2.9913,-2.9913,-2.9913,-2.8719,-2.7328,-2.7328,-2.5582,-2.3656,-2.3656,-2.182,-2.0067,-2.0067,-2.0067,-1.9604,-1.7864,-1.9023,-1.9861,-1.8256,-1.8809,-1.9086,-1.7613,-1.6672,-1.6083,-1.6083,-1.6083,-1.6083,-1.6083,-1.6083,-1.6083,-1.6083,-1.6083,-1.6083,-1.6083,-1.6083,-1.6083,-1.6083,-1.613,-1.6151,-1.6151,-1.6252,-1.73,-1.9308,-1.926,-2.0289,-2.2549,-2.3221,-2.3629,-2.3885,-2.4774,-2.5215,-2.6734,-2.7241,-2.7696,-2.7696,-2.815,-2.8684,-2.8965,-2.9045,-2.8958,-2.8958,-2.6947,-2.452,-2.2401,-1.9979,-1.7612,-1.5709,-1.5655,-1.5906,-1.6062,-1.6334,-1.6469,-1.6327,0.0,0.0,0.0,0.0,0.0,0.0,0.0,0.0,0.0,-2.7567,-2.8539,-3.1129,-2.8186,-2.7947,-3.0782,-3.0501,-3.0501,-3.0795,-3.0795,-3.1102,-3.1664,-3.1664,-3.1664,-3.1664,-3.1664,-3.1664,-3.1664,-3.1664,-3.149,-3.1223,-3.1223,-3.0875,-3.0368,-3.0368,-3.0181,-2.9913,-2.9913,-2.9913,-2.9913,-2.9913,-2.9913,-2.9913,-2.9913,-2.9913,-2.9913,-2.9913,-2.8166,-2.6229,-2.6229,-2.4398,-2.2556,-2.2464,-2.2464,-2.2556,-2.2566,-2.283,-2.3043,-2.3162,-2.1389,-1.9864,-2.0043,-1.7939,-1.6182,-1.6182,-1.6182,-1.6083,-1.6083,-1.6083,-1.6083,-1.6083,-1.6083,-1.6083,-1.6083,-1.6083,-1.6083,-1.6083,-1.6225,-1.6307,-1.6307,-1.6313,-1.6449,-1.6637,-1.6598,-1.6598,-1.6754,-1.9506,-2.0824,-2.0935,-2.3782,-2.5112,-2.6493,-2.6947,-2.7402,-2.7402,-2.8003,-2.8631,-2.8711,-2.9058,-2.8863,-2.7328,-2.6253,-2.4453,-2.0565,-1.9001,-1.774,-1.573,-1.5574,-1.5791,-1.6049,-1.6252,-1.6354,-1.6313,0.0,0.0,0.0,0.0,0.0,0.0,0.0,0.0,0.0,-3.0264,-3.0275,-3.0929,-2.9795,-2.9651,-3.0488,-3.0194,-3.0301,-3.0795,-3.0581,-3.0795,-3.1356,-3.1356,-3.1476,-3.1664,-3.1664,-3.1664,-3.1664,-3.1664,-3.1623,-3.1517,-3.1303,-3.1116,-3.0942,-3.0742,-3.0474,-3.0221,-3.0221,-3.0087,-2.9913,-2.9913,-2.9913,-2.9913,-2.9913,-2.9913,-2.9913,-2.9913,-2.9362,-2.8436,-2.6695,-2.5684,-2.4671,-2.2923,-2.2464,-2.2464,-2.2556,-2.3994,-2.48,-2.3508,-2.402,-2.4377,-2.2936,-2.2126,-2.096,-1.9101,-1.8813,-1.8228,-1.6374,-1.6083,-1.6083,-1.6083,-1.6083,-1.6083,-1.6083,-1.6083,-1.6083,-1.6083,-1.6225,-1.6307,-1.6307,-1.6402,-1.6551,-1.6748,-1.6707,-1.6754,-1.691,-1.7732,-1.815,-1.815,-1.9021,-1.9462,-2.5558,-2.5829,-2.6024,-2.5191,-2.619,-2.7705,-2.9043,-2.8673,-2.7685,-2.6585,-2.5355,-2.3336,-1.9683,-1.8795,-1.792,-1.5918,-1.5764,-1.5947,-1.6062,-1.6259,-1.6347,0.0,0.0,0.0,0.0,0.0,0.0,0.0,0.0,0.0,0.0,-3.1276,-3.0969,-3.0795,-3.0394,-3.0181,-3.0181,-3.0127,-3.0274,-3.0621,-3.0448,-3.0608,-3.1049,-3.1169,-3.1383,-3.1664,-3.1664,-3.1664,-3.1664,-3.1664,-3.153,-3.1303,-3.1129,-3.0915,-3.0688,-3.0515,-3.0327,-3.0181,-3.0181,-3.0074,-2.9913,-2.9913,-2.9913,-2.9913,-2.9913,-2.9913,-2.9913,-2.9913,-2.9913,-2.9541,-2.8076,-2.7702,-2.6785,-2.3289,-2.3289,-2.393,-2.393,-2.6038,-2.7494,-2.6306,-2.6538,-2.6547,-2.5419,-2.4425,-2.3188,-2.1814,-2.0657,-1.9101,-1.6474,-1.6083,-1.6083,-1.6083,-1.6083,-1.6083,-1.6083,-1.6137,-1.6171,-1.6171,-1.6368,-1.6483,-1.6483,-1.6564,-1.6653,-1.6748,-1.6809,-1.689,-1.6978,-1.6978,-1.6978,-1.6978,-1.6978,-1.6978,-2.3951,-2.392,-2.388,-2.1834,-2.3336,-2.608,-2.908,-2.739,-2.5444,-2.6179,-2.4052,-2.1382,-1.9167,-1.8728,-1.7986,-1.6216,-1.611,-1.6239,-1.6103,-1.6327,-1.6395,0.0,0.0,0.0,0.0,0.0,0.0,0.0,0.0,0.0,0.0,-3.1142,-3.0822,-3.0795,-3.0247,-2.9967,-2.9993,-3.0234,-3.0381,-3.0434,-3.0381,-3.0515,-3.0795,-3.1062,-3.1356,-3.1664,-3.1664,-3.1664,-3.1664,-3.1664,-3.1343,-3.0835,-3.0835,-3.0488,-2.9993,-2.9993,-2.998,-2.9953,-2.9953,-2.994,-2.9913,-2.9913,-2.9913,-2.9913,-2.9913,-2.9913,-2.9913,-2.9913,-2.9913,-2.9913,-2.9913,-2.9913,-2.8719,-2.4215,-2.4945,-2.6502,-2.6502,-2.8549,-3.0327,-3.0354,-2.8703,-2.7356,-2.7629,-2.5681,-2.4225,-2.4238,-2.2028,-1.9495,-1.7154,-1.6765,-1.6765,-1.6765,-1.6765,-1.6765,-1.6765,-1.6899,-1.6883,-1.6689,-1.6865,-1.6927,-1.6707,-1.6734,-1.6754,-1.6768,-1.6897,-1.6965,-1.6978,-1.6978,-1.6978,-1.6978,-1.6978,-1.6978,-2.1259,-2.1306,-2.1673,-2.1205,-2.2036,-2.336,-2.4527,-2.2695,-2.1339,-2.3498,-2.1782,-1.9274,-1.6979,-1.643,-1.6264,-1.608,-1.609,-1.6117,-1.609,-1.6239,0.0,0.0,0.0,0.0,0.0,0.0,0.0,0.0,0.0,0.0,-3.1677,-3.133,-3.1022,-3.0795,-3.0448,-3.0381,-3.0608,-3.0448,-3.0581,0.0,-3.0581,-3.0515,-3.0795,-3.0862,-3.1169,-3.1664,-3.1664,-3.1664,-3.1664,-3.1664,-3.145,-3.1129,-3.1129,-3.0915,-3.0608,-3.0608,-3.0461,-3.0261,-3.0261,-3.0114,-2.9913,-2.9913,-2.9913,-2.9913,-2.9913,-2.9913,-2.9913,-2.9913,-2.9913,-2.9913,-2.9913,-2.9913,-2.9644,-2.8526,-2.8719,-2.9092,-2.9092,-2.9594,-3.0074,-3.0314,-3.0123,-3.0028,-3.0314,-3.0063,-2.9264,-2.7276,-2.4754,-2.2906,-2.2321,-2.2223,-2.2223,-2.2223,-2.2223,-2.2223,-2.2223,-2.2261,-2.1415,-1.9355,-1.9497,-1.8635,-1.651,-1.6625,-1.6809,-1.6931,-1.6842,-1.6863,-1.6978,-1.6978,-1.6978,-1.6978,-1.6978,-1.6978,-1.9029,-1.8885,-1.9423,-1.9711,-2.0233,-2.1217,-2.2849,-2.1201,-1.987,-2.1394,-1.9527,-1.7299,-1.6132,-1.5852,-1.5927,-1.6151,-1.6246,-1.6266,-1.6198,0.0,0.0,0.0,0.0,0.0,0.0,0.0,0.0,0.0,0.0,-3.1664,-3.1664,-3.1383,-3.1156,-3.1009,-3.0715,-3.0635,-3.0795,-3.0635,-3.0795,-3.1223,-3.0782,-3.0715,-3.0996,-3.0996,-3.1249,-3.1664,-3.1517,-3.1463,-3.145,-3.1303,-3.1156,-3.1009,-3.0862,-3.0715,-3.0568,-3.0421,-3.0274,-3.0154,-3.0154,-3.0047,-2.9913,-2.9913,-2.9913,-2.9913,-2.9913,-2.9913,-2.9913,-2.9913,-2.9913,-2.9913,-2.9913,-2.9913,-2.9913,-2.9913,-2.9913,-2.9913,-2.9913,-2.9913,-2.9967,-3.0114,-3.0381,-3.0675,-3.0969,-3.1383,-3.0795,-2.8164,-2.6613,-2.5335,-2.4074,-2.388,-2.388,-2.388,-2.388,-2.388,-2.388,-2.3971,-2.2904,-2.034,-2.041,-1.9355,-1.6735,-1.6781,-1.6863,-1.687,-1.6863,-1.6904,-1.6978,-1.6978,-1.6978,-1.6978,-1.6978,-1.6978,-1.6706,-1.6547,-1.7028,-1.769,-1.8098,-1.9064,-2.1356,-2.0333,-1.898,-1.9257,-1.7531,-1.59,-1.5927,-1.6015,-1.6137,-1.632,-1.6442,-1.6483,-1.6361,0.0,0.0,0.0,0.0,0.0,0.0,0.0,0.0,0.0,0.0,-3.1664,-3.1664,-3.1436,-3.1276,-3.1223,-3.0996,-3.0862,-3.0862,-3.0862,-3.1009,-3.1303,-3.1009,-3.0996,-3.1223,-3.1223,-3.1356,-3.1583,-3.133,-3.1196,-3.1129,-3.0889,-3.0768,-3.0702,-3.0448,-3.0327,-3.0247,-3.0007,-2.9913,-2.9913,-2.9913,-2.9913,-2.9913,-2.9913,-2.9913,-2.9913,-2.9913,-2.9913,-2.9913,-2.9913,-2.9913,-2.9913,-2.9913,-2.9913,-2.9913,-2.9913,-2.9913,-2.9824,-2.9362,-2.9272,-2.9272,-2.9272,-2.9922,-3.0541,-3.0889,-3.1343,-3.0985,-2.8847,-2.8464,-2.7672,-2.5529,-2.5238,-2.5238,-2.5238,-2.5238,-2.5238,-2.5238,-2.5322,-2.4353,-2.1885,-2.1467,-2.0139,-1.7761,-1.7279,-1.6917,-1.6795,-1.6917,-1.6978,-1.6978,-1.6978,-1.6978,-1.6978,-1.6978,-1.6978,-1.407,-1.4048,-1.4731,-1.5336,-1.5631,-1.5842,-1.6522,-1.6515,-1.6475,-1.6637,-1.636,-1.609,-1.6225,-1.6157,-1.6171,-1.6449,-1.651,-1.6517,-1.6497,0.0,0.0,0.0,0.0,0.0,0.0,0.0,0.0,0.0,-3.181,-3.1664,-3.1664,-3.1637,-3.149,-3.1236,-3.1196,-3.1169,-3.1169,-3.1169,-3.1316,-3.161,-3.1303,-3.1196,-3.1223,-3.1223,-3.1249,-3.1276,-3.1249,-3.1076,-3.0849,-3.0808,-3.0648,-3.0421,-3.0381,-3.0207,-2.9967,-2.9927,-2.9913,-2.9913,-2.9913,-2.9913,-2.9913,-2.9913,-2.9913,-2.9913,-2.9913,-2.9913,-2.9913,-2.9913,-2.9913,-2.9913,-2.9913,-2.9913,-2.9913,-2.9913,-2.9913,-2.9272,-2.7148,-2.6695,-2.6695,-2.6695,-2.8856,-3.0915,-3.1463,-3.1623,-3.1569,-3.127,-3.1189,-3.108,-3.0687,-3.0687,-3.0687,-3.0687,-3.0687,-3.0687,-3.0687,-3.063,-2.9692,-2.7301,-2.5053,-2.2765,-2.0447,-1.8247,-1.6971,-1.6951,-1.6971,-1.6978,-1.6978,-1.6978,-1.6978,-1.6978,-1.6978,-1.6978,-1.3651,-1.3627,-1.4197,-1.4713,-1.5011,-1.5242,-1.5459,-1.5628,-1.5778,-1.592,-1.5954,-1.6001,-1.6151,-1.613,-1.6178,-1.6476,-1.6524,-1.6551,-1.6639,0.0,0.0,0.0,0.0,0.0,0.0,0.0,0.0,0.0,-3.2078,-3.1904,-3.1904,-3.1757,-3.161,-3.1476,-3.1476,-3.1476,-3.1476,-3.1476,-3.1543,-3.1664,-3.153,-3.1476,-3.1476,-3.1476,-3.1383,-3.1209,-3.1049,-3.0822,-3.0541,-3.0368,-3.0327,-3.0341,-3.0181,-3.014,-3.014,-2.998,-2.9913,-2.9913,-2.9913,-2.9913,-2.9913,-2.9913,-2.9913,-2.9913,-2.9913,-2.9913,-2.9913,-2.9913,-2.9913,-2.9913,-2.9913,-2.9913,-2.9541,-2.8166,-2.8899,-2.8809,-2.4945,-2.5218,-2.6312,-2.6605,-2.7779,-2.9254,-3.1367,-3.153,-3.1476,-3.1637,-3.1664,-3.1664,-3.1664,-3.1664,-3.1664,-3.1664,-3.1664,-3.1664,-3.1664,-3.1824,-3.0857,-2.8442,-2.5997,-2.3504,-2.1071,-1.8388,-1.6978,-1.6978,-1.6978,-1.6978,-1.6978,-1.6978,-1.6978,-1.6978,-1.6978,-1.6978,-1.3535,-1.3532,-1.396,-1.4448,-1.4767,-1.5025,-1.5296,-1.5438,-1.5574,-1.5764,-1.5798,-1.5845,-1.5995,-1.6056,-1.6191,-1.6524,-1.6544,-1.679,0.0,0.0,0.0,0.0,0.0,0.0,0.0,0.0,0.0,0.0,-3.2385,-3.2185,-3.2104,-3.1891,-3.1744,-3.1677,-3.1664,-3.1664,-3.1664,-3.1664,-3.1664,-3.1664,-3.1597,-3.1597,-3.1664,-3.1597,-3.1436,-3.1209,-3.0915,-3.0621,-3.0341,-3.0034,-3.0047,-3.0221,-3.0007,-3.0047,-3.0221,-2.9993,-2.9913,-2.9913,-2.9913,-2.9913,-2.9913,-2.9913,-2.9913,-2.9913,-2.9913,-2.9913,-2.9913,-2.9913,-2.9913,-2.9913,-2.9913,-2.9451,-2.8526,-2.6604,-2.7148,-2.6966,-2.3289,-2.3984,-2.533,-2.5131,-2.6094,-2.7673,-3.0106,-3.0927,-3.1303,-3.1517,-3.1623,-3.1664,-3.1664,-3.1664,-3.1664,-3.1664,-3.1664,-3.1405,-3.079,-3.0985,-3.0066,-2.76,-2.5777,-2.3648,-2.1198,-1.9149,-1.7706,-1.6978,-1.7706,-1.7706,-1.6978,-1.6978,-1.6978,-1.6978,-1.6978,-1.6978,-1.3141,-1.299,-1.3363,-1.396,-1.4224,-1.4496,-1.5065,-1.5201,-1.5289,-1.5588,-1.5649,-1.5696,-1.5839,-1.5981,-1.6225,-1.6666,-1.6619,-1.7536,0.0,0.0,0.0,0.0,0.0,0.0,0.0,0.0,0.0,0.0,-3.2692,-3.2398,-3.2118,-3.2091,-3.1957,-3.1677,-3.1664,-3.1664,-3.1664,-3.1664,-3.1664,-3.1664,-3.1383,-3.1396,-3.1664,-3.1383,-3.1236,-3.1209,-3.0915,-3.0621,-3.0341,-3.0034,-2.9927,-2.994,-2.9927,-2.9927,-2.994,-2.9927,-2.9913,-2.9913,-2.9913,-2.9913,-2.9913,-2.9913,-2.9913,-2.9913,-2.9913,-2.9913,-2.9913,-2.9913,-2.9913,-2.9913,-2.9913,-2.8166,-2.632,-2.6229,-2.4489,-2.2831,-2.2556,-2.2717,-2.231,-2.0091,-2.3624,-2.6993,-2.7309,-2.9517,-3.1236,-3.1249,-3.149,-3.1664,-3.1664,-3.1664,-3.1664,-3.1664,-3.1664,-3.079,-2.84,-2.823,-2.7263,-2.5123,-2.4861,-2.3648,-2.1198,-2.0999,-1.9662,-1.7083,-1.9558,-1.9558,-1.6978,-1.6978,-1.6978,-1.6978,-1.6978,-1.6978,-1.431,-1.3589,-1.301,-1.3519,-1.3899,-1.4238,-1.4543,-1.476,-1.4984,-1.5282,-1.5425,-1.5567,-1.5811,-1.59,-1.6083,-1.653,-1.7968,-1.9559,0.0,0.0,0.0,0.0,0.0,0.0,0.0,0.0,0.0,0.0,0.0,-3.2692,-3.2398,-3.2211,-3.1971,-3.1677,-3.1664,-3.1583,-3.1383,-3.157,-3.157,-3.1383,-3.1476,-3.157,-3.1664,-3.1557,-3.1517,-3.149,-3.1196,-3.0902,-3.0635,-3.0528,-3.0368,-3.0207,-3.0207,-3.0087,-2.9913,-2.9913,-2.9913,-2.9913,-2.9913,-2.9913,-2.9913,-2.9913,-2.9913,-2.9913,-2.9913,-2.9913,-2.9913,-2.9913,-2.9913,-2.9913,-2.9913,-2.8076,-2.581,-2.4399,-2.2226,-2.0454,-2.0454,-2.2019,-2.3074,-2.2085,-2.3341,-2.5097,-2.6806,-2.7929,-2.8625,-2.8704,-2.8962,-2.8548,-2.6891,-2.6698,-2.6698,-2.6698,-2.6748,-2.6482,-2.558,-2.5759,-2.5603,-2.4851,-2.5002,-2.4612,-2.3775,-2.2027,-2.0592,-1.9662,-2.0592,-2.0592,-1.9662,-1.9662,-2.0592,-2.2235,-2.0488,-2.0592,-1.5237,-1.4226,-1.3468,-1.3356,-1.3553,-1.3878,-1.4278,-1.4489,-1.4692,-1.5038,-1.5194,-1.5371,-1.5716,-1.5784,-1.6215,-1.7567,-1.9391,-2.1348,0.0,0.0,0.0,0.0,0.0,0.0,0.0,0.0,0.0,0.0,0.0,0.0,-3.2706,-3.2412,-3.2078,-3.1677,-3.1664,-3.157,-3.1383,-3.1476,-3.1423,-3.1223,-3.1223,-3.133,-3.1517,-3.1423,-3.149,-3.1664,-3.1463,-3.1209,-3.0929,-3.0835,-3.0675,-3.0501,-3.0501,-3.0327,-3.006,-3.006,-3.0007,-2.9913,-2.9913,-2.9913,-2.9913,-2.9913,-2.998,-3.006,-3.006,-3.006,-3.006,-3.006,-2.935,-2.8629,-2.8629,-2.6288,-2.3251,-2.089,-1.9906,-1.94,-1.9361,-2.0855,-2.202,-2.0901,-2.1366,-2.2427,-2.4156,-2.5147,-2.5844,-2.6007,-2.6252,-2.5829,-2.4172,-2.388,-2.39,-2.3981,-2.4024,-2.378,-2.3022,-2.3187,-2.3072,-2.2226,-2.3184,-2.3362,-2.2442,-2.1622,-2.0696,-1.9767,-2.1518,-2.2442,-2.2442,-2.2442,-2.3362,-2.5112,-2.3362,-2.3465,0.0,0.0,0.0,-1.3545,-1.3234,-1.339,-1.4272,-1.4373,-1.4407,-1.4855,-1.4957,-1.5099,-1.5547,-1.5642,-1.6655,-1.9767,-2.051,-2.2599,0.0,0.0,0.0,0.0,0.0,0.0,0.0,0.0,0.0,0.0,-3.3414,-3.328,-3.2986,-3.2679,-3.2361,-3.169,-3.1664,-3.1664,-3.165,-3.1383,-3.1236,-3.1209,-3.0648,-3.0675,-3.1209,-3.0929,-3.1116,-3.1664,-3.1664,-3.1503,-3.1209,-3.0929,-3.0808,-3.0795,-3.0795,-3.0608,-3.0341,-3.0341,-3.0167,-2.9913,-2.9913,-2.9913,-2.9913,-2.9927,-3.0127,-3.0354,-3.0368,-3.0381,-3.0368,-3.0277,-2.8302,-2.6162,-2.6071,-2.2552,-1.8514,-1.5983,-1.7639,-1.9615,-1.9234,-1.9254,-1.864,-1.6039,-1.762,-1.9291,-1.9098,-2.1282,-2.3094,-2.3315,-2.3535,-2.3783,-2.3686,-2.3686,-2.3776,-2.3898,-2.3829,-2.2912,-2.0671,-2.0508,-1.9474,-1.7181,-1.9558,-1.9871,-1.7188,-1.9662,-1.9871,-1.7188,-2.2442,-2.5215,-2.5215,-2.5317,-2.5317,-2.542,-2.542,-2.542,-1.8898,0.0,0.0,0.0,0.0,0.0,0.0,-1.3682,-1.3939,-1.4394,-1.4658,-1.4943,-1.5391,-1.5649,-1.7411,-2.2163,-2.3294,-2.4908,0.0,0.0,0.0,0.0,0.0,0.0,0.0,0.0,0.0,0.0,-3.3414,-3.3187,-3.2692,-3.2185,-3.1837,-3.1677,-3.1664,-3.157,-3.1356,-3.1476,-3.133,-3.0915,-3.0969,-3.1076,-3.1223,-3.1142,-3.1316,-3.1664,-3.1664,-3.1623,-3.1543,-3.1463,-3.1169,-3.0795,-3.0795,-3.0488,-3.0034,-3.0034,-2.998,-2.9913,-2.9913,-2.9913,-2.9953,-3.0167,-3.0287,-3.0394,-3.0608,-3.0675,-3.0294,-2.8396,-2.7304,-2.5842,-2.2186,-2.0262,-1.8753,-1.6173,-1.6292,-1.6991,-1.6896,-1.685,-1.7239,-1.8168,-1.9033,-1.9581,-1.9291,-2.008,-2.0702,-2.0553,-2.0827,-2.0371,-1.8525,-1.8344,-1.8436,-1.8483,-1.8605,-1.8481,-1.7857,-1.7876,-1.7761,-1.7083,-1.9558,-2.08,-1.9975,-2.0696,-2.0696,-1.9975,-2.3362,-2.5215,-2.5215,-2.7159,-2.9217,-3.1151,-3.1151,-3.0028,-1.917,-1.6783,-1.4486,-1.4007,0.0,0.0,-1.3241,-1.3451,-1.3682,0.0,-1.4434,-1.4692,-1.5147,-1.5418,-1.7358,-2.2779,-2.4166,0.0,0.0,0.0,0.0,0.0,0.0,0.0,0.0,-3.3414,-3.3414,-3.3414,-3.3414,-3.3213,-3.2746,-3.2291,-3.1984,-3.1851,-3.173,-3.1583,-3.141,-3.1343,-3.1129,-3.0795,-3.0849,-3.0929,-3.1049,-3.1169,-3.1383,-3.1664,-3.1664,-3.1664,-3.1664,-3.1664,-3.1463,-3.1142,-3.1022,-3.0688,-3.0261,-3.014,-3.002,-2.994,-3.006,-3.01,-3.0154,-3.0448,-3.0621,-3.0571,-2.9589,-2.936,-2.8775,-2.6194,-2.4608,-2.2854,-1.8857,-1.7897,-1.7561,-1.6133,-1.5791,-1.5839,-1.5778,-1.5811,-1.6307,-1.7746,-1.8099,-1.8138,-1.7948,-1.801,-1.8192,-1.8066,-1.8257,-1.7863,-1.6364,-1.6252,-1.6354,-1.6483,-1.6646,-1.6775,-1.6842,-1.6931,-1.6978,-1.6978,-1.8529,-1.9357,-1.9357,-1.9357,-1.9357,-1.9357,-2.3259,-2.6342,-2.8585,-3.023,-3.1869,-3.3414,-3.3414,-3.2485,-1.7793,-1.5895,-1.4203,-1.3087,-1.2546,0.0,-1.3363,-1.3464,-1.3539,0.0,-1.4251,-1.4387,-1.4835,-1.5038,-1.6797,-2.2063,-2.2978,0.0,0.0,0.0,0.0,0.0,0.0,0.0,-3.3414,-3.3414,-3.3414,-3.3414,-3.3347,-3.3213,-3.2986,-3.2639,-3.2345,-3.2104,-3.1824,-3.1664,-3.1664,-3.1156,-3.0875,-3.0835,-3.0581,-3.0595,-3.0849,-3.1102,-3.1383,-3.1664,-3.1664,-3.1664,-3.1664,-3.1664,-3.165,-3.1597,-3.133,-3.1049,-3.0755,-3.0501,-3.0247,-3.0047,-3.0314,-3.0408,-3.0461,-3.0742,-3.1022,-3.0754,-2.8091,-2.7333,-2.6763,-2.3865,-2.1051,-1.848,-1.6405,-1.5852,-1.5852,-1.5832,-1.5818,-1.5778,-1.5683,-1.575,-1.5839,-1.5872,-1.5879,-1.5879,-1.5879,-1.5879,-1.5927,-1.6062,-1.6096,-1.6157,-1.6293,-1.6341,-1.6463,-1.672,-1.6768,-1.6829,-1.6971,-1.6978,-1.6978,-1.6978,-1.6978,-1.6978,-1.6978,-1.6978,-1.6978,-1.6978,-2.2131,-2.7465,-3.3,-3.32,-3.3414,-3.3414,-3.3414,-3.3414,-1.7671,-1.6139,-1.4625,-1.4611,0.0,0.0,-1.2996,-1.3159,-1.3349,0.0,-1.3933,-1.4068,-1.4516,-1.4726,-1.5836,-1.9062,-1.8139,0.0,0.0,0.0,0.0,0.0,0.0,0.0,-3.3414,-3.3414,-3.3414,-3.3414,-3.2973,-3.2786,-3.2973,-3.2251,-3.1917,-3.2091,-3.1824,-3.1664,-3.1664,-3.1557,-3.1383,-3.1142,-3.1089,-3.1089,-3.1142,-3.1196,-3.1383,-3.1664,-3.1664,-3.1664,-3.1664,-3.1664,-3.153,-3.1303,-3.1249,-3.1049,-3.0782,-3.0728,-3.0675,-3.0635,-3.0688,-3.0715,-3.0755,-3.1049,-3.1183,-3.0794,-2.8415,-2.771,-2.6727,-2.1963,-1.8741,-1.6553,-1.6076,-1.5852,-1.5825,-1.571,-1.5588,-1.5554,-1.5764,-1.5744,-1.575,-1.5988,-1.6035,-1.6035,-1.6035,-1.6035,-1.6049,-1.6076,-1.6185,-1.6279,-1.6307,-1.6517,-1.6686,-1.6637,-1.6863,-1.6951,-1.6978,-1.6978,-1.6978,-1.6978,-1.6978,-1.6978,-1.6978,-1.6978,-1.6978,-1.6978,-2.0279,-2.4598,-3.0141,-3.2284,-3.3414,-3.3414,-3.3414,-3.3414,-1.6618,-1.4849,-1.3466,-1.3642,0.0,0.0,0.0,-1.3071,-1.3261,-1.3559,-1.3682,-1.3804,-1.4027,-1.4258,-1.5334,-1.8054,-1.8749,0.0,0.0,0.0,0.0,0.0,0.0,0.0,-3.32,-3.332,-3.3414,-3.3414,-3.3013,-3.2826,-3.2973,-3.2278,-3.1944,-3.2104,-3.1824,-3.1664,-3.1664,-3.1517,-3.137,-3.1223,-3.1223,-3.1223,-3.1236,-3.1383,-3.153,-3.1664,-3.1664,-3.1664,-3.1664,-3.1664,-3.1583,-3.1436,-3.1289,-3.1129,-3.0996,-3.0849,-3.0795,-3.0808,-3.0955,-3.1009,-3.1062,-3.1356,-3.145,-3.0789,-2.6953,-2.4074,-2.145,-1.8813,-1.7154,-1.6062,-1.5988,-1.5967,-1.5947,-1.5879,-1.5744,-1.5696,-1.592,-1.5852,-1.5811,-1.6035,-1.6083,-1.6083,-1.6083,-1.6083,-1.611,-1.6185,-1.6259,-1.6361,-1.651,-1.6659,-1.6781,-1.6856,-1.6937,-1.6978,-1.6978,-1.6978,-1.6978,-1.6978,-1.6978,-1.6978,-1.6978,-1.6978,-1.7601,-1.9044,-2.0384,-2.3165,-2.7261,-2.8596,-3.0735,-3.3414,-3.1982,-3.2083,0.0,0.0,0.0,0.0,0.0,-1.2698,0.0,0.0,0.0,-1.341,-1.3519,0.0,0.0,0.0,0.0,0.0,0.0,0.0,0.0,0.0,0.0,0.0,0.0,0.0,0.0,-3.2973,-3.3146,-3.332,-3.2906,-3.2719,-3.2879,-3.2332,-3.2051,-3.2104,-3.1824,-3.1664,-3.1664,-3.1436,-3.1316,-3.1316,-3.1316,-3.1316,-3.1316,-3.1557,-3.1664,-3.1664,-3.1664,-3.1664,-3.1664,-3.1664,-3.1664,-3.165,-3.1396,-3.1316,-3.1276,-3.1049,-3.0955,-3.0996,-3.1236,-3.1316,-3.1356,-3.1597,-3.1379,-3.0198,-2.5915,-2.096,-1.6864,-1.6864,-1.6474,-1.6069,-1.6008,-1.6015,-1.6227,-1.6687,-1.6672,-1.6636,-1.6821,-1.7122,-1.7253,-1.6927,-1.7253,-1.7253,-1.6275,-1.6083,-1.6137,-1.6286,-1.6307,-1.6415,-1.6714,-1.6748,-1.6809,-1.6965,-1.6978,-1.6978,-1.6978,-1.6978,-1.6978,-1.6978,-1.6978,-1.6978,-1.6978,-1.6978,-1.8013,-2.0279,-2.0279,-2.1622,-2.4392,-2.3878,-2.6434,-3.1768,-3.0129,-3.0445,0.0,0.0,0.0,0.0,-1.299,0.0,0.0,0.0,-1.3417,-1.3573,0.0,0.0,0.0,0.0,0.0,0.0,0.0,0.0,0.0,0.0,0.0,0.0,0.0,0.0,0.0,-3.1998,-3.2185,-3.2973,-3.2038,-3.177,-3.2559,-3.2038,-3.1837,-3.2091,-3.1824,-3.1664,-3.1664,-3.1637,-3.1623,-3.1623,-3.1623,-3.1623,-3.1623,-3.165,-3.1664,-3.1664,-3.1664,-3.1664,-3.1664,-3.1664,-3.1664,-3.1664,-3.1637,-3.1623,-3.161,-3.1583,-3.157,-3.157,-3.161,-3.1623,-3.1623,-3.1664,-3.0115,-2.8164,-2.7588,-2.3686,-1.9585,-1.9585,-1.7939,-1.6022,-1.5757,-1.5784,-1.6426,-1.8576,-1.9096,-1.9171,-1.951,-2.1278,-2.2162,-1.9945,-2.1441,-2.1539,-1.6864,-1.6083,-1.6137,-1.6286,-1.6307,-1.6415,-1.6714,-1.6748,-1.6809,-1.6965,-1.6978,-1.6978,-1.6978,-1.6978,-1.6978,-1.6978,-1.6978,-1.6978,-1.6978,-1.6978,-1.7188,-1.7496,-1.7496,-1.8843,-2.1518,-1.9149,-2.08,-2.6137,-2.8291,-2.942,0.0,0.0,0.0,0.0,0.0,0.0,-1.6725,0.0,-1.3721,0.0,0.0,0.0,0.0,0.0,0.0,0.0,-1.5115,0.0,0.0,0.0,0.0,0.0,0.0,0.0,0.0,0.0,0.0,0.0,-3.1597,-3.1463,-3.2011,-3.181,-3.1717,-3.1851,-3.173,-3.1664,-3.1664,-3.1664,-3.1664,-3.1664,-3.1664,-3.1664,-3.1664,-3.1664,-3.1664,-3.1664,-3.1664,-3.1664,-3.1664,-3.1664,-3.1664,-3.1664,-3.1664,-3.1664,-3.1664,-3.1664,-3.1664,-3.1664,-3.1664,-3.1664,-3.1664,-3.1664,-2.9911,-2.778,-2.778,-2.5238,-2.2214,-2.2214,-2.1441,-2.0631,-2.0473,-2.0482,-2.0818,-2.1785,-2.2056,-2.2104,-2.2186,-2.312,-2.3468,-2.2497,-2.3189,-2.3199,-2.096,-1.9396,-1.842,-1.8691,-1.7437,-1.6544,-1.6842,-1.6883,-1.691,-1.6971,-1.6978,-1.6944,-1.6856,-1.6849,-1.6849,-1.6849,-1.6931,-1.6978,-1.6978,-1.6978,-1.6978,-1.6978,-1.6978,-1.7601,-1.8738,-1.7601,-1.8222,-2.0488,-2.3259,-2.624,-1.7882,0.0,0.0,0.0,0.0,0.0,0.0,0.0,0.0,0.0,0.0,0.0,0.0,0.0,0.0,0.0,0.0,-1.7836,0.0,0.0,0.0,0.0,0.0,0.0,0.0,0.0,0.0,0.0,0.0,-3.0982,-3.1517,-3.1543,-3.1583,-3.1664,-3.1744,-3.1744,-3.1664,-3.1744,-3.1744,-3.1664,-3.1664,-3.1664,-3.1664,-3.1664,-3.1664,-3.1664,-3.1664,-3.1664,-3.1664,-3.1664,-3.1664,-3.1664,-3.1664,-3.1664,-3.1664,-3.1664,-3.1664,-3.1664,-3.1664,-3.1664,-3.1664,-3.1664,-3.0401,-2.8847,-2.8847,-2.6999,-2.4948,-2.4948,-2.4463,-2.386,-2.3896,-2.3829,-2.4054,-2.4767,-2.4948,-2.5043,-2.5043,-2.5626,-2.5917,-2.5237,-2.5572,-2.6012,-2.6012,-2.3286,-2.1183,-2.1483,-1.9197,-1.7698,-1.8067,-1.7461,-1.6917,-1.6917,-1.6917,-1.6856,-1.67,-1.6727,-1.6768,-1.6809,-1.6917,-1.6978,-1.6978,-1.6978,-1.6978,-1.6978,-1.6978,-1.6978,-1.6978,-1.6978,-1.6978,-1.7083,-1.9871,-2.3268,0.0,0.0,0.0,-1.9444,0.0,0.0,0.0,0.0,-1.9394,0.0,0.0,0.0,0.0,0.0,0.0,-1.7036,0.0,0.0,0.0,0.0,0.0,0.0,0.0,0.0,0.0,0.0,0.0,0.0,0.0,0.0,-3.1183,-3.1236,-3.137,-3.1664,-3.1944,-3.1957,-3.1677,-3.1944,-3.1944,-3.1664,-3.1664,-3.1664,-3.1664,-3.1664,-3.1664,-3.1664,-3.1664,-3.1664,-3.1664,-3.1664,-3.1664,-3.1664,-3.1664,-3.1664,-3.1664,-3.1664,-3.1664,-3.1664,-3.1664,-3.1664,-3.1664,-3.1664,-3.1664,-3.1569,-3.1569,-2.9721,-2.7684,-2.7684,-2.5829,-2.3829,-2.3703,-2.3805,-2.4497,-2.6869,-2.778,-2.8047,-2.8047,-3.0013,-3.1101,-2.8545,-2.9896,-3.1474,-3.1474,-2.718,-2.3924,-2.4277,-2.1877,-2.0267,-2.0932,-1.8492,-1.6754,-1.6754,-1.6754,-1.6693,-1.6544,-1.6666,-1.6815,-1.6965,-1.6978,-1.6978,-1.6978,-1.6978,-1.6978,-1.6978,-1.6978,-1.6978,-1.6978,-1.6978,-1.6978,-1.7083,-1.9871,-2.1207,0.0,0.0,-2.2479,-2.1983,0.0,0.0,0.0,0.0,0.0,0.0,0.0,0.0,0.0,0.0,-1.9558,-1.9567,-1.9474,0.0,0.0,0.0,0.0,0.0,0.0,0.0,0.0,0.0,0.0,0.0,-2.9472,0.0,0.0,-3.0648,-3.0875,-3.1356,-3.1476,-3.157,-3.1664,-3.177,-3.177,-3.1664,-3.1664,-3.1664,-3.1664,-3.1664,-3.1664,-3.1664,-3.1664,-3.1664,-3.1664,-3.1664,-3.1664,-3.1664,-3.1664,-3.1664,-3.1664,-3.1664,-3.1664,-3.1664,-3.1664,-3.1664,-3.1664,-3.1664,-3.1664,-3.1664,-3.1664,-3.108,-3.0401,-3.0401,-2.9721,-2.9014,-2.9011,-2.9061,-2.9301,-3.0083,-3.0401,-3.0542,-3.0542,-3.1225,-3.1524,-3.0638,-3.1146,-3.1664,-3.1664,-3.0351,-2.8825,-2.7277,-2.3279,-2.1212,-2.3502,-1.9815,-1.7585,-1.9308,-1.7768,-1.6653,-1.6402,-1.6517,-1.6666,-1.6815,-1.6924,-1.6978,-1.6978,-1.6978,-1.6978,-1.6978,-1.6978,-1.6978,-1.6978,-1.6978,-1.6978,-1.6978,-1.7908,-1.9357,-2.4394,-2.4665,0.0,-2.4505,-2.4554,0.0,-2.603,0.0,0.0,0.0,0.0,0.0,0.0,0.0,0.0,-2.1933,-2.1817,0.0,0.0,-2.3469,0.0,0.0,0.0,0.0,0.0,0.0,-2.8644,-2.9138,-2.8991,0.0,0.0,0.0,-3.0421,-3.0902,-3.1223,-3.137,-3.1356,-3.157,-3.1623,-3.1517,-3.1517,-3.157,-3.1664,-3.1664,-3.1664,-3.1664,-3.1664,-3.1664,-3.1664,-3.1664,-3.1664,-3.1664,-3.1664,-3.1664,-3.1664,-3.1664,-3.1664,-3.1664,-3.1664,-3.1664,-3.1664,-3.1664,-3.1664,-3.1664,-3.1664,-3.1664,-3.1664,-3.1664,-3.1664,-3.1664,-3.1664,-3.1664,-3.1664,-3.1664,-3.1744,-3.1824,-3.1824,-3.1904,-3.1944,-3.1837,-3.1824,-3.1797,-3.169,-3.1824,-3.1487,-3.007,-2.6132,-2.4095,-2.6381,-2.2521,-2.0266,-2.2145,-1.975,-1.7603,-1.6503,-1.6517,-1.6646,-1.6637,-1.6897,-1.6978,-1.6978,-1.6978,-1.6978,-1.6978,-1.6978,-1.6978,-1.6978,-1.6978,-1.6978,-1.6978,-1.6978,-1.7908]},{"header":{"parameterUnit":"m.s-1","parameterCategory":1,"la1":30.6,"la2":29.2853,"lo1":-89.7004,"lo2":-87.6739,"dy":0.0162,"dx":0.0183,"nx":112,"ny":82,"refTime":"2024-06-16T18:00:00:Z","depth":0,"parameterNumber":3,"parameterNumberName":"V-component_of_WINDS"},"data":[0.0,0.0,0.0,0.0,0.0,0.0,0.0,0.0,0.0,0.0,0.0,0.0,0.0,0.0,0.0,0.0,0.0,0.0,0.0,0.0,0.0,0.0,0.0,0.0,0.0,0.0,0.0,0.0,0.0,0.0,0.0,0.0,0.0,0.0,0.0,0.0,0.0,0.0,0.0,0.0,0.0,0.0,0.0,0.0,0.0,0.0,0.0,0.0,0.0,0.0,0.0,0.0,0.0,0.0,0.0,0.0,0.0,0.0,0.0,0.0,0.0,0.0,0.0,0.0,0.0,0.0,0.0,0.0,0.0,0.0,0.0,0.0,0.0,0.0,0.0,0.0,0.0,0.0,0.0,0.0,0.0,0.0,0.0,0.0,0.0,0.0,0.0,0.0,0.0,0.0,5.3871,5.5525,5.767,5.8693,5.7949,5.7205,5.5852,5.3653,0.0,0.0,0.0,0.0,0.0,0.0,0.0,0.0,0.0,0.0,0.0,0.0,0.0,0.0,0.0,0.0,0.0,0.0,0.0,0.0,0.0,0.0,0.0,0.0,0.0,0.0,0.0,0.0,0.0,0.0,0.0,0.0,0.0,0.0,0.0,0.0,0.0,0.0,0.0,0.0,0.0,0.0,0.0,0.0,0.0,0.0,0.0,0.0,0.0,0.0,0.0,0.0,0.0,0.0,0.0,0.0,0.0,0.0,0.0,0.0,0.0,0.0,0.0,0.0,0.0,0.0,0.0,0.0,0.0,0.0,0.0,0.0,0.0,0.0,0.0,0.0,0.0,0.0,0.0,0.0,0.0,0.0,0.0,0.0,0.0,0.0,0.0,0.0,0.0,0.0,0.0,0.0,0.0,0.0,0.0,0.0,0.0,0.0,0.0,0.0,0.0,0.0,0.0,0.0,5.446,5.7226,5.8417,5.8693,5.7949,5.7205,5.5852,5.3653,0.0,0.0,0.0,0.0,0.0,0.0,0.0,0.0,0.0,0.0,0.0,0.0,0.0,0.0,0.0,0.0,0.0,0.0,0.0,0.0,0.0,0.0,0.0,0.0,0.0,0.0,0.0,0.0,0.0,0.0,0.0,0.0,0.0,0.0,0.0,0.0,0.0,0.0,0.0,0.0,0.0,0.0,0.0,0.0,0.0,0.0,0.0,0.0,0.0,0.0,0.0,0.0,0.0,0.0,0.0,0.0,0.0,0.0,0.0,0.0,0.0,0.0,0.0,0.0,0.0,0.0,0.0,0.0,0.0,0.0,0.0,0.0,0.0,0.0,0.0,0.0,0.0,0.0,0.0,0.0,0.0,0.0,0.0,0.0,0.0,0.0,0.0,0.0,0.0,0.0,0.0,0.0,0.0,0.0,0.0,0.0,0.0,0.0,0.0,0.0,0.0,0.0,0.0,5.4634,5.6122,5.8287,5.9167,5.9133,5.7983,5.6867,5.5446,5.3619,5.098,0.0,0.0,0.0,0.0,0.0,0.0,0.0,0.0,0.0,0.0,0.0,0.0,0.0,0.0,0.0,0.0,0.0,0.0,0.0,0.0,0.0,0.0,0.0,0.0,0.0,0.0,0.0,0.0,0.0,0.0,0.0,0.0,0.0,0.0,0.0,0.0,0.0,0.0,0.0,0.0,0.0,0.0,0.0,0.0,0.0,0.0,0.0,0.0,0.0,0.0,0.0,0.0,0.0,0.0,0.0,0.0,0.0,0.0,0.0,0.0,0.0,0.0,0.0,0.0,0.0,0.0,0.0,0.0,0.0,0.0,0.0,0.0,0.0,0.0,0.0,0.0,0.0,0.0,0.0,0.0,0.0,0.0,0.0,0.0,0.0,0.0,0.0,0.0,0.0,0.0,0.0,0.0,0.0,0.0,0.0,0.0,0.0,0.0,0.0,0.0,0.0,0.0,5.6934,5.7881,5.866,5.9573,5.9505,5.8017,5.6562,5.5074,5.3585,5.0676,0.0,0.0,0.0,0.0,0.0,0.0,0.0,0.0,0.0,0.0,0.0,0.0,0.0,0.0,0.0,0.0,0.0,0.0,0.0,0.0,0.0,0.0,0.0,0.0,0.0,0.0,0.0,0.0,0.0,0.0,0.0,0.0,0.0,0.0,0.0,0.0,0.0,0.0,0.0,0.0,0.0,0.0,0.0,0.0,0.0,0.0,0.0,0.0,0.0,0.0,0.0,0.0,0.0,0.0,0.0,0.0,0.0,0.0,0.0,0.0,0.0,0.0,0.0,0.0,0.0,0.0,0.0,0.0,0.0,0.0,0.0,0.0,0.0,0.0,0.0,0.0,0.0,0.0,0.0,0.0,0.0,0.0,0.0,0.0,0.0,0.0,0.0,0.0,0.0,0.0,0.0,0.0,0.0,0.0,0.0,0.0,0.0,0.0,0.0,0.0,0.0,0.0,5.7306,5.937,5.8084,5.9235,5.9505,5.8017,5.6562,5.5074,5.3585,5.0676,0.0,0.0,0.0,0.0,0.0,0.0,0.0,0.0,0.0,0.0,0.0,0.0,0.0,0.0,0.0,0.0,0.0,0.0,0.0,0.0,0.0,0.0,0.0,0.0,0.0,0.0,0.0,0.0,0.0,0.0,0.0,0.0,0.0,0.0,0.0,0.0,0.0,0.0,0.0,0.0,0.0,0.0,0.0,0.0,0.0,0.0,0.0,0.0,0.0,0.0,0.0,0.0,0.0,0.0,0.0,0.0,0.0,0.0,0.0,0.0,0.0,0.0,0.0,0.0,0.0,0.0,0.0,0.0,0.0,0.0,0.0,0.0,0.0,0.0,0.0,0.0,0.0,0.0,0.0,0.0,0.0,0.0,0.0,0.0,0.0,0.0,0.0,0.0,0.0,0.0,0.0,0.0,0.0,0.0,0.0,0.0,0.0,0.0,0.0,0.0,0.0,0.0,5.7137,5.9066,0.0,6.008,5.9708,5.8693,5.6833,5.5074,5.3585,0.0,0.0,0.0,0.0,0.0,0.0,0.0,0.0,0.0,0.0,0.0,0.0,0.0,0.0,0.0,0.0,0.0,0.0,0.0,0.0,0.0,0.0,0.0,0.0,0.0,0.0,0.0,0.0,0.0,0.0,0.0,0.0,0.0,0.0,0.0,0.0,0.0,0.0,0.0,0.0,0.0,0.0,0.0,0.0,0.0,0.0,0.0,0.0,0.0,0.0,0.0,0.0,0.0,0.0,0.0,0.0,0.0,0.0,0.0,0.0,0.0,0.0,0.0,0.0,0.0,0.0,0.0,0.0,0.0,0.0,0.0,0.0,0.0,0.0,0.0,0.0,0.0,0.0,0.0,0.0,0.0,0.0,0.0,0.0,0.0,0.0,0.0,0.0,0.0,0.0,0.0,0.0,0.0,0.0,0.0,0.0,0.0,0.0,0.0,0.0,0.0,0.0,5.4566,5.7103,5.9099,0.0,6.0283,5.981,5.9066,5.6765,5.4735,5.3213,0.0,0.0,0.0,0.0,0.0,0.0,0.0,0.0,0.0,0.0,0.0,0.0,0.0,0.0,0.0,0.0,0.0,0.0,0.0,0.0,0.0,0.0,0.0,0.0,0.0,0.0,0.0,0.0,0.0,0.0,0.0,0.0,0.0,0.0,0.0,0.0,0.0,0.0,0.0,0.0,0.0,0.0,0.0,0.0,0.0,0.0,0.0,0.0,0.0,0.0,0.0,0.0,0.0,0.0,0.0,0.0,0.0,0.0,0.0,0.0,0.0,0.0,0.0,0.0,0.0,0.0,0.0,0.0,0.0,0.0,0.0,0.0,0.0,0.0,0.0,0.0,0.0,0.0,0.0,0.0,0.0,0.0,0.0,0.0,0.0,0.0,0.0,0.0,0.0,0.0,0.0,0.0,0.0,0.0,0.0,0.0,0.0,0.0,0.0,0.0,0.0,0.0,5.3315,5.7374,5.981,5.9133,5.9674,5.981,5.9099,5.6325,5.3957,0.0,0.0,0.0,0.0,0.0,0.0,0.0,0.0,0.0,0.0,0.0,0.0,0.0,0.0,0.0,0.0,0.0,0.0,0.0,0.0,0.0,0.0,0.0,0.0,0.0,0.0,0.0,0.0,0.0,0.0,0.0,0.0,0.0,0.0,0.0,0.0,0.0,0.0,0.0,0.0,0.0,0.0,0.0,0.0,0.0,0.0,0.0,0.0,0.0,0.0,0.0,0.0,0.0,0.0,0.0,0.0,0.0,0.0,0.0,0.0,0.0,0.0,0.0,0.0,0.0,0.0,0.0,0.0,0.0,0.0,0.0,0.0,0.0,0.0,0.0,0.0,0.0,0.0,0.0,0.0,0.0,0.0,0.0,0.0,0.0,0.0,0.0,0.0,0.0,0.0,0.0,0.0,0.0,0.0,0.0,0.0,0.0,0.0,0.0,0.0,0.0,0.0,0.0,5.3991,5.7679,6.0216,6.0588,6.0317,6.0013,5.981,5.707,5.4735,5.3247,0.0,0.0,0.0,0.0,0.0,0.0,0.0,0.0,0.0,0.0,0.0,0.0,0.0,0.0,0.0,0.0,0.0,0.0,0.0,0.0,0.0,0.0,0.0,0.0,0.0,0.0,0.0,0.0,0.0,0.0,0.0,0.0,0.0,0.0,0.0,0.0,0.0,0.0,0.0,0.0,0.0,0.0,0.0,0.0,0.0,0.0,0.0,0.0,0.0,0.0,0.0,0.0,0.0,0.0,0.0,0.0,0.0,0.0,0.0,0.0,0.0,0.0,0.0,0.0,0.0,0.0,0.0,0.0,0.0,0.0,0.0,0.0,0.0,0.0,0.0,0.0,0.0,0.0,0.0,0.0,0.0,0.0,0.0,0.0,0.0,0.0,0.0,0.0,0.0,0.0,0.0,0.0,0.0,0.0,0.0,0.0,0.0,0.0,0.0,0.0,0.0,0.0,5.4296,5.7814,6.0419,6.1231,6.0858,6.0588,6.0588,5.8118,5.5818,5.4059,0.0,0.0,0.0,0.0,0.0,0.0,0.0,0.0,0.0,0.0,0.0,0.0,0.0,0.0,0.0,0.0,0.0,0.0,0.0,0.0,0.0,0.0,0.0,0.0,0.0,0.0,0.0,0.0,0.0,0.0,0.0,0.0,0.0,0.0,0.0,0.0,0.0,0.0,0.0,0.0,0.0,0.0,0.0,0.0,0.0,0.0,0.0,0.0,0.0,0.0,0.0,0.0,0.0,0.0,0.0,0.0,0.0,0.0,0.0,0.0,0.0,0.0,0.0,0.0,0.0,0.0,0.0,0.0,0.0,0.0,0.0,0.0,0.0,0.0,0.0,0.0,0.0,0.0,0.0,0.0,0.0,0.0,0.0,0.0,0.0,0.0,0.0,0.0,0.0,0.0,0.0,0.0,0.0,0.0,0.0,0.0,0.0,0.0,0.0,0.0,0.0,0.0,5.4397,5.7848,6.0419,6.1231,6.1298,6.1298,6.1298,5.9201,5.6968,5.4837,0.0,0.0,0.0,0.0,0.0,0.0,0.0,0.0,0.0,0.0,0.0,0.0,0.0,0.0,0.0,0.0,0.0,0.0,0.0,0.0,0.0,0.0,0.0,0.0,0.0,0.0,0.0,0.0,0.0,0.0,0.0,0.0,0.0,0.0,0.0,0.0,0.0,0.0,0.0,0.0,0.0,0.0,0.0,0.0,0.0,0.0,0.0,0.0,0.0,0.0,0.0,0.0,0.0,0.0,0.0,0.0,0.0,0.0,0.0,0.0,5.5341,0.0,0.0,0.0,0.0,0.0,0.0,0.0,0.0,0.0,0.0,0.0,0.0,0.0,0.0,0.0,0.0,0.0,0.0,0.0,0.0,0.0,0.0,0.0,0.0,0.0,0.0,0.0,0.0,0.0,0.0,0.0,0.0,0.0,0.0,0.0,0.0,0.0,0.0,0.0,0.0,0.0,5.5175,5.8186,6.0419,6.1231,6.1298,6.1298,6.1298,5.9201,5.7205,5.5581,5.2638,0.0,0.0,0.0,0.0,0.0,0.0,0.0,0.0,0.0,0.0,0.0,0.0,0.0,0.0,0.0,0.0,0.0,0.0,0.0,0.0,0.0,0.0,0.0,0.0,0.0,0.0,0.0,0.0,0.0,0.0,0.0,0.0,0.0,0.0,0.0,0.0,0.0,0.0,0.0,0.0,0.0,0.0,0.0,0.0,0.0,0.0,0.0,0.0,0.0,0.0,0.0,0.0,0.0,0.0,0.0,0.0,0.0,0.0,0.0,0.0,5.7619,0.0,0.0,0.0,0.0,0.0,0.0,0.0,0.0,0.0,0.0,0.0,0.0,0.0,0.0,0.0,0.0,0.0,0.0,0.0,0.0,0.0,0.0,0.0,0.0,0.0,0.0,0.0,0.0,0.0,0.0,0.0,0.0,0.0,0.0,0.0,0.0,0.0,0.0,0.0,0.0,5.5886,5.849,6.0554,6.1704,6.1839,6.1839,6.1839,6.0047,5.849,5.7374,5.416,0.0,0.0,0.0,0.0,0.0,0.0,0.0,0.0,0.0,0.0,0.0,0.0,0.0,0.0,0.0,0.0,0.0,0.0,0.0,0.0,0.0,0.0,0.0,0.0,0.0,0.0,0.0,0.0,0.0,0.0,0.0,0.0,0.0,0.0,0.0,0.0,0.0,0.0,0.0,0.0,0.0,0.0,0.0,0.0,0.0,0.0,0.0,0.0,0.0,0.0,0.0,0.0,0.0,6.6025,6.6476,6.6366,6.6366,6.6439,6.6402,6.3539,6.2291,6.2144,6.0676,0.0,0.0,0.0,0.0,0.0,0.0,0.0,0.0,0.0,0.0,0.0,0.0,0.0,0.0,0.0,0.0,0.0,0.0,0.0,0.0,0.0,0.0,0.0,0.0,5.9147,5.8789,0.0,0.0,0.0,0.0,0.0,0.0,0.0,0.0,0.0,0.0,0.0,0.0,5.6799,5.8896,6.0689,6.2245,6.2381,6.2381,6.2381,6.0994,5.981,5.9066,5.5784,5.3551,0.0,0.0,0.0,0.0,0.0,0.0,0.0,0.0,0.0,0.0,0.0,0.0,0.0,0.0,0.0,0.0,0.0,0.0,0.0,0.0,0.0,0.0,0.0,0.0,0.0,0.0,0.0,0.0,0.0,0.0,0.0,0.0,5.8637,5.9625,0.0,0.0,0.0,0.0,0.0,0.0,0.0,0.0,0.0,0.0,0.0,0.0,0.0,6.6206,6.6893,6.8513,6.8972,6.8284,7.0494,7.1211,7.0485,7.0485,7.0917,7.1505,7.0367,0.0,6.4751,6.3833,0.0,0.0,0.0,0.0,0.0,0.0,0.0,0.0,0.0,0.0,0.0,0.0,0.0,0.0,0.0,0.0,0.0,0.0,0.0,0.0,0.0,0.0,6.2718,6.1401,6.232,6.2892,0.0,5.7608,5.5388,5.5741,5.3294,0.0,0.0,0.0,0.0,0.0,0.0,0.0,5.8355,5.9539,6.0689,6.2245,6.2381,6.2381,6.2381,6.0994,5.981,5.9066,5.6765,5.5074,5.4329,5.2029,0.0,0.0,0.0,0.0,0.0,0.0,0.0,0.0,0.0,0.0,0.0,0.0,0.0,0.0,0.0,0.0,0.0,0.0,0.0,0.0,0.0,0.0,0.0,0.0,0.0,0.0,0.0,0.0,0.0,5.8004,6.0015,6.0382,6.0786,6.075,0.0,0.0,0.0,0.0,0.0,0.0,0.0,0.0,0.0,6.9155,6.9633,7.0257,7.1064,7.2239,7.2642,7.2275,7.334,7.367,7.334,7.334,7.3523,7.3854,7.3487,7.2349,7.0513,6.7871,6.6035,6.4787,0.0,0.0,0.0,0.0,6.286,6.2324,6.323,6.3039,0.0,6.1734,0.0,0.0,0.0,0.0,0.0,0.0,0.0,0.0,0.0,0.0,0.0,6.512,6.5953,6.6569,6.5881,6.3234,6.034,0.0,5.6843,5.5614,5.377,0.0,0.0,0.0,0.0,5.6765,5.9302,6.0283,6.1197,6.2279,6.2381,6.2381,6.2381,6.0994,5.9945,5.9641,5.7543,5.619,5.5852,5.4093,5.2536,0.0,0.0,0.0,0.0,0.0,0.0,0.0,0.0,0.0,0.0,0.0,0.0,0.0,0.0,0.0,0.0,0.0,0.0,0.0,0.0,0.0,0.0,0.0,0.0,0.0,0.0,0.0,0.0,6.0575,6.1704,6.1835,6.2818,6.2989,0.0,0.0,0.0,0.0,0.0,0.0,6.9155,6.9816,7.0881,7.2496,7.312,7.3817,7.4625,7.5212,7.5542,7.5542,7.5542,7.5542,7.5542,7.5542,7.5542,7.5542,7.5542,7.5395,7.4955,7.1541,6.9302,6.7944,6.6916,6.6402,6.6292,6.6659,6.6549,6.6402,6.7577,6.7614,6.6953,6.5962,0.0,6.4677,6.2842,0.0,0.0,0.0,0.0,6.4383,6.5852,6.699,6.7834,6.8201,6.9082,6.9706,6.9302,6.7461,6.4862,0.0,6.0461,5.9352,5.6065,0.0,0.0,0.0,0.0,5.8693,6.0723,6.1332,6.1873,6.2584,6.2516,6.2381,6.2381,6.0994,6.0114,6.0114,5.8186,5.707,5.707,5.5852,5.4431,5.2909,0.0,0.0,0.0,0.0,0.0,0.0,0.0,0.0,0.0,0.0,0.0,0.0,0.0,0.0,0.0,0.0,0.0,0.0,0.0,0.0,0.0,0.0,0.0,0.0,0.0,0.0,0.0,0.0,0.0,6.576,6.7442,0.0,0.0,0.0,0.0,6.8605,7.011,7.1725,7.3303,7.345,7.4184,7.5799,7.5909,7.6313,7.709,7.7163,7.7163,7.7163,7.7163,7.7163,7.7163,7.7163,7.7163,7.7163,7.7163,7.6754,7.5909,7.4147,7.2973,7.2055,7.0477,6.9376,6.8641,6.7907,6.8091,6.8752,6.8825,6.8825,6.8898,6.9596,6.8752,6.7504,6.7357,6.6292,0.0,0.0,6.6843,6.765,6.8495,6.9889,7.0881,7.0146,7.1174,7.1908,7.0367,6.9187,6.814,0.0,6.3869,6.12,6.1013,0.0,5.9847,5.981,6.0554,6.1637,6.3159,6.2753,6.2618,6.3396,6.2821,6.2381,6.2381,6.0994,6.0114,6.0114,5.866,5.7814,5.7814,5.7103,5.5987,5.4499,5.3754,0.0,0.0,0.0,0.0,0.0,0.0,0.0,0.0,0.0,0.0,0.0,0.0,0.0,0.0,0.0,0.0,0.0,0.0,0.0,0.0,0.0,0.0,0.0,0.0,0.0,0.0,0.0,0.0,6.8385,6.9621,0.0,6.8531,6.9633,7.0881,7.1908,7.3487,7.5102,7.6754,7.7341,7.7892,7.8442,7.8479,7.8626,7.8919,7.8919,7.8919,7.8883,7.8369,7.8148,7.8112,7.753,7.7273,7.7273,7.7273,7.7127,7.6827,7.6276,7.5249,7.4001,7.3413,7.301,7.2753,7.2459,7.2532,7.2789,7.2789,7.2789,7.2642,7.1908,7.0917,6.9926,6.9376,6.8825,6.8458,6.8752,6.9009,6.9412,7.0257,7.0852,7.1219,7.0954,7.1321,7.1398,7.0241,6.9239,6.8434,6.8045,6.5493,6.3142,6.2199,6.2174,6.2144,6.1637,6.2245,6.3091,6.4072,6.3971,6.3734,6.3531,6.37,6.3429,6.2482,6.1467,6.0655,6.0148,5.8727,5.7881,5.7881,5.7645,5.6799,5.5344,5.4566,5.2841,0.0,0.0,0.0,0.0,0.0,0.0,0.0,0.0,0.0,0.0,0.0,0.0,0.0,0.0,0.0,0.0,0.0,0.0,0.0,0.0,0.0,0.0,0.0,0.0,0.0,6.8699,7.0134,7.1191,7.2257,7.2606,7.1798,7.2973,7.4221,7.5249,7.657,7.7818,7.8956,7.9507,7.9921,8.0124,7.9921,7.9921,8.0124,7.9921,7.98,7.9764,7.925,7.8846,7.8589,7.8295,7.7855,7.731,7.7604,7.7598,7.7273,7.7273,7.665,7.5689,7.5432,7.5322,7.5285,7.5028,7.4918,7.4918,7.4918,7.4918,7.4735,7.367,7.2973,7.2422,7.1872,7.1725,7.1725,7.1725,7.1725,7.1835,7.2386,7.2504,7.2459,7.2165,7.2043,7.1788,7.0866,6.9915,6.9122,6.8999,6.6975,6.5019,6.4038,6.4512,6.4749,6.4005,6.4512,6.5087,6.5324,6.5121,6.4783,6.4309,6.4478,6.4106,6.2888,6.1873,6.096,6.0148,5.8727,5.7881,5.7881,5.7645,5.6934,5.575,5.4735,5.3247,5.1251,0.0,0.0,0.0,0.0,0.0,0.0,0.0,0.0,0.0,0.0,0.0,0.0,0.0,0.0,0.0,0.0,0.0,0.0,0.0,0.0,0.0,0.0,0.0,7.0566,7.1534,7.2889,7.4228,7.5453,7.5903,7.5102,7.7231,7.8699,7.8699,7.9433,7.991,7.991,7.991,8.0174,8.0814,8.0198,8.0167,8.0842,8.0198,7.9874,7.9874,7.9837,7.9433,7.8699,7.9433,7.8919,7.742,7.8259,7.8185,7.7384,7.7347,7.7347,7.7237,7.646,7.613,7.6056,7.5285,7.4992,7.4992,7.4992,7.4992,7.4992,7.4955,7.4955,7.4955,7.4918,7.4918,7.4918,7.4918,7.4918,7.4918,7.4918,7.4918,7.4698,7.3927,7.3546,7.3191,7.2368,7.1295,7.0505,7.0465,6.8508,6.688,6.688,6.7455,6.7692,6.6948,6.7455,0.0,6.6914,6.6211,6.5779,6.5779,6.5128,6.4383,6.3639,6.2178,6.0994,6.0182,5.8727,5.7915,5.7915,5.7239,5.6494,5.5749,5.433,5.3585,5.3585,0.0,0.0,0.0,0.0,0.0,0.0,0.0,0.0,0.0,0.0,0.0,0.0,0.0,0.0,0.0,0.0,0.0,0.0,0.0,0.0,0.0,7.2803,7.4832,7.4474,7.5396,7.631,7.6821,7.7875,7.8298,7.7659,7.925,8.0571,8.1158,8.1966,8.2406,8.2406,8.2406,8.221,8.1839,8.1654,8.1654,8.1802,8.1617,8.1525,8.1525,8.0938,8.0534,8.0351,7.9947,7.9543,7.914,7.936,7.9323,7.9066,7.8479,7.8259,7.8148,7.7304,7.6974,7.6937,7.6723,7.6613,7.6613,7.6613,7.6613,7.654,7.5983,7.5763,7.5652,7.5102,7.4918,7.4918,7.4918,7.4918,7.4918,7.4918,7.4918,7.4845,7.4625,7.3983,7.3168,7.2228,7.1233,7.0297,6.9612,6.8956,6.847,6.847,6.8639,6.8504,6.7726,6.776,0.0,6.6914,6.7208,6.731,6.676,6.7001,6.673,6.542,6.3324,6.1772,6.1028,5.9032,5.8118,5.8693,5.7983,5.7239,5.6528,5.5617,5.5462,0.0,0.0,0.0,0.0,0.0,0.0,0.0,0.0,0.0,0.0,0.0,0.0,0.0,0.0,0.0,0.0,0.0,0.0,0.0,0.0,0.0,0.0,7.5822,7.7823,7.8554,7.8623,7.8807,7.9296,7.9767,8.0153,8.0496,8.0829,8.1599,8.3104,8.3324,8.3581,8.3875,8.3911,8.3819,8.3619,8.3043,8.2973,8.365,8.3043,8.27,8.27,8.2223,8.1672,8.1012,8.0865,8.0424,0.0,8.0167,8.0094,7.9727,7.8919,7.8589,0.0,0.0,0.0,0.0,0.0,7.7273,7.7273,7.7273,7.7273,7.72,7.6754,7.6607,7.6533,7.6056,7.5879,7.5879,7.5879,7.5879,7.5879,7.5879,7.5879,7.5836,7.5506,7.4893,7.4138,7.3296,7.2226,7.1311,7.0754,7.0308,0.0,7.0026,6.9755,6.9282,6.8504,6.9033,6.9089,6.8063,6.8748,6.9188,6.8733,6.8765,6.8346,6.7194,6.4847,0.0,0.0,0.0,5.8727,5.8558,5.8825,0.0,0.0,0.0,0.0,0.0,0.0,0.0,0.0,5.8303,5.8863,0.0,0.0,0.0,0.0,0.0,0.0,0.0,0.0,0.0,0.0,0.0,0.0,0.0,0.0,0.0,0.0,7.8977,8.0631,8.2208,8.1413,8.0869,8.1479,8.1301,8.1632,8.2957,8.216,8.2394,8.4425,8.4132,8.4095,8.4682,0.0,0.0,0.0,0.0,8.4161,8.5469,8.4161,8.3544,8.3544,8.3471,8.2663,8.1305,8.1929,8.1415,8.0094,8.0828,8.0718,7.9984,7.9176,7.8772,7.8516,7.7671,7.7273,7.7273,7.7273,7.7273,7.7273,7.7273,0.0,0.0,7.7273,7.7273,7.7273,7.7273,7.7273,7.7273,7.7273,7.7273,7.7273,7.7273,7.7273,7.7127,7.6423,7.5984,7.5606,7.4887,7.3777,7.2962,7.2962,7.2236,7.1644,7.1644,7.1012,7.0246,6.9533,7.0815,7.137,6.9949,7.0617,7.1197,7.1197,0.0,0.0,6.9067,6.6636,6.491,6.4249,6.1887,5.9861,5.8368,5.9908,6.0391,5.9622,6.1337,6.2848,6.4137,6.3378,6.3724,6.5038,6.1248,6.1095,0.0,0.0,0.0,0.0,0.0,0.0,0.0,0.0,0.0,0.0,0.0,0.0,0.0,0.0,0.0,7.9015,8.0708,8.217,8.3208,8.372,8.3609,8.2568,8.2953,8.3011,8.2323,8.3752,8.4688,8.4606,8.5673,8.6077,8.56,8.5563,8.53,8.4805,8.4525,8.4492,8.4768,8.4492,8.4389,8.4352,0.0,0.0,8.292,8.2406,8.2039,8.1746,8.1893,8.1893,8.1672,8.0865,7.9764,7.8516,7.7671,7.7273,7.7273,7.7273,7.7273,7.7273,7.7273,7.7273,7.7273,7.7273,7.7273,7.7273,7.7273,7.7273,0.0,7.7273,7.7273,7.7273,7.7273,7.7273,7.7237,7.709,7.6421,7.5751,7.5606,7.4724,7.4005,7.4005,7.385,7.3729,7.3729,7.2904,7.205,7.1332,7.2189,7.2599,7.1682,7.244,7.2988,7.2988,7.2271,7.1732,7.1588,6.8706,6.6846,6.6704,6.4426,6.2396,6.0876,6.2298,6.2822,6.2114,6.4312,6.5269,6.482,6.5223,6.5829,6.6519,6.3869,6.3903,0.0,0.0,0.0,0.0,0.0,0.0,0.0,0.0,0.0,0.0,0.0,7.513,7.6438,0.0,8.0208,8.1477,8.2785,8.3901,8.4747,8.5593,8.5548,8.3977,8.4614,8.493,8.4373,8.5096,8.5689,8.5815,8.6554,8.6995,8.6995,8.6995,8.6811,8.6407,8.5637,8.538,8.582,8.5416,8.5196,8.5196,8.4792,8.4389,8.3985,8.3177,8.281,8.2774,8.237,8.2186,8.215,8.1342,8.0277,7.9103,7.8295,7.7708,7.7273,7.7273,7.7273,7.7273,7.7273,7.7273,7.7273,7.7273,7.7273,7.7273,7.7273,7.7273,7.7273,7.7273,7.7273,7.7273,7.7273,7.7273,7.7273,7.7273,7.6925,7.6563,7.6563,7.5789,7.5048,7.5048,7.4647,7.4272,7.4272,7.431,7.3911,7.2637,7.3645,7.4226,7.351,7.4221,7.4811,7.4811,7.4082,7.3577,7.3577,7.0959,6.8763,6.7474,6.625,6.5093,6.3935,6.5467,6.5969,6.5269,6.7214,6.8225,6.8167,6.8482,6.8677,6.8873,6.764,6.7394,0.0,0.0,0.0,0.0,0.0,0.0,0.0,7.1514,7.2937,7.4822,7.6976,7.8977,8.0516,8.19,8.3131,8.417,8.4939,8.567,8.6478,8.7209,8.7132,8.5786,8.6335,8.6769,8.6644,8.6254,8.6287,8.6953,8.7142,8.7582,8.839,8.8426,8.8353,8.8206,8.6921,8.6481,8.6995,8.6371,8.604,8.604,8.5857,8.5453,8.4792,8.3838,8.3398,8.3361,8.2553,8.2357,8.2555,8.1597,8.088,8.0295,7.9519,7.8728,7.7922,7.7445,7.7384,7.753,7.7347,7.7273,7.7273,7.7273,7.7273,7.7273,7.7273,7.7273,7.7273,7.7273,7.7273,7.7273,7.7273,7.7273,7.7273,7.7273,7.7273,7.7273,7.7273,7.666,7.6094,7.6094,7.544,7.4867,7.4867,7.5545,7.5536,7.3939,7.508,7.5877,7.5294,7.5875,7.635,7.635,7.5616,7.5065,7.4918,7.3057,7.0883,6.8522,6.8384,6.8028,6.7278,6.8538,6.9012,6.8397,6.9973,7.0942,7.1275,7.148,7.1424,7.1052,7.0884,7.0251,6.2615,6.5312,6.846,7.0898,7.1629,7.2976,0.0,7.8054,7.8361,8.0823,8.217,8.317,8.417,8.4478,8.5132,8.6709,8.7055,8.7401,8.8286,8.8479,8.8479,8.8286,8.8367,8.7963,8.6719,8.717,8.7407,8.7024,8.7655,8.8426,8.9198,8.9271,8.894,8.8206,8.8023,8.7619,8.7031,8.6921,8.6885,8.6885,8.6151,8.5747,8.56,8.4095,8.3398,8.3361,8.2553,8.2934,8.4049,8.2516,8.2125,8.2473,8.167,8.099,8.0162,7.8092,7.7818,7.8332,7.7598,7.7273,7.7273,7.7273,7.7273,7.7273,7.7273,7.7273,7.7273,7.7273,7.7273,7.7273,7.7273,7.7273,7.7273,7.7273,7.7273,7.7273,7.7273,7.7212,7.715,7.715,7.7019,7.6956,7.6956,7.7051,7.6756,7.5679,7.6425,7.7113,7.7003,7.7096,7.7163,7.7163,7.646,7.5689,7.4955,7.4645,7.3732,7.1925,7.1857,7.1496,7.0666,7.0834,7.0925,7.0885,7.2504,7.2576,7.1146,7.2564,7.2785,7.1939,7.1687,7.1041,6.6717,6.9442,7.1745,7.3283,7.4784,7.6553,7.9208,7.99,8.0592,8.2631,8.4132,8.517,8.5517,8.644,8.7478,8.8671,8.9286,8.9902,9.0787,9.0902,9.0902,9.0902,9.0441,8.94,8.7487,8.8039,8.8307,8.7757,8.8463,8.9271,9.0078,9.0115,8.9968,8.9601,8.8683,8.8059,8.7692,8.7252,8.6995,8.6995,8.6664,8.6518,8.6481,8.5306,8.4535,8.4095,8.3728,8.392,8.4352,8.3674,8.3522,8.3575,8.2731,8.2334,8.1969,8.0056,7.9017,7.8552,7.8185,7.7745,7.7273,7.7273,7.7273,7.7273,7.7273,7.7273,7.7273,7.7273,7.7273,7.7273,7.7273,7.7273,7.7273,7.7273,7.7273,7.7273,7.7273,7.7273,7.7273,7.7273,7.7273,7.7273,7.7273,7.7273,7.7181,7.6761,7.7019,7.7273,7.7273,7.7273,7.7273,7.7273,7.7011,7.6497,7.5689,7.5616,7.5128,7.3915,7.3878,7.3696,7.3368,7.3368,7.3343,7.3384,7.4074,7.4036,7.3337,7.4467,7.4493,7.358,7.3902,7.3238,7.0023,7.2514,7.413,7.5438,7.7515,7.9438,8.0285,8.1362,8.2477,8.3708,8.5093,8.6247,8.6748,8.8017,8.9363,9.0441,9.1325,9.2095,9.2749,9.2633,9.2479,9.2479,9.1748,9.0396,8.8356,8.8907,8.9281,8.8897,8.9417,9.0078,9.0886,9.0922,9.0849,9.0629,8.9491,8.8647,8.8206,8.7619,8.7215,8.6995,8.6995,8.6995,8.6995,8.6151,8.549,8.4903,8.4874,8.4929,8.5031,8.4962,8.4858,8.4658,8.4035,8.3661,8.3311,8.2179,8.0559,7.8883,7.8662,7.8038,7.7273,7.7273,7.7273,7.7273,7.7273,7.7273,7.7273,7.7273,7.7273,7.7273,7.7273,7.7273,7.7273,7.7273,7.7457,7.7671,7.7671,7.7671,7.7671,7.7671,7.7457,7.7273,7.7273,7.7273,7.7273,7.7273,7.7273,7.7273,7.7273,7.7273,7.7273,7.7273,7.7273,7.7053,7.6497,7.6423,7.6203,7.5616,7.5549,7.5549,7.5549,7.5359,7.5249,7.5249,7.5249,7.5249,7.5249,7.6056,7.6079,7.5363,7.5636,7.5012,7.1405,7.3399,7.5245,7.7746,7.9708,8.1246,8.2054,8.3555,8.4786,8.4863,8.5517,8.6632,8.8286,8.9286,9.0441,9.2133,9.3095,9.3633,9.3672,9.2979,9.2479,9.2479,9.1748,9.0626,0.0,8.9774,9.0368,9.0514,9.0555,9.0922,9.173,9.1767,9.14,9.0629,9.0555,8.9784,8.8206,8.8169,8.7766,8.6995,8.6995,8.6995,8.6995,8.6151,8.5783,8.5778,8.5621,8.5938,8.653,8.6403,8.6221,8.6043,8.6005,8.5242,8.4154,8.4116,8.2239,7.9653,7.8883,7.8038,7.7273,7.7273,7.7273,7.7273,7.7273,7.7273,7.7273,7.7273,7.7273,7.7273,7.7273,7.7273,7.7273,7.7273,7.7965,7.8552,7.8552,7.8552,7.8552,7.8552,7.7892,7.7273,7.7273,7.7273,7.7273,7.7273,7.7273,7.7273,7.7273,7.7273,7.7273,7.7273,7.7273,7.7273,7.7273,7.7237,7.7237,7.7237,7.7237,7.7237,7.7237,7.6497,7.6056,7.6056,7.6056,7.6056,7.6056,7.69,7.7237,7.7175,7.6228,7.5753,7.3076,7.5091,7.6899,7.8861,8.0246,8.1477,8.2862,8.317,8.3516,8.467,8.5132,8.567,8.6786,8.8132,8.9863,9.2133,9.3172,9.4095,9.5249,9.4672,9.3941,9.3364,9.2603,9.175,9.0797,0.0,0.0,8.9781,8.9821,9.0408,9.173,9.1803,9.1693,9.14,9.0372,8.9564,8.9014,8.7949,8.7288,8.6995,8.6995,8.6995,8.6995,8.6738,8.6856,8.7333,8.7278,8.7592,8.8091,8.7438,8.7121,8.6868,8.5819,8.4953,8.4129,8.3704,8.2296,8.0571,8.0277,7.9653,7.8883,7.8332,7.8185,7.8075,7.7457,7.7273,7.7273,7.7273,7.7273,7.7273,7.7273,7.7745,7.8185,7.8185,7.8772,7.9396,7.9396,7.9396,7.9396,7.9396,7.914,7.8956,7.8956,7.8516,7.7965,7.7384,7.7273,7.7273,7.7273,7.7273,7.7273,7.7273,7.7273,7.7273,7.7273,7.7273,7.7273,7.7273,7.7273,7.7273,7.7273,7.7017,7.69,7.69,7.69,7.69,7.69,7.7745,7.8185,7.8185,7.8341,7.8098,7.4796,7.6669,7.813,7.9823,8.09,8.1823,8.2901,8.2939,8.3093,8.4209,8.4439,8.4786,8.5901,8.7286,8.9171,9.2056,9.3172,9.4326,9.6057,9.5557,9.4788,9.421,9.3246,9.2342,9.1601,9.0361,0.0,9.0222,9.0262,9.0702,9.173,9.1803,9.1803,9.1803,9.0812,9.0005,8.9382,8.8354,8.7729,8.7435,8.7142,8.7313,8.78,8.7505,8.7804,8.8475,8.8691,8.8848,8.8896,8.8571,8.7907,8.6927,8.595,8.4871,8.3772,8.335,8.2429,8.1379,8.1122,8.0461,7.969,7.9176,7.8809,7.8516,7.7928,7.753,7.7273,7.7273,7.7273,7.7347,7.7708,7.8185,7.8662,7.8956,7.9617,8.0241,8.0241,8.0241,8.0241,8.0241,7.9984,7.98,7.98,7.936,7.8736,7.7892,7.7781,7.7671,7.7347,7.7273,7.7273,7.7273,7.7273,7.7273,7.7273,7.7567,7.7781,7.7781,7.8038,7.8075,7.7781,7.7781,7.7604,7.731,7.7273,7.742,7.7781,7.8332,7.8736,7.9029,7.9543,7.9402,7.6463,7.79,7.8977,8.0669,8.167,8.2247,8.2285,8.2901,8.3478,8.3516,8.3478,8.3978,8.5593,8.6709,8.844,9.1825,9.3133,9.4326,9.6057,9.5595,9.5057,9.5018,9.3667,9.2456,9.1729,9.1021,0.0,9.1729,0.0,9.1767,9.1803,9.1803,9.1803,9.1803,9.173,9.0959,8.9382,8.9308,8.894,8.8206,8.7396,8.7797,8.9224,8.8473,8.8503,8.9199,8.9832,8.9697,8.9075,8.9667,8.8576,8.6532,8.6434,8.5142,8.3264,8.3235,8.2769,8.2076,8.1342,8.0571,7.991,7.9874,7.9323,7.8699,7.8662,7.8075,7.742,7.742,7.742,7.7604,7.8442,7.8699,7.8919,7.9653,8.0461,8.1048,8.1048,8.1048,8.1048,8.1048,8.0461,7.991,7.9874,7.9837,7.958,7.8772,7.8626,7.8295,7.7384,7.7273,7.7273,7.7273,7.7347,7.7347,7.7347,7.8185,7.8662,7.8662,7.936,7.9433,7.8699,7.8662,7.8259,7.742,7.742,7.7855,7.8662,7.8699,7.9103,7.9837,7.9874,7.991,7.6923,7.8361,7.9746,8.0823,8.1246,8.1554,8.217,8.2016,8.19,8.2516,8.2131,8.2054,8.3093,8.5016,8.7325,9.0133,9.2326,9.4326,9.6057,9.6095,9.5711,9.5057,9.4739,9.3978,9.2647,9.2406,0.0,0.0,9.1253,9.1179,9.1767,9.1803,9.1803,9.1803,9.0629,8.9821,8.9382,8.8206,8.7802,8.8206,8.7924,8.8041,8.8405,8.8692,8.9187,8.9855,9.0051,9.0311,9.0568,9.0119,8.9267,8.8167,8.6994,8.5545,8.4033,8.354,8.2859,8.215,8.1966,8.1746,8.1489,8.0901,8.0571,8.0277,7.9653,7.9323,7.914,7.914,7.914,7.9213,7.9433,7.9947,8.0461,8.0645,8.1305,8.1893,8.1893,8.1893,8.1893,8.1893,8.1709,8.1379,8.0791,8.0681,8.0424,7.9617,7.8993,7.8295,7.7384,7.7273,7.7273,7.7273,7.7892,7.8259,7.8259,7.9029,7.947,7.947,7.969,7.969,7.9507,7.947,7.9396,7.9176,7.914,7.925,7.9507,8.0094,8.0498,8.0718,8.1305,8.1599,7.8169,7.9361,8.0477,8.0977,8.1093,8.1131,8.1208,8.0862,8.0669,8.1093,8.0823,8.09,8.2093,8.3785,8.6094,8.9363,9.1441,9.348,9.5942,9.6288,9.6134,9.5634,9.5351,9.47,9.3477,9.3148,9.2666,0.0,9.1363,9.1326,9.1767,9.1803,9.1803,9.1803,9.0922,9.0115,8.9382,8.7802,8.7399,8.8206,8.8149,8.8436,8.9085,8.9402,8.9939,9.0586,0.0,9.0839,9.1171,9.0671,8.965,8.8303,8.7437,8.5788,8.3839,8.3466,8.2839,8.2186,8.2186,8.2186,8.2113,8.1672,8.1305,8.0938,8.0461,8.0057,7.98,7.98,7.98,7.9874,8.0241,8.0645,8.1085,8.1452,8.1856,8.2186,8.2186,8.2186,8.2186,8.2186,8.2186,8.2039,8.1599,8.1525,8.1232,8.0461,7.9947,7.936,7.8516,7.7781,7.7273,7.7273,7.8075,7.8589,7.8589,7.9653,8.0314,8.0314,8.0645,8.0681,8.0351,8.0314,8.0167,7.98,7.98,7.9947,8.0314,8.0791,8.1195,8.1525,8.2003,8.2186,7.9577,8.0353,8.0991,8.1077,8.1093,8.0862,8.0015,7.9823,7.9823,7.9823,7.9823,8.0285,8.1862,8.3016,8.5055,8.894,9.0479,9.2364,9.5672,9.6134,9.6172,9.6288,9.572,9.5025,9.4184,9.35,9.2761,9.1839,9.1803,9.1803,9.1803,9.1803,9.173,9.1657,9.1657,9.0959,8.9565,8.8096,8.7692,8.8353,8.8355,8.9019,9.014,9.022,9.0606,9.121,9.121,0.0,9.121,9.121,8.9937,8.8002,8.7888,8.6147,8.3658,8.3546,8.2987,8.2311,8.2311,8.2247,8.2186,8.2186,8.1746,8.1158,8.1158,8.0681,8.0094,8.0094,8.0094,8.0277,8.0975,8.1158,8.1342,8.2039,8.2186,8.2186,8.2186,8.2186,8.2186,8.2186,8.2186,8.2186,8.2186,8.2186,8.1966,8.1269,8.1085,8.0755,8.0021,7.8589,7.7604,7.7604,7.8405,7.8919,7.8919,8.0314,8.1158,8.1158,8.1819,8.1893,8.1195,8.1158,8.0828,8.0131,8.0094,8.0498,8.1342,8.1342,8.1672,8.237,8.237,8.2296,7.9614,8.0008,8.0427,8.0959,8.1093,8.0862,8.0015,7.9823,7.9823,7.9823,7.9823,8.0131,8.1131,8.317,8.5363,8.7478,8.9748,9.2133,9.4826,9.5211,9.548,9.6211,9.6213,9.5576,9.4238,9.3991,0.0,0.0,9.1803,9.1803,9.1803,9.1803,9.151,9.0849,9.0812,9.0665,9.0408,8.9491,8.9015,8.9197,8.9683,8.9706,8.9336,9.0482,9.1082,9.121,9.121,0.0,9.121,9.121,9.0609,8.9621,8.8972,8.7596,8.5924,8.5259,8.4159,8.3024,8.3024,8.2678,8.2186,8.2186,8.2113,8.2003,8.2003,8.1893,8.1782,8.1782,8.1782,8.1819,8.1966,8.2003,8.2039,8.215,8.2186,8.2186,8.2186,8.2186,8.2186,8.2186,8.2186,8.2186,8.2186,8.2186,8.215,8.2003,8.1415,8.0938,8.0828,7.9947,7.936,7.936,8.0094,8.0571,8.0571,8.1452,8.2003,8.2003,8.2113,8.215,8.2003,8.2003,8.1929,8.1782,8.1782,8.2186,8.2994,8.2994,8.3067,8.3214,8.3214,8.2847,8.0224,8.0302,8.0277,8.0943,8.1093,8.0746,7.9438,7.9131,7.9131,7.9131,7.9131,7.9515,8.0862,8.2439,8.4247,8.6363,8.8132,9.0402,9.3826,9.4326,9.4826,9.6134,9.6288,9.572,9.4238,9.4102,9.347,9.1912,9.1803,9.1803,9.1803,9.1803,9.162,9.1253,9.0812,9.0592,9.0592,8.9821,8.9382,8.9417,8.9641,8.9601,8.9217,8.9849,9.0111,9.0133,9.0467,0.0,9.0646,9.1026,9.049,8.9324,8.8941,8.7569,8.5751,8.5372,8.4394,8.3189,8.3189,8.2763,8.2186,8.2186,8.2186,8.2186,8.2186,8.2186,8.2186,8.2186,8.2186,8.2186,8.2186,8.2186,8.2186,8.2186,8.2186,8.2186,8.2186,8.2186,8.2186,8.2186,8.2186,8.2186,8.2186,8.2186,8.2186,8.2186,8.1856,8.1636,8.1636,8.1269,8.0718,7.9874,8.0534,8.1012,8.1012,8.1746,8.2186,8.2186,8.2186,8.2186,8.2186,8.259,8.281,8.281,8.3251,8.3654,8.4022,8.4022,8.4022,8.4022,8.4022,8.3838,8.0535,8.0427,8.0105,8.0888,8.1093,8.0631,7.89,7.8631,7.8707,7.8515,7.8631,7.9246,8.0823,8.1747,8.3016,8.5209,8.644,8.8474,9.2426,9.3243,9.4093,9.5875,9.6189,9.572,9.4238,9.4102,0.0,9.1912,9.1803,9.1803,9.1803,9.1803,9.1803,9.1803,9.1179,9.0849,9.0849,9.0225,8.9748,8.9417,8.9674,8.9529,8.9069,8.9263,8.9272,8.9148,8.9809,0.0,0.0,9.0895,9.0325,8.894,8.8748,8.7423,8.555,8.5238,8.4382,8.3415,8.3433,8.2911,8.2223,8.2406,8.2333,8.2186,8.2186,8.2333,8.2406,8.226,8.2333,8.2406,8.2223,8.2186,8.2186,8.2186,8.2186,8.2186,8.2186,8.2186,8.2186,8.2186,8.2186,8.2186,8.2186,8.2186,8.2186,8.2186,8.2186,8.2186,8.2186,8.2186,8.1782,8.0681,8.0975,8.1269,8.1269,8.1819,8.226,8.2443,8.2443,8.2517,8.27,8.3324,8.3654,8.3654,8.4278,8.4682,8.4866,8.4866,8.4866,8.4866,8.4866,8.4756,7.9798,7.9765,7.9594,8.0805,8.1093,8.0631,7.89,7.9092,7.9477,7.8669,7.9131,7.9977,8.0939,8.1747,8.2631,8.367,8.517,8.724,9.0196,9.1769,9.329,9.5158,9.5919,9.572,9.4238,9.4102,9.347,9.1912,9.1803,0.0,9.1803,9.1803,9.1803,9.1803,9.173,9.1693,9.1693,9.162,9.0849,8.9417,9.0823,9.0348,8.8286,8.9563,8.9774,8.9148,8.9809,0.0,0.0,9.0895,9.0633,8.971,8.8979,8.8077,8.703,8.5608,8.4673,8.4129,8.4274,8.3362,8.2333,8.3067,8.281,8.2186,8.2186,8.27,8.3141,8.2406,8.2737,8.3141,8.237,8.2186,8.2186,8.2186,8.2186,8.2186,8.2186,8.2186,8.2186,8.2186,8.2186,8.2186,8.2186,8.2186,8.2186,8.2186,8.2186,8.2186,8.2186,8.2186,8.2406,8.303,8.248,8.2076,8.2076,8.215,8.2517,8.3251,8.3287,8.3618,8.4352,8.4462,8.4499,8.4499,8.4572,8.4976,8.5673,8.5673,8.5673,8.5673,8.5673,8.5306,7.8798,7.9284,7.9491,8.0805,8.1093,8.0631,7.89,7.9169,7.9554,7.8669,7.9208,8.0092,8.0939,8.1362,8.1862,8.267,8.3362,8.4927,8.8105,8.9057,9.0663,9.3952,9.4548,9.4731,9.4752,0.0,9.347,9.1912,9.1803,0.0,9.1803,9.1803,9.1803,9.1803,9.1803,9.1803,9.1803,9.1803,9.1473,9.0849,9.0504,8.979,8.8901,8.8488,8.8127,8.7886,8.9005,0.0,0.0,9.0493,9.0402,8.9171,8.9363,8.8594,8.7385,8.7307,8.6278,8.4997,8.5542,8.4823,8.3691,8.4022,8.3911,8.3471,8.248,8.2406,8.2627,8.2296,8.2443,8.259,8.226,8.2186,8.2186,8.2186,8.2186,8.2186,8.2186,8.2186,8.2186,8.2186,8.2186,8.2186,8.2186,8.2186,8.2186,8.2186,8.2186,8.2186,8.2186,8.2186,8.2517,8.3324,8.3104,8.3141,8.3618,8.3654,8.3765,8.4095,8.4132,8.4278,8.4609,8.5086,8.5306,8.5306,8.582,8.6187,8.6518,8.6518,8.6518,8.6518,8.6518,8.6371,7.7903,7.899,7.9744,8.0838,8.1093,8.0631,7.89,7.9361,7.9862,7.8707,7.94,8.0362,8.0977,8.1093,8.1285,8.1862,8.2362,8.3641,8.6347,8.733,8.8991,9.2283,9.2836,9.3352,9.4319,9.4042,9.3319,9.2264,9.1947,0.0,9.1803,9.1803,9.1803,9.1803,9.1803,9.1803,9.1803,9.1803,9.1546,9.1069,9.0188,8.9381,8.8683,8.7766,8.7252,8.7061,8.8204,0.0,0.0,8.9974,8.9979,8.8786,8.9594,8.8902,8.7462,8.8147,8.7246,8.5796,8.6477,8.5914,8.4899,8.4966,8.4646,8.4022,8.292,8.27,8.281,8.2333,8.2186,8.2186,8.2186,8.2186,8.2186,8.2186,8.2186,8.2186,8.2186,8.2186,8.2186,8.2186,8.2186,8.226,8.2517,8.2553,8.2553,8.2553,8.2553,8.248,8.2223,8.2406,8.2847,8.3691,8.3985,8.4242,8.4572,8.4609,8.4682,8.4939,8.4939,8.5049,8.5306,8.5857,8.6151,8.6151,8.6701,8.6995,8.6995,8.6995,8.6995,8.6995,8.6995,8.6995,7.7226,7.8847,8.0239,8.0943,8.1093,8.0631,7.89,7.9823,8.0592,7.8861,7.9862,8.1093,8.1093,8.1093,8.1093,8.1093,8.2477,8.398,8.5074,8.7224,8.9106,9.0197,9.0859,9.1586,9.2525,9.2872,9.2987,9.2987,9.2227,0.0,9.1803,9.1803,9.1803,9.1803,9.1803,9.1803,9.1803,9.1803,9.0996,8.9419,9.0225,8.9344,8.7068,8.7839,8.7766,0.0,0.0,0.0,0.0,8.9323,8.944,8.8786,8.9594,8.8902,8.7427,8.7635,8.7163,8.6437,8.6789,8.6311,8.5604,8.5754,8.4719,8.3434,8.3398,8.3948,8.4242,8.2663,8.2186,8.2186,8.2186,8.2186,8.2186,8.2186,8.2186,8.2186,8.2186,8.2186,8.2186,8.2186,8.2186,8.2443,8.3251,8.3398,8.3398,8.3398,8.3398,8.3104,8.2296,8.292,8.3728,8.4499,8.5306,8.5453,8.4682,8.4609,8.4939,8.5747,8.5783,8.6151,8.6958,8.6995,8.6995,8.6995,8.6995,8.6995,8.6995,8.6995,8.6995,8.6995,8.6995,8.6995,7.5399,7.7112,7.8428,7.8688,7.878,7.8499,7.7492,7.8485,7.943,7.8877,7.9999,8.1093,8.1093,8.1093,8.1285,8.1823,8.2362,8.3256,8.4781,8.6114,8.7682,8.9793,9.2259,9.3928,9.4319,0.0,9.4292,9.3793,9.3045,0.0,9.3349,9.2891,9.2365,9.184,9.1803,9.1803,9.1803,9.1803,9.1253,9.0225,8.9931,8.9087,8.7802,8.7509,8.7252,0.0,0.0,0.0,0.0,8.9093,8.944,8.8825,9.0248,8.9748,8.8423,8.9665,8.8882,8.7264,8.7499,8.708,8.6311,8.5312,8.4646,8.4132,8.3581,8.3214,8.2847,8.2333,8.2186,8.2186,8.2186,8.2186,8.2186,8.2186,8.2186,8.2311,8.2793,8.2876,8.2876,8.2876,8.3328,8.3627,8.346,8.3398,8.3398,8.3398,8.3398,8.3324,8.3067,8.3728,8.4535,8.5306,8.5637,8.593,8.6224,8.6261,8.6371,8.6591,8.6628,8.6481,8.6187,8.6187,8.6187,8.6187,8.6187,8.6444,8.6995,8.6995,8.6995,8.7031,8.8133,8.8353,7.4399,7.6195,7.7573,7.7934,7.8241,7.8323,7.7532,7.8598,7.9619,7.9295,8.0208,8.1093,8.1093,8.1093,8.1362,8.217,8.2285,8.2901,8.467,8.5593,8.694,8.9171,9.2172,9.41,0.0,9.479,9.5025,9.4528,0.0,0.0,9.4075,9.3648,9.3022,9.2216,9.2215,9.1941,9.1363,9.1646,9.1094,8.9674,8.9472,8.8775,8.7729,8.7252,8.6995,0.0,0.0,0.0,0.0,8.8395,8.8897,8.8863,9.0556,9.0171,8.8808,8.9936,8.8977,8.7149,8.7059,8.6752,8.6199,8.4981,8.4389,8.4022,8.3214,8.259,8.2186,8.2186,8.2186,8.2186,8.2186,8.2186,8.2284,8.2528,8.2554,8.2763,8.3433,8.3597,8.3672,8.3971,8.4246,8.4466,8.468,8.451,8.4315,8.4315,8.4315,8.4205,8.3911,8.4572,8.5233,8.5747,8.6077,8.6444,8.6958,8.6995,8.6995,8.6995,8.6995,8.6775,8.6261,8.6261,8.6261,8.6261,8.6261,8.6518,8.6995,8.7325,8.7472,8.7472,8.85,8.8536,0.0,7.5784,7.7269,7.8031,7.8861,7.9252,7.8436,7.962,0.0,7.9921,8.0469,8.1093,8.1093,8.1093,8.1362,8.217,8.2285,8.2901,8.467,8.5709,8.694,8.8748,9.1056,9.2556,9.2672,9.4185,9.5219,9.5257,0.0,0.0,9.4265,9.4211,9.3806,9.2911,9.2923,9.2249,9.0696,9.1301,9.0522,8.8274,8.8933,8.8461,8.6995,8.6995,8.6995,0.0,0.0,0.0,0.0,8.7436,8.8155,8.8867,9.0538,9.0192,8.8738,8.8859,8.7828,8.6317,8.5739,8.5528,8.5381,8.4686,8.3911,8.3177,8.2443,8.2186,8.2186,8.2186,8.2186,8.2219,8.2284,8.2284,8.2434,8.3103,8.3275,8.3461,8.4129,8.4252,8.4479,8.5334,8.5022,8.5122,8.6698,8.6392,8.5949,8.5949,8.5949,8.5692,8.4956,8.5478,8.5959,8.5959,8.6589,8.6995,8.6995,8.6995,8.6995,8.6995,8.6995,8.6995,8.6921,8.6921,8.6921,8.6921,8.6995,8.6995,8.6995,8.7876,8.8243,8.8133,8.828,8.7949,7.2462,0.0,7.5326,7.5266,7.5904,7.6393,0.0,7.7307,7.8845,7.928,8.0274,8.1093,8.1093,8.1093,8.1362,8.217,8.2285,8.2901,8.467,8.6748,8.894,9.1325,9.2133,9.2979,9.4287,9.481,9.531,0.0,0.0,9.5189,9.5741,9.5273,9.4534,9.3659,9.3142,9.2344,9.1288,9.0944,9.0217,8.9024,8.8642,8.7936,8.6995,8.6995,8.6664,0.0,0.0,0.0,8.5994,8.7838,8.8693,8.9011,9.0605,9.0244,8.8874,8.8905,8.7908,8.6379,8.5096,8.4671,8.448,8.3176,8.2627,8.2443,8.226,8.2186,8.2186,8.2186,8.2186,8.2311,8.2853,8.2965,8.3132,8.3798,8.3953,8.4129,8.4762,8.4872,8.516,8.5997,8.651,8.7014,8.7558,8.7534,8.7397,8.7397,8.7397,8.7322,8.7134,8.7369,8.757,8.757,8.7217,8.6995,8.6995,8.6995,8.6995,8.6995,8.6995,8.6738,8.6114,8.6077,8.6077,8.6077,8.6701,8.6995,8.6995,8.8426,8.85,8.7325,8.9197,8.9601,7.2042,7.3306,7.4363,7.4599,7.5372,7.5999,7.5779,7.6916,7.8127,7.858,7.972,8.0626,8.0626,8.0888,8.1362,8.217,8.1977,8.2631,8.5093,8.7325,8.9479,9.1633,9.2249,9.2864,0.0,9.4172,9.4749,0.0,0.0,9.546,9.6269,9.5902,9.5125,9.3861,9.3121,9.2023,9.0492,9.0116,8.9379,8.8215,8.8187,8.7771,8.6995,8.6995,8.6554,0.0,0.0,0.0,8.5677,8.6888,8.7787,8.853,8.9746,8.9489,8.8308,8.7649,8.6616,8.5375,8.3923,8.3362,8.3189,8.2017,8.1636,8.1636,8.1636,8.1379,8.1158,8.1562,8.1887,8.2177,8.2582,8.3171,8.3937,8.4982,8.4894,8.4899,8.5953,8.5819,8.5934,8.7217,8.7536,8.7873,8.8734,8.8633,8.8468,8.8468,8.8468,8.8468,8.8468,8.827,8.822,8.8532,8.7923,8.7614,8.7917,8.7948,8.783,8.7521,8.7489,8.7304,8.686,8.6535,8.6518,8.6885,8.7325,8.7912,8.8647,8.9528,8.9307,8.8169,8.9821,8.9968,7.2086,7.3269,7.4219,7.4884,7.5885,7.6714,7.662,7.733,7.8064,7.8064,7.9064,7.9989,8.0067,8.0535,8.1244,8.2154,8.2054,8.2901,8.5901,8.7786,8.944,9.1018,9.1864,0.0,9.2479,9.321,9.4057,0.0,0.0,9.5518,9.6249,9.6172,9.5365,9.3749,9.2835,9.1345,8.9295,8.9174,8.8441,8.7163,8.7715,8.7618,8.6995,8.6995,8.6481,8.56,0.0,0.0,8.5477,8.5842,8.6696,8.792,8.8768,8.8591,8.7652,8.6171,8.5179,8.442,8.2886,8.2296,8.2076,8.1415,8.1195,8.1195,8.1195,8.0608,8.0162,8.0914,8.1578,8.2053,8.2414,8.3401,8.4679,8.6036,8.5777,8.559,8.6932,8.6632,8.6632,8.8363,8.8194,8.8298,8.9978,8.9786,8.9426,8.9426,8.9426,8.9426,8.9426,8.8829,8.8645,8.9161,8.8636,8.8475,8.9069,8.9187,8.9016,8.8417,8.8309,8.8249,8.8249,8.7646,8.7697,8.8508,8.8409,8.9113,9.0585,9.059,9.0188,8.9419,9.0225,8.9858,7.1706,7.3605,7.5297,7.4798,7.5806,7.6803,7.6298,7.7255,7.8245,7.8245,7.8814,7.9491,7.9989,8.0182,8.0675,8.2067,8.4016,8.5786,8.7017,8.8671,9.0094,9.1095,0.0,9.171,9.2441,9.321,0.0,0.0,0.0,9.6172,9.6288,9.5595,9.4749,9.371,9.1789,9.0219,8.9152,8.8583,8.8195,8.7929,8.7427,8.7132,8.6995,8.6995,8.6187,8.4866,0.0,8.5925,8.4911,8.6901,8.7832,8.8122,8.8845,8.8671,8.7847,8.6191,8.5596,8.5327,8.3761,8.2774,8.2186,8.2039,8.2003,8.2003,8.2003,8.1452,8.0987,8.1652,8.1912,8.2414,8.4181,8.4779,8.5179,8.5946,8.6031,8.6009,8.6269,8.6209,8.6632,8.8363,8.8619,8.9066,9.0757,9.0952,9.0876,9.0876,9.0876,9.0876,9.0876,9.0241,8.9832,8.9923,8.9377,8.899,8.9095,8.9645,8.9901,8.9809,8.9238,8.8963,8.8963,8.8856,8.9177,9.007,8.9481,8.9596,9.052,9.0576,9.0188,8.9419,9.0225,9.0482,7.1666,7.3241,7.4746,7.5291,7.663,7.7688,7.6925,7.7282,7.7768,7.7768,7.8272,7.8927,7.9491,7.9888,8.0754,8.2682,8.4747,8.6555,8.7902,8.9133,9.021,0.0,0.0,9.1364,9.1748,0.0,0.0,0.0,0.0,0.0,9.5557,9.4749,9.3716,9.2503,9.1125,8.983,8.856,8.7415,8.7082,8.7489,8.7163,8.6995,8.6995,8.6995,8.6371,8.527,0.0,8.593,8.534,8.6402,8.7082,8.7521,8.7861,8.7767,8.7304,8.5673,8.4825,8.4352,8.3177,8.2517,8.2113,8.1672,8.1562,8.1562,8.1562,8.1255,8.1177,8.2746,8.2857,8.2711,8.3657,8.4508,8.5296,8.6088,8.5896,8.5779,8.662,8.6786,8.7171,8.844,8.9056,8.9748,9.0979,9.121,9.121,9.121,9.121,9.121,9.121,9.0566,9.0224,9.0646,9.0051,8.9786,9.0198,9.0526,9.0508,9.0138,8.9809,8.95,8.9084,8.9122,8.9539,9.0434,8.9705,8.9936,9.1219,9.0806,9.0408,9.0078,9.0886,9.1033,7.1787,7.3213,7.4551,7.5799,7.7194,7.8222,7.7965,7.7745,7.7598,7.7598,7.8005,7.8559,7.9095,8.0131,8.1571,8.3583,8.5478,8.7248,8.8748,8.9863,9.0748,9.1441,9.1518,9.1441,9.121,0.0,0.0,0.0,0.0,0.0,9.4657,9.3736,9.2541,9.1195,9.0297,8.9252,8.8107,8.6398,8.6004,8.6995,8.6811,8.6811,8.6995,8.6995,8.6554,8.5783,8.6004,8.5967,8.582,8.6004,8.6444,8.6995,8.6995,8.6775,8.6334,8.527,8.4132,8.3067,8.2627,8.237,8.2113,8.1489,8.1269,8.1269,8.1269,8.1194,8.154,8.3434,8.359,8.327,8.3375,8.4269,8.5232,8.5774,8.5495,8.5413,8.6619,8.6987,8.7401,8.8479,8.921,8.9979,9.1018,9.121,9.121,9.121,9.121,9.121,9.121,9.0723,9.0586,9.1136,9.0665,9.0586,9.1136,9.121,9.0971,9.0367,9.0346,9.0116,8.9597,8.9597,9.0083,9.1217,9.0296,9.0625,9.2299,9.1341,9.0875,9.0875,9.1508,9.1473,7.2162,7.414,7.5946,7.6056,7.6754,7.7781,7.9286,7.9029,7.8516,7.8516,7.8541,7.8721,7.9137,8.148,8.3676,8.467,8.6901,8.8825,8.971,0.0,9.2326,9.2402,9.2402,9.2095,0.0,0.0,0.0,0.0,0.0,0.0,9.3928,9.2455,9.121,9.0497,8.8909,8.8087,8.8107,8.5844,8.5453,8.6995,8.6224,8.6261,8.6995,8.6995,8.6554,8.582,8.6591,8.6481,8.5857,8.6628,8.6958,8.6995,8.6995,8.6114,8.4866,8.549,8.4242,8.237,8.3067,8.281,8.2186,8.2113,8.2113,8.2113,8.2113,8.2141,8.2255,8.3074,8.3656,8.4249,8.4817,8.5003,8.4995,8.4472,8.4734,8.5121,8.5238,8.5741,8.6709,8.8363,8.8748,8.9286,9.0902,9.121,9.121,9.121,9.121,9.121,9.121,9.1136,9.1136,9.121,9.1136,9.1136,9.121,9.121,9.1192,9.1118,9.1118,9.11,9.1064,9.1064,9.1814,9.3447,9.2002,9.207,9.3735,9.233,9.1631,9.1636,9.1755,9.1767,7.2222,7.3891,7.5469,7.5983,7.6717,7.7745,7.9396,7.9543,7.947,7.9984,7.969,7.9482,7.9878,8.1659,8.3423,8.4698,8.7055,8.9171,9.0517,9.1748,9.2479,9.2479,9.2479,0.0,0.0,0.0,0.0,0.0,0.0,0.0,9.171,9.0624,8.9426,8.827,8.7604,8.6855,8.5946,8.4555,8.4682,8.6261,8.593,8.6224,8.6995,8.6995,8.6848,8.6554,8.6885,8.6848,8.6591,8.6885,8.6995,8.6958,8.6444,8.5894,8.527,8.4572,8.3728,8.292,8.2737,8.2443,8.2186,8.2186,8.2186,8.2186,8.2186,8.2497,8.2846,8.3132,8.3667,8.4252,8.449,8.4806,8.502,8.4806,8.4915,8.5202,8.5645,8.601,8.6776,8.8389,8.8747,8.9324,9.0926,9.121,9.121,9.121,9.121,9.121,9.121,9.121,9.121,9.121,9.121,9.121,9.121,9.121,9.121,9.121,9.121,9.121,9.121,9.171,9.2334,9.2995,9.2477,9.2831,9.4009,9.2946,9.2663,9.3197,9.3199,9.3227,7.2679,7.4037,7.5432,7.5946,7.69,7.8075,7.947,7.98,7.9947,8.0498,8.013,7.9999,8.1018,8.2,8.3372,8.5373,8.7594,8.9594,9.1018,9.2172,9.2787,9.2518,9.2479,0.0,0.0,0.0,0.0,0.0,0.0,0.0,0.0,8.9027,8.7867,8.658,8.6273,8.5621,8.4609,8.3801,8.4095,8.5416,8.5416,8.5967,8.6995,8.6995,8.6995,8.6995,8.6995,8.6995,8.6995,8.6995,8.6848,8.6591,8.6004,8.549,8.4903,8.3838,8.3251,8.2957,8.237,8.2186,8.2186,8.2186,8.2186,8.2186,8.2186,8.2528,8.2876,8.2876,8.335,8.3876,8.3876,8.4372,8.4806,8.4806,8.4806,8.4915,8.5417,8.5807,8.6459,8.777,8.8492,8.9311,9.0609,9.1064,9.121,9.121,9.121,9.121,9.121,9.121,9.121,9.121,9.121,9.121,9.121,9.121,9.121,9.121,9.1479,9.1595,9.1595,9.2172,9.2776,9.3336,9.3107,9.3448,9.4375,9.3568,9.3466,9.4045,9.4098,9.4102,7.345,7.4845,7.6093,7.6093,7.7341,7.8809,7.958,7.98,7.9832,7.9832,7.9668,8.0202,8.2521,8.2819,8.3754,8.6872,8.8786,9.021,9.1095,9.2633,9.3403,9.2595,0.0,0.0,0.0,0.0,0.0,0.0,0.0,0.0,0.0,8.7764,8.6549,8.5817,8.4855,8.4441,8.4572,8.3801,8.3801,8.4609,8.4609,8.5453,8.6995,8.6995,8.6995,8.6995,8.6995,8.6995,8.6995,8.6995,8.6518,8.5783,8.5783,8.4829,8.3434,8.3434,8.292,8.2186,8.2186,8.2186,8.2186,8.2186,8.2186,8.2186,8.2186,8.2186,8.2186,8.2186,8.2678,8.3189,8.3189,8.3704,8.4179,8.4203,8.4203,8.4179,8.4216,8.4833,8.5625,8.6443,8.7823,8.9141,8.9942,9.0704,9.1192,9.1192,9.1192,9.121,9.121,9.121,9.121,9.121,9.121,9.121,9.121,9.121,9.121,9.121,9.2018,9.2479,9.2479,9.2518,9.3287,9.496,9.4134,9.4134,9.5018,9.4292,9.393,9.3945,9.4071,9.413,7.2789,7.4037,7.5285,7.5285,7.6937,7.8662,7.8883,7.9837,8.0945,8.1971,8.1706,8.1896,8.4044,8.3971,8.4366,8.6987,8.8325,8.9556,9.1018,9.2172,9.2749,9.2518,0.0,0.0,0.0,0.0,0.0,0.0,0.0,0.0,0.0,8.6664,8.5791,8.4976,8.4138,8.3733,8.3765,8.2957,8.3251,8.4609,8.4022,8.4609,8.6151,8.6151,8.6481,8.6995,8.6995,8.6995,8.6995,8.6995,8.6885,8.6591,8.6004,8.549,8.5013,8.4462,8.3728,8.303,8.303,8.2663,8.2186,8.2186,8.2186,8.2186,8.2186,8.2186,8.2186,8.2186,8.2343,8.2585,8.3082,8.3359,8.3624,8.408,8.4203,8.4203,8.4179,8.4024,8.44,8.6228,8.6614,8.7163,8.9087,8.9573,8.9893,9.0346,9.0447,9.0606,9.1118,9.121,9.121,9.121,9.121,9.121,9.121,9.121,9.121,9.121,9.2018,9.2479,9.2479,9.3018,9.3864,9.498,9.4749,9.5018,9.5903,9.5675,9.5597,9.5597,9.5626,9.5657,7.3702,7.5013,7.6392,7.6958,7.8274,7.9614,8.0341,8.0971,8.1851,8.3363,8.3256,8.3439,8.5257,8.5217,8.5685,8.8025,8.9402,9.0441,9.1095,9.221,9.271,0.0,0.0,0.0,0.0,0.0,0.0,0.0,0.0,0.0,0.0,8.593,8.5086,8.4609,8.3508,8.292,8.292,8.2774,8.3177,8.4132,8.3654,8.4095,8.5306,8.5637,8.6224,8.6995,8.6995,8.6995,8.6995,8.6995,8.6628,8.6004,8.5527,8.4939,8.4315,8.3838,8.3324,8.292,8.292,8.2627,8.2186,8.2186,8.2186,8.2186,8.2186,8.2186,8.2186,8.2186,8.2186,8.2279,8.2708,8.2793,8.3053,8.3979,8.3979,8.3798,8.3798,8.3536,8.3685,8.5048,8.5467,8.6159,8.7923,8.8447,8.886,8.9569,8.9923,9.0346,9.11,9.121,9.121,9.121,9.121,9.121,9.121,9.1518,9.171,9.171,9.2826,9.348,9.348,9.3941,9.4441,9.498,9.5326,9.5788,9.6288,9.6288,9.6288,9.6288,9.6288,9.6288,7.5388,7.7036,7.8723,8.0085,8.0718,8.1474,8.3271,8.3061,8.2902,8.431,8.4576,8.4968,8.6455,8.6711,8.7427,8.9678,9.1364,9.2095,9.1325,9.2595,9.2979,0.0,0.0,0.0,0.0,0.0,0.0,0.0,0.0,0.0,0.0,8.5563,8.4682,8.4609,8.3104,8.2333,8.2406,8.3067,8.3471,8.3618,8.3471,8.3838,8.4609,8.5343,8.6151,8.6995,8.6995,8.6995,8.6995,8.6995,8.6114,8.4719,8.4719,8.3765,8.2406,8.2406,8.237,8.2296,8.2296,8.226,8.2186,8.2186,8.2186,8.2186,8.2186,8.2186,8.2186,8.2186,8.2186,8.2186,8.2186,8.2186,8.2528,8.3757,8.3543,8.3103,8.3103,8.3207,8.3324,8.3398,8.4558,8.5783,8.6638,8.7399,8.8097,8.8903,8.9597,9.0262,9.0895,9.1008,9.1008,9.1008,9.1008,9.1008,9.1008,9.1738,9.2217,9.2292,9.3848,9.4789,9.4749,9.4903,9.5018,9.5095,9.5826,9.6211,9.6288,9.6288,9.6288,9.6288,9.6288,9.6288,7.4446,7.6827,7.9157,7.9485,8.1527,8.3878,8.5537,8.6203,8.6388,8.619,8.6559,8.7392,8.8901,8.8646,8.8836,9.0615,9.1248,9.1402,9.1248,9.2095,0.0,0.0,0.0,0.0,0.0,0.0,0.0,0.0,0.0,0.0,8.7031,8.6077,8.5233,8.4609,8.3654,8.3471,8.4095,8.3654,8.4022,0.0,8.4022,8.3838,8.4609,8.4792,8.5637,8.6995,8.6995,8.6995,8.6995,8.6995,8.6407,8.5527,8.5527,8.4939,8.4095,8.4095,8.3691,8.3141,8.3141,8.2737,8.2186,8.2186,8.2186,8.2186,8.2186,8.2186,8.2186,8.2186,8.2186,8.2186,8.2186,8.2186,8.2284,8.2554,8.2528,8.2439,8.2439,8.2426,8.2627,8.3287,8.4187,8.5091,8.5902,8.6693,8.746,8.8182,8.8883,8.9377,8.9525,8.9549,8.9549,8.9549,8.9549,8.9549,8.9549,8.9701,9.0067,9.0572,9.2219,9.3154,9.3038,9.4287,9.5326,9.6019,9.5518,9.5634,9.6288,9.6288,9.6288,9.6288,9.6288,9.6288,7.4926,7.7176,7.9377,8.0553,8.3079,8.5492,8.6405,8.7467,8.826,8.8264,8.8536,8.8998,8.9773,8.9902,9.0325,9.1595,9.2133,9.2249,9.1864,0.0,0.0,0.0,0.0,0.0,0.0,0.0,0.0,0.0,0.0,8.6995,8.6995,8.6224,8.56,8.5196,8.4389,8.4168,8.4609,8.4168,8.4609,8.5783,8.4572,8.4389,8.5159,8.5159,8.5857,8.6995,8.6591,8.6444,8.6407,8.6004,8.56,8.5196,8.4792,8.4389,8.3985,8.3581,8.3177,8.2847,8.2847,8.2553,8.2186,8.2186,8.2186,8.2186,8.2186,8.2186,8.2186,8.2186,8.2186,8.2186,8.2186,8.2186,8.2186,8.2186,8.2186,8.2186,8.2186,8.2186,8.2333,8.2737,8.3471,8.4278,8.5086,8.6224,8.7265,8.7985,8.8426,8.8719,8.9069,8.9122,8.9122,8.9122,8.9122,8.9122,8.9122,8.9461,9.0184,9.1277,9.2541,9.3566,9.4308,9.5172,9.5634,9.5672,9.5634,9.5865,9.6288,9.6288,9.6288,9.6288,9.6288,9.6288,7.5358,7.7431,7.9685,8.234,8.4689,8.6438,8.6866,8.8074,8.9294,9.0114,9.0187,9.0171,9.0325,9.0825,9.1518,9.2556,9.3249,9.348,9.2787,0.0,0.0,0.0,0.0,0.0,0.0,0.0,0.0,0.0,0.0,8.6995,8.6995,8.6371,8.593,8.5783,8.5159,8.4792,8.4792,8.4792,8.5196,8.6004,8.5196,8.5159,8.5783,8.5783,8.6151,8.6775,8.6077,8.571,8.5527,8.4866,8.4535,8.4352,8.3654,8.3324,8.3104,8.2443,8.2186,8.2186,8.2186,8.2186,8.2186,8.2186,8.2186,8.2186,8.2186,8.2186,8.2186,8.2186,8.2186,8.2186,8.2186,8.2186,8.2186,8.2186,8.2186,8.2219,8.2343,8.2375,8.2375,8.2375,8.3055,8.3911,8.4866,8.6114,8.7197,8.7804,8.7929,8.81,8.8663,8.8746,8.8746,8.8746,8.8746,8.8746,8.8746,8.9413,9.0491,9.2043,9.2984,9.4239,9.5829,9.6155,9.5942,9.5249,9.5942,9.6288,9.6288,9.6288,9.6288,9.6288,9.6288,9.6288,7.3668,7.6732,8.0459,8.3764,8.5378,8.653,8.8073,8.9107,8.9988,9.0872,9.1041,9.1248,9.2018,9.1633,9.171,9.3287,9.3633,9.3672,9.3557,0.0,0.0,0.0,0.0,0.0,0.0,0.0,0.0,0.0,8.7399,8.6995,8.6995,8.6921,8.6518,8.582,8.571,8.5637,8.5637,8.5637,8.604,8.6848,8.6004,8.571,8.5783,8.5783,8.5857,8.593,8.5857,8.538,8.4756,8.4646,8.4205,8.3581,8.3471,8.2994,8.2333,8.2223,8.2186,8.2186,8.2186,8.2186,8.2186,8.2186,8.2186,8.2186,8.2186,8.2186,8.2186,8.2186,8.2186,8.2186,8.2186,8.2186,8.2186,8.2186,8.2186,8.2375,8.2935,8.3082,8.3082,8.3082,8.3804,8.4939,8.6444,8.6885,8.7029,8.7095,8.7166,8.7163,8.7261,8.7261,8.7261,8.7261,8.7261,8.7261,8.7261,8.7405,8.81,8.9646,9.111,9.2594,9.4173,9.5539,9.6249,9.6134,9.6249,9.6288,9.6288,9.6288,9.6288,9.6288,9.6288,9.6288,7.4105,7.7284,8.0516,8.3439,8.5132,8.644,8.7671,8.8632,8.9479,9.0287,9.0479,9.0748,9.1595,9.1479,9.1748,9.3441,9.371,9.3864,9.4364,0.0,0.0,0.0,0.0,0.0,0.0,0.0,0.0,0.0,8.8133,8.7655,8.7655,8.7252,8.6848,8.6481,8.6481,8.6481,8.6481,8.6481,8.6664,8.6995,8.6628,8.6481,8.6481,8.6481,8.6224,8.5747,8.5306,8.4682,8.3911,8.3434,8.3324,8.3361,8.292,8.281,8.281,8.237,8.2186,8.2186,8.2186,8.2186,8.2186,8.2186,8.2186,8.2186,8.2186,8.2186,8.2186,8.2186,8.2186,8.2186,8.2186,8.2186,8.2279,8.2678,8.2465,8.2497,8.3543,8.3461,8.345,8.4381,8.4866,8.5567,8.677,8.6628,8.6481,8.6921,8.6995,8.6995,8.6995,8.6995,8.6995,8.6995,8.6995,8.6995,8.6995,8.7435,8.8361,8.9864,9.1414,9.2973,9.4556,9.571,9.6288,9.6288,9.6288,9.6288,9.6288,9.6288,9.6288,9.6288,9.6288,9.6288,7.3927,7.6746,7.9169,8.1939,8.3747,8.5209,8.6748,8.7555,8.8325,8.9402,8.9594,8.9863,9.071,9.1056,9.1825,9.371,9.3826,9.402,0.0,0.0,0.0,0.0,0.0,0.0,0.0,0.0,0.0,0.0,8.8977,8.8426,8.8206,8.7619,8.7215,8.7031,8.6995,8.6995,8.6995,8.6995,8.6995,8.6995,8.6811,8.6811,8.6995,8.6811,8.6371,8.5747,8.4939,8.4132,8.3361,8.2517,8.2553,8.303,8.2443,8.2553,8.303,8.2406,8.2186,8.2186,8.2186,8.2186,8.2186,8.2186,8.2186,8.2186,8.2186,8.2186,8.2186,8.2186,8.2186,8.2186,8.2186,8.2311,8.2554,8.3111,8.2935,8.2994,8.3979,8.3986,8.4161,8.5525,8.5685,8.5804,8.6513,8.6139,8.6004,8.6591,8.6885,8.6995,8.6995,8.6995,8.6995,8.6995,8.6995,8.7171,8.7556,8.8109,8.921,9.0984,9.2166,9.3541,9.5127,9.572,9.6117,9.6288,9.6117,9.6117,9.6288,9.6288,9.6288,9.6288,9.6288,9.6288,7.1776,7.3668,7.5784,7.9169,8.0669,8.2208,8.544,8.6209,8.6709,8.8402,8.8748,8.9017,8.9825,9.0633,9.2018,9.4518,9.4249,9.4043,0.0,0.0,0.0,0.0,0.0,0.0,0.0,0.0,0.0,0.0,8.9821,8.9014,8.8243,8.8169,8.7802,8.7031,8.6995,8.6995,8.6995,8.6995,8.6995,8.6995,8.6224,8.6261,8.6995,8.6224,8.582,8.5747,8.4939,8.4132,8.3361,8.2517,8.2223,8.226,8.2223,8.2223,8.226,8.2223,8.2186,8.2186,8.2186,8.2186,8.2186,8.2186,8.2186,8.2186,8.2186,8.2186,8.2186,8.2186,8.2186,8.2186,8.2186,8.2678,8.3161,8.3189,8.3677,8.4104,8.4179,8.4782,8.5496,8.6165,8.5913,8.5611,8.5634,8.5724,8.582,8.5857,8.6518,8.6995,8.6995,8.6995,8.6995,8.6995,8.6995,8.7556,8.9058,8.9194,9.0229,9.2549,9.2781,9.3541,9.5127,9.5212,9.5576,9.6269,9.5598,9.5598,9.6288,9.6288,9.6288,9.6288,9.6288,9.6288,6.9559,7.1573,7.3783,7.6669,7.8823,8.0746,8.2477,8.3708,8.4978,8.6671,8.7478,8.8286,8.9671,9.0171,9.121,9.3749,9.3524,9.3523,0.0,0.0,0.0,0.0,0.0,0.0,0.0,0.0,0.0,0.0,0.0,8.9821,8.9014,8.85,8.7839,8.7031,8.6995,8.6775,8.6224,8.6738,8.6738,8.6224,8.6481,8.6738,8.6995,8.6701,8.6591,8.6518,8.571,8.4903,8.4168,8.3875,8.3434,8.2994,8.2994,8.2663,8.2186,8.2186,8.2186,8.2186,8.2186,8.2186,8.2186,8.2186,8.2186,8.2186,8.2186,8.2186,8.2186,8.2186,8.2186,8.2186,8.2186,8.2708,8.3443,8.4395,8.5558,8.6441,8.6441,8.6701,8.687,8.6563,8.6354,8.6104,8.5669,8.5639,8.5862,8.6412,8.719,8.7861,8.8301,8.8359,8.8359,8.8359,8.8874,8.9402,8.9949,9.0954,9.1931,9.2744,9.331,9.3898,9.4476,9.4939,9.5341,9.5576,9.5341,9.5341,9.5576,9.5576,9.5341,9.4891,9.5363,9.5341,6.7681,6.9536,7.1794,7.4793,7.6861,7.8707,8.0977,8.217,8.3324,8.5286,8.617,8.7171,8.9133,8.9517,9.0234,9.2527,9.272,9.2931,0.0,0.0,0.0,0.0,0.0,0.0,0.0,0.0,0.0,0.0,0.0,0.0,8.9858,8.905,8.8133,8.7031,8.6995,8.6738,8.6224,8.6481,8.6334,8.5783,8.5783,8.6077,8.6591,8.6334,8.6518,8.6995,8.6444,8.5747,8.4976,8.4719,8.4278,8.3801,8.3801,8.3324,8.259,8.259,8.2443,8.2186,8.2186,8.2186,8.2186,8.2186,8.237,8.259,8.259,8.259,8.259,8.259,8.2596,8.256,8.256,8.3376,8.4557,8.5774,8.709,8.7964,8.7333,8.7711,8.7909,8.7057,8.6904,8.6717,8.6008,8.5927,8.6209,8.7098,8.7922,8.8617,8.9043,8.9122,8.9197,8.9499,9.0053,9.0724,9.1484,9.257,9.3403,9.393,9.4301,9.4579,9.4842,9.5072,9.5318,9.5555,9.5096,9.4842,9.4842,9.4842,9.4579,9.413,9.4579,9.4553,0.0,0.0,0.0,7.3528,7.4577,7.5938,8.0939,8.1516,8.1708,8.4247,8.4824,8.5632,8.8171,8.8709,8.932,9.1043,9.2039,9.2353,0.0,0.0,0.0,0.0,0.0,0.0,0.0,0.0,0.0,0.0,9.1803,9.1436,9.0629,8.9784,8.8611,8.7068,8.6995,8.6995,8.6958,8.6224,8.582,8.5747,8.4205,8.4278,8.5747,8.4976,8.549,8.6995,8.6995,8.6554,8.5747,8.4976,8.4646,8.4609,8.4609,8.4095,8.3361,8.3361,8.2884,8.2186,8.2186,8.2186,8.2186,8.2223,8.2774,8.3398,8.3434,8.3471,8.3434,8.3467,8.3374,8.3292,8.3321,8.4907,8.6637,8.7299,8.8175,8.8477,8.676,8.7756,8.8647,8.7606,8.7581,8.7468,8.6591,8.6563,8.6946,8.7777,8.8607,8.9148,8.9173,8.9173,8.9513,9.037,9.0509,9.1471,9.3724,9.396,9.4658,9.6212,9.5598,9.5533,9.6251,9.5576,9.5533,9.6251,9.4842,9.4102,9.4102,9.4075,9.4075,9.4047,9.4047,9.4047,6.4312,0.0,0.0,0.0,0.0,0.0,0.0,7.7592,7.9054,8.1631,8.3131,8.4747,8.7286,8.8748,8.9573,8.9725,9.089,9.1757,0.0,0.0,0.0,0.0,0.0,0.0,0.0,0.0,0.0,0.0,9.1803,9.1179,8.9821,8.8426,8.7472,8.7031,8.6995,8.6738,8.6151,8.6481,8.6077,8.4939,8.5086,8.538,8.5783,8.5563,8.604,8.6995,8.6995,8.6885,8.6664,8.6444,8.5637,8.4609,8.4609,8.3765,8.2517,8.2517,8.237,8.2186,8.2186,8.2186,8.2296,8.2884,8.3214,8.3508,8.4095,8.4278,8.4375,8.4867,8.4979,8.519,8.6174,8.7328,8.8224,8.8336,8.8989,8.9495,8.8996,8.9283,8.9209,8.7828,8.8124,8.8324,8.7468,8.7851,8.8349,8.8584,8.9323,9.0028,9.0546,9.1181,9.164,9.187,9.3001,9.3981,9.4619,9.5291,9.5829,9.6269,9.5598,9.5295,9.5511,9.5318,9.5318,9.5511,9.4579,9.4102,9.4102,9.3559,9.3019,9.2431,9.2431,9.2761,6.3946,6.4896,6.6367,6.8464,0.0,0.0,7.5091,7.6284,7.7592,0.0,8.1862,8.3324,8.5901,8.744,8.827,8.8079,8.9409,0.0,0.0,0.0,0.0,0.0,0.0,0.0,0.0,9.1803,9.1803,9.1803,9.1803,9.1253,8.9968,8.872,8.7876,8.7509,8.7178,8.6775,8.6297,8.6114,8.5527,8.4609,8.4756,8.4976,8.5306,8.5637,8.6224,8.6995,8.6995,8.6995,8.6995,8.6995,8.6444,8.5563,8.5233,8.4315,8.3141,8.281,8.248,8.226,8.259,8.27,8.2847,8.3654,8.4132,8.4566,8.5328,8.5572,8.5688,8.6349,8.653,8.6807,8.8242,8.896,8.9305,8.9217,8.9556,8.9825,8.9479,8.9671,8.9622,8.8711,8.8959,8.915,8.871,8.9017,8.9418,8.9802,9.0242,9.0838,9.1636,9.2172,9.2749,9.348,9.4403,9.5134,9.5518,9.6019,9.6288,9.6288,9.5882,9.5678,9.5678,9.5678,9.5678,9.5678,9.4604,9.3793,9.3134,9.2695,9.2227,9.1803,9.1803,9.2053,6.4707,6.4958,6.6109,6.976,7.0256,0.0,7.5784,7.6361,7.6784,0.0,8.0823,8.1593,8.4132,8.5286,8.5912,8.6085,8.7663,0.0,0.0,0.0,0.0,0.0,0.0,0.0,9.1803,9.1803,9.1803,9.1803,9.162,9.1253,9.0629,8.9674,8.8867,8.8206,8.7435,8.6995,8.6995,8.56,8.4829,8.4719,8.4022,8.4058,8.4756,8.5453,8.6224,8.6995,8.6995,8.6995,8.6995,8.6995,8.6958,8.6811,8.6077,8.5306,8.4499,8.3801,8.3104,8.2553,8.3287,8.3544,8.3691,8.4462,8.5233,8.5952,8.6777,8.7019,8.7196,8.7912,8.8106,8.8361,8.9604,8.9902,8.9902,8.9787,8.971,8.9479,8.894,8.9325,8.9825,9.0017,9.0056,9.0056,9.0056,9.0056,9.0325,9.1095,9.1287,9.1633,9.2402,9.2672,9.3364,9.4826,9.5095,9.5441,9.6249,9.6288,9.6288,9.6288,9.6288,9.6288,9.6288,9.6288,9.6288,9.6288,9.4915,9.347,9.1912,9.1839,9.1803,9.1803,9.1803,9.1803,6.6238,6.6266,6.6656,6.8738,0.0,0.0,7.3707,7.463,7.5707,0.0,7.9015,7.9785,8.2324,8.3516,8.3909,8.3396,8.5799,0.0,0.0,0.0,0.0,0.0,0.0,0.0,9.1803,9.1803,9.1803,9.1803,9.0592,9.0078,9.0592,8.861,8.7692,8.8169,8.7435,8.6995,8.6995,8.6701,8.6224,8.5563,8.5416,8.5416,8.5563,8.571,8.6224,8.6995,8.6995,8.6995,8.6995,8.6995,8.6628,8.6004,8.5857,8.5306,8.4572,8.4425,8.4278,8.4168,8.4315,8.4389,8.4499,8.5306,8.5673,8.6063,8.7452,8.7883,8.8106,8.9332,9.0103,9.0411,9.0021,8.9902,8.9748,8.9094,8.8402,8.8209,8.9402,8.9286,8.9325,9.0671,9.0941,9.0941,9.0941,9.0941,9.1018,9.1171,9.1787,9.2326,9.2479,9.3672,9.4634,9.496,9.5634,9.6134,9.6288,9.6288,9.6288,9.6288,9.6288,9.6288,9.6288,9.6288,9.6288,9.6288,9.5407,9.4265,9.2765,9.2124,9.1803,9.1803,9.1803,9.1803,6.7275,6.7327,6.7697,6.8976,0.0,0.0,0.0,7.413,7.5207,7.6899,7.7592,7.8284,7.9554,8.0862,8.1738,8.1861,8.3707,0.0,0.0,0.0,0.0,0.0,0.0,0.0,9.1216,9.1546,9.1803,9.1803,9.0702,9.0188,9.0592,8.8683,8.7766,8.8206,8.7435,8.6995,8.6995,8.6591,8.6187,8.5783,8.5783,8.5783,8.582,8.6224,8.6628,8.6995,8.6995,8.6995,8.6995,8.6995,8.6775,8.6371,8.5967,8.5527,8.5159,8.4756,8.4609,8.4646,8.5049,8.5196,8.5343,8.6151,8.6407,8.6645,8.8159,8.9069,8.9778,9.0447,9.0895,9.1095,9.0671,9.0556,9.0441,9.0056,8.9286,8.9017,9.0287,8.9902,8.9671,9.0941,9.121,9.121,9.121,9.121,9.1364,9.1787,9.221,9.2787,9.3633,9.448,9.5172,9.5595,9.6057,9.6288,9.6288,9.6288,9.6288,9.6288,9.6288,9.6288,9.6288,9.6288,9.6136,9.5741,9.5385,9.4668,9.353,9.3171,9.2529,9.1803,9.2229,9.2194,0.0,0.0,0.0,0.0,0.0,7.2014,0.0,0.0,0.0,7.6053,7.6669,0.0,0.0,0.0,0.0,0.0,0.0,0.0,0.0,0.0,0.0,0.0,0.0,0.0,0.0,9.0592,9.1069,9.1546,9.0408,8.9895,9.0335,8.883,8.8059,8.8206,8.7435,8.6995,8.6995,8.6371,8.604,8.604,8.604,8.604,8.604,8.6701,8.6995,8.6995,8.6995,8.6995,8.6995,8.6995,8.6995,8.6958,8.6261,8.604,8.593,8.5306,8.5049,8.5159,8.582,8.604,8.6151,8.6811,8.7098,8.739,8.8551,8.9893,9.0989,9.0989,9.11,9.1133,9.0787,9.0825,9.0867,9.0585,8.9952,8.976,9.0759,9.0186,8.9803,9.0779,9.0876,9.0876,9.1136,9.121,9.1518,9.2364,9.2479,9.3095,9.4788,9.498,9.5326,9.6211,9.6288,9.6288,9.6288,9.6288,9.6288,9.6288,9.6288,9.6288,9.6288,9.6288,9.602,9.5407,9.5407,9.5072,9.4319,9.445,9.3726,9.2262,9.2728,9.2666,0.0,0.0,0.0,0.0,7.3668,0.0,0.0,0.0,7.6092,7.6976,0.0,0.0,0.0,0.0,0.0,0.0,0.0,0.0,0.0,0.0,0.0,0.0,0.0,0.0,0.0,8.7912,8.8426,9.0592,8.8023,8.7288,8.9454,8.8023,8.7472,8.8169,8.7435,8.6995,8.6995,8.6921,8.6885,8.6885,8.6885,8.6885,8.6885,8.6958,8.6995,8.6995,8.6995,8.6995,8.6995,8.6995,8.6995,8.6995,8.6921,8.6885,8.6848,8.6775,8.6738,8.6738,8.6848,8.6885,8.6885,8.6995,8.746,8.7985,8.8167,8.9173,9.0203,9.0203,9.0704,9.0864,8.9363,8.9517,8.9719,8.8341,8.7951,8.8294,8.9859,8.9056,8.8477,8.9964,8.974,8.9716,9.0989,9.121,9.1518,9.2364,9.2479,9.3095,9.4788,9.498,9.5326,9.6211,9.6288,9.6288,9.6288,9.6288,9.6288,9.6288,9.6288,9.6288,9.6288,9.6288,9.6251,9.6155,9.6155,9.5821,9.5096,9.572,9.5295,9.385,9.3264,9.2955,0.0,0.0,0.0,0.0,0.0,0.0,7.3912,0.0,7.5879,0.0,0.0,0.0,0.0,0.0,0.0,0.0,7.8678,0.0,0.0,0.0,0.0,0.0,0.0,0.0,0.0,0.0,0.0,0.0,8.6811,8.6444,8.7949,8.7399,8.7142,8.7509,8.7178,8.6995,8.6995,8.6995,8.6995,8.6995,8.6995,8.6995,8.6995,8.6995,8.6995,8.6995,8.6995,8.6995,8.6995,8.6995,8.6995,8.6995,8.6995,8.6995,8.6995,8.6995,8.6995,8.6995,8.6995,8.6995,8.6995,8.6995,8.7489,8.8107,8.8107,8.8746,8.9511,8.9511,8.974,8.9809,8.9124,8.9162,8.9285,8.8611,8.8463,8.8653,8.9397,8.8999,8.8746,8.94,8.9263,8.9301,8.9893,9.0284,9.1046,9.2386,9.2949,9.3826,9.5518,9.5749,9.5903,9.6249,9.6288,9.6095,9.5595,9.5557,9.5557,9.5557,9.6019,9.6288,9.6288,9.6288,9.6288,9.6288,9.6288,9.6136,9.5841,9.6136,9.5981,9.5363,9.4604,9.3821,7.3078,0.0,0.0,0.0,0.0,0.0,0.0,0.0,0.0,0.0,0.0,0.0,0.0,0.0,0.0,0.0,0.0,7.8427,0.0,0.0,0.0,0.0,0.0,0.0,0.0,0.0,0.0,0.0,0.0,8.5123,8.6591,8.6664,8.6775,8.6995,8.7215,8.7215,8.6995,8.7215,8.7215,8.6995,8.6995,8.6995,8.6995,8.6995,8.6995,8.6995,8.6995,8.6995,8.6995,8.6995,8.6995,8.6995,8.6995,8.6995,8.6995,8.6995,8.6995,8.6995,8.6995,8.6995,8.6995,8.6995,8.7361,8.7804,8.7804,8.8309,8.8829,8.8829,8.8963,8.9046,8.8794,8.8933,8.8994,8.8555,8.8829,8.9167,8.9167,8.9001,8.8917,8.9112,8.8814,8.8523,8.8523,8.9238,9.0403,9.2138,9.2801,9.3774,9.5732,9.5963,9.5942,9.5942,9.5942,9.5595,9.4711,9.4864,9.5095,9.5326,9.5942,9.6288,9.6288,9.6288,9.6288,9.6288,9.6288,9.6288,9.6288,9.6288,9.6288,9.6269,9.5533,9.4642,0.0,0.0,0.0,7.3204,0.0,0.0,0.0,0.0,7.3338,0.0,0.0,0.0,0.0,0.0,0.0,7.7645,0.0,0.0,0.0,0.0,0.0,0.0,0.0,0.0,0.0,0.0,0.0,0.0,0.0,0.0,8.5673,8.582,8.6187,8.6995,8.7766,8.7802,8.7031,8.7766,8.7766,8.6995,8.6995,8.6995,8.6995,8.6995,8.6995,8.6995,8.6995,8.6995,8.6995,8.6995,8.6995,8.6995,8.6995,8.6995,8.6995,8.6995,8.6995,8.6995,8.6995,8.6995,8.6995,8.6995,8.6995,8.7029,8.7029,8.7554,8.8137,8.8137,8.8617,8.8933,8.8077,8.8454,8.8711,8.7204,8.8107,8.9292,8.9292,8.8733,8.844,8.9175,8.8072,8.7064,8.7064,8.8212,8.9676,9.1401,9.1563,9.2373,9.4906,9.5133,9.5018,9.5018,9.5018,9.4672,9.3826,9.4518,9.5365,9.6211,9.6288,9.6288,9.6288,9.6288,9.6288,9.6288,9.6288,9.6288,9.6288,9.6288,9.6288,9.6269,9.5533,9.5166,0.0,0.0,7.4984,7.3624,0.0,0.0,0.0,0.0,0.0,0.0,0.0,0.0,0.0,0.0,7.7008,7.7046,7.703,0.0,0.0,0.0,0.0,0.0,0.0,0.0,0.0,0.0,0.0,0.0,8.0975,0.0,0.0,8.4205,8.4829,8.6151,8.6481,8.6738,8.6995,8.7288,8.7288,8.6995,8.6995,8.6995,8.6995,8.6995,8.6995,8.6995,8.6995,8.6995,8.6995,8.6995,8.6995,8.6995,8.6995,8.6995,8.6995,8.6995,8.6995,8.6995,8.6995,8.6995,8.6995,8.6995,8.6995,8.6995,8.6995,8.7163,8.7361,8.7361,8.7554,8.7667,8.7339,8.7487,8.7572,8.7058,8.7361,8.7767,8.7767,8.7568,8.7502,8.7734,8.7347,8.6995,8.6995,8.7833,8.9044,9.0632,9.166,9.2802,9.4262,9.5265,9.5464,9.4373,9.4715,9.4441,9.3018,9.3672,9.4518,9.5365,9.598,9.6288,9.6288,9.6288,9.6288,9.6288,9.6288,9.6288,9.6288,9.6288,9.6288,9.6288,9.604,9.5678,7.3437,7.4253,0.0,7.3771,7.3919,0.0,7.25,0.0,0.0,0.0,0.0,0.0,0.0,0.0,0.0,7.6488,7.6399,0.0,0.0,7.5294,0.0,0.0,0.0,0.0,0.0,0.0,7.8699,8.0057,7.9653,0.0,0.0,0.0,8.3581,8.4903,8.5783,8.6187,8.6151,8.6738,8.6885,8.6591,8.6591,8.6738,8.6995,8.6995,8.6995,8.6995,8.6995,8.6995,8.6995,8.6995,8.6995,8.6995,8.6995,8.6995,8.6995,8.6995,8.6995,8.6995,8.6995,8.6995,8.6995,8.6995,8.6995,8.6995,8.6995,8.6995,8.6995,8.6995,8.6995,8.6995,8.6995,8.6995,8.6995,8.6995,8.7215,8.7435,8.7435,8.7655,8.7766,8.7472,8.7435,8.7362,8.7068,8.7435,8.8304,8.9868,9.1132,9.2337,9.3538,9.4261,9.4332,9.3587,9.3922,9.3832,9.3,9.3672,9.4403,9.496,9.5826,9.6288,9.6288,9.6288,9.6288,9.6288,9.6288,9.6288,9.6288,9.6288,9.6288,9.6288,9.6288,9.604]}]]